Darstellungsparameter: Aktuell verwendete Einstellungen:
Skalierung der Graphiken ... ?
xyx+y,   Skalierungsfaktor:      Skalierung: Modus: x, Faktor: 1
Darstellungszeitraum ... ?
Vom - - bis: - -   Zeitraum: 11.07.2022 - 17.07.2022
Min/Max/Avg-Anzeige ... ?
Zeige MMA aktuell
Zeige MMA Monat
Zeige MMA alles
Zeige --A aktuell
Zeige --A Monat
Zeige --A alles
Keine MMA-Anzeige
MMA:
Keine MMA-Graphiken
MMA-Basis: 11.07.2022 - 17.07.2022
Quicknavigation für Darstellung... ?
Tage:      1T, 2T, 3T, 5T -1T -2T -3T -5T +1T +2T +3T +5T
Wochen: 1W, 2W, 3W -1W -2W -3W +1W +2W +3W
Monate: 1M, 3M, 6M -1M -3M -6M +1M +3M +6M
Jahre:    1J, 3J, 5J, 10J -1J -3J -5J -10J +1J +3J +5J +10J
Nutze für die Darstellung ... ?
Originaldaten oder Mittelwerte auf ...
Stundenbasis Tagesbasis Wochenbasis
Monatsbasis Jahresbasis      Datenbasis: Original-Daten
Darstellen als:
Statistik (Auto) Statistik J:M      Darstellung:
Zur Graphik,    zurück zur Übersicht aller Sensoren.
 
Tabellarische Datenbersicht: ?
 
Sensor: Nr:Datum:Temp:Abs-Feuchte:Windchill:Wind:
Aussen-T/F 1 11-07-2022 00:00:00 16.7 C 11.94 g/m*3 16.7 C 0 km/h
2 11-07-2022 00:05:00 16.7 C 11.94 g/m*3 16.7 C 0 km/h
3 11-07-2022 00:10:00 16.7 C 11.94 g/m*3 16.7 C 0 km/h
4 11-07-2022 00:15:00 16.7 C 11.94 g/m*3 16.7 C 0 km/h
5 11-07-2022 00:20:00 16.7 C 11.94 g/m*3 16.7 C 0 km/h
6 11-07-2022 00:25:00 16.6 C 12.01 g/m*3 16.6 C 0 km/h
7 11-07-2022 00:30:00 16.6 C 12.01 g/m*3 16.6 C 0 km/h
8 11-07-2022 00:35:00 16.6 C 12.01 g/m*3 16.6 C 0 km/h
9 11-07-2022 00:40:00 16.6 C 12.01 g/m*3 16.6 C 0 km/h
10 11-07-2022 00:45:00 16.6 C 12.01 g/m*3 16.6 C 0 km/h
11 11-07-2022 00:50:00 16.6 C 12.01 g/m*3 16.6 C 0 km/h
12 11-07-2022 00:55:00 16.5 C 11.94 g/m*3 16.5 C 0 km/h
13 11-07-2022 01:00:00 16.5 C 11.94 g/m*3 16.5 C 0 km/h
14 11-07-2022 01:05:00 16.5 C 11.94 g/m*3 16.5 C 0 km/h
15 11-07-2022 01:10:00 16.5 C 11.94 g/m*3 16.5 C 0 km/h
16 11-07-2022 01:15:00 16.4 C 11.86 g/m*3 16.4 C 0 km/h
17 11-07-2022 01:20:00 16.4 C 11.86 g/m*3 16.4 C 0 km/h
18 11-07-2022 01:25:00 16.4 C 11.86 g/m*3 16.4 C 0 km/h
19 11-07-2022 01:30:00 16.4 C 11.86 g/m*3 16.4 C 0 km/h
20 11-07-2022 01:35:00 16.4 C 11.86 g/m*3 16.4 C 0 km/h
21 11-07-2022 01:40:00 16.3 C 11.79 g/m*3 16.3 C 0 km/h
22 11-07-2022 01:45:00 16.3 C 11.79 g/m*3 16.3 C 0 km/h
23 11-07-2022 01:50:00 16.3 C 11.79 g/m*3 16.3 C 0 km/h
24 11-07-2022 01:55:00 16.3 C 11.93 g/m*3 16.3 C 0 km/h
25 11-07-2022 02:00:00 16.3 C 11.93 g/m*3 16.3 C 0 km/h
Sensor: Nr:Datum:Temp:Abs-Feuchte:Windchill:Wind:
Aussen-T/F 26 11-07-2022 02:05:00 16.3 C 11.93 g/m*3 16.3 C 0 km/h
27 11-07-2022 02:10:00 16.2 C 11.86 g/m*3 16.2 C 0 km/h
28 11-07-2022 02:15:00 16.2 C 11.86 g/m*3 16.2 C 0 km/h
29 11-07-2022 02:20:00 16.2 C 11.86 g/m*3 16.2 C 1.6 km/h
30 11-07-2022 02:25:00 16.2 C 11.86 g/m*3 16.2 C 0 km/h
31 11-07-2022 02:30:00 16.2 C 11.86 g/m*3 16.2 C 0 km/h
32 11-07-2022 02:35:00 16.2 C 11.86 g/m*3 16.2 C 0 km/h
33 11-07-2022 02:40:00 16.2 C 11.86 g/m*3 16.2 C 0 km/h
34 11-07-2022 02:45:00 16.2 C 11.86 g/m*3 16.2 C 0 km/h
35 11-07-2022 02:50:00 16.2 C 11.86 g/m*3 16.2 C 0 km/h
36 11-07-2022 02:55:00 16.2 C 11.86 g/m*3 16.2 C 0 km/h
37 11-07-2022 03:00:00 16.2 C 11.86 g/m*3 16.2 C 1.6 km/h
38 11-07-2022 03:05:00 16.2 C 11.86 g/m*3 16.2 C 0 km/h
39 11-07-2022 03:10:00 16.3 C 11.93 g/m*3 16.3 C 0 km/h
40 11-07-2022 03:15:00 16.3 C 11.93 g/m*3 16.3 C 1.6 km/h
41 11-07-2022 03:20:00 16.3 C 11.79 g/m*3 16.3 C 0 km/h
42 11-07-2022 03:25:00 16.3 C 11.79 g/m*3 16.3 C 0 km/h
43 11-07-2022 03:30:00 16.3 C 11.79 g/m*3 16.3 C 1.6 km/h
44 11-07-2022 03:35:00 16.3 C 11.79 g/m*3 16.3 C 0 km/h
45 11-07-2022 03:40:00 16.4 C 11.86 g/m*3 16.4 C 1.6 km/h
46 11-07-2022 03:45:00 16.4 C 11.86 g/m*3 16.4 C 0 km/h
47 11-07-2022 03:50:00 16.4 C 11.86 g/m*3 16.4 C 0 km/h
48 11-07-2022 03:55:00 16.4 C 11.86 g/m*3 16.4 C 0 km/h
49 11-07-2022 04:00:00 16.4 C 11.86 g/m*3 16.4 C 1.6 km/h
50 11-07-2022 04:05:00 16.4 C 11.86 g/m*3 16.4 C 0 km/h
Sensor: Nr:Datum:Temp:Abs-Feuchte:Windchill:Wind:
Aussen-T/F 51 11-07-2022 04:10:00 16.4 C 11.86 g/m*3 16.4 C 0 km/h
52 11-07-2022 04:15:00 16.4 C 11.86 g/m*3 16.4 C 0 km/h
53 11-07-2022 04:20:00 16.4 C 11.86 g/m*3 16.4 C 0 km/h
54 11-07-2022 04:25:00 16.4 C 11.86 g/m*3 16.4 C 1.6 km/h
55 11-07-2022 04:30:00 16.4 C 11.86 g/m*3 16.4 C 3.2 km/h
56 11-07-2022 04:35:00 16.4 C 11.86 g/m*3 16.4 C 0 km/h
57 11-07-2022 04:40:00 16.4 C 11.86 g/m*3 16.4 C 0 km/h
58 11-07-2022 04:45:00 16.4 C 11.86 g/m*3 16.4 C 0 km/h
59 11-07-2022 04:50:00 16.4 C 11.86 g/m*3 16.4 C 0 km/h
60 11-07-2022 04:55:00 16.4 C 11.86 g/m*3 16.4 C 0 km/h
61 11-07-2022 05:00:00 16.4 C 11.86 g/m*3 16.4 C 0 km/h
62 11-07-2022 05:05:00 16.4 C 11.86 g/m*3 16.4 C 0 km/h
63 11-07-2022 05:10:00 16.4 C 11.86 g/m*3 16.4 C 0 km/h
64 11-07-2022 05:15:00 16.3 C 11.79 g/m*3 16.3 C 0 km/h
65 11-07-2022 05:20:00 16.3 C 11.79 g/m*3 16.3 C 0 km/h
66 11-07-2022 05:25:00 16.3 C 11.79 g/m*3 16.3 C 0 km/h
67 11-07-2022 05:30:00 16.3 C 11.79 g/m*3 16.3 C 1.6 km/h
68 11-07-2022 05:35:00 16.3 C 11.79 g/m*3 16.3 C 0 km/h
69 11-07-2022 05:40:00 16.3 C 11.93 g/m*3 16.3 C 0 km/h
70 11-07-2022 05:45:00 16.3 C 11.93 g/m*3 16.3 C 0 km/h
71 11-07-2022 05:50:00 16.3 C 11.93 g/m*3 16.3 C 0 km/h
72 11-07-2022 05:55:00 16.3 C 11.93 g/m*3 16.3 C 0 km/h
73 11-07-2022 06:00:00 16.3 C 11.93 g/m*3 16.3 C 1.6 km/h
74 11-07-2022 06:05:00 16.3 C 11.93 g/m*3 16.3 C 0 km/h
75 11-07-2022 06:10:00 16.4 C 12 g/m*3 16.4 C 1.6 km/h
Sensor: Nr:Datum:Temp:Abs-Feuchte:Windchill:Wind:
Aussen-T/F 76 11-07-2022 06:15:00 16.4 C 11.86 g/m*3 16.4 C 3.2 km/h
77 11-07-2022 06:20:00 16.4 C 12 g/m*3 16.4 C 0 km/h
78 11-07-2022 06:25:00 16.5 C 11.94 g/m*3 16.5 C 0 km/h
79 11-07-2022 06:30:00 16.5 C 12.08 g/m*3 16.5 C 4.8 km/h
80 11-07-2022 06:35:00 16.6 C 12.01 g/m*3 16.6 C 1.6 km/h
81 11-07-2022 06:40:00 16.6 C 12.01 g/m*3 16.6 C 0 km/h
82 11-07-2022 06:45:00 16.7 C 12.08 g/m*3 16.7 C 0 km/h
83 11-07-2022 06:50:00 16.7 C 12.08 g/m*3 16.7 C 0 km/h
84 11-07-2022 06:55:00 16.8 C 12.15 g/m*3 16.8 C 4.8 km/h
85 11-07-2022 07:00:00 16.8 C 12.01 g/m*3 16.8 C 0 km/h
86 11-07-2022 07:05:00 16.9 C 12.08 g/m*3 16.9 C 1.6 km/h
87 11-07-2022 07:10:00 17 C 12.15 g/m*3 17 C 1.6 km/h
88 11-07-2022 07:15:00 17.1 C 12.23 g/m*3 17.1 C 4.8 km/h
89 11-07-2022 07:20:00 17.2 C 12.15 g/m*3 17.2 C 3.2 km/h
90 11-07-2022 07:25:00 17.2 C 12.15 g/m*3 17.2 C 4.8 km/h
91 11-07-2022 07:30:00 17.3 C 12.23 g/m*3 17.3 C 3.2 km/h
92 11-07-2022 07:35:00 17.3 C 12.08 g/m*3 17.3 C 6.4 km/h
93 11-07-2022 07:40:00 17.4 C 12.15 g/m*3 17.4 C 6.4 km/h
94 11-07-2022 07:45:00 17.5 C 12.23 g/m*3 17.5 C 8.1 km/h
95 11-07-2022 07:50:00 17.5 C 12.23 g/m*3 17.5 C 9.7 km/h
96 11-07-2022 07:55:00 17.5 C 12.23 g/m*3 17.5 C 9.7 km/h
97 11-07-2022 08:00:00 17.5 C 12.23 g/m*3 17.5 C 9.7 km/h
98 11-07-2022 08:05:00 17.6 C 12.3 g/m*3 17.6 C 6.4 km/h
99 11-07-2022 08:10:00 17.6 C 12.3 g/m*3 17.6 C 4.8 km/h
100 11-07-2022 08:15:00 17.6 C 12.3 g/m*3 17.6 C 3.2 km/h
Sensor: Nr:Datum:Temp:Abs-Feuchte:Windchill:Wind:
Aussen-T/F 101 11-07-2022 08:20:00 17.6 C 12.3 g/m*3 17.6 C 4.8 km/h
102 11-07-2022 08:25:00 17.5 C 12.23 g/m*3 17.5 C 4.8 km/h
103 11-07-2022 08:30:00 17.6 C 12.45 g/m*3 17.6 C 4.8 km/h
104 11-07-2022 08:35:00 17.6 C 12.45 g/m*3 17.6 C 6.4 km/h
105 11-07-2022 08:40:00 17.6 C 12.3 g/m*3 17.6 C 9.7 km/h
106 11-07-2022 08:45:00 17.6 C 12.45 g/m*3 17.6 C 4.8 km/h
107 11-07-2022 08:50:00 17.7 C 12.52 g/m*3 17.7 C 1.6 km/h
108 11-07-2022 08:55:00 17.7 C 12.52 g/m*3 17.7 C 1.6 km/h
109 11-07-2022 09:00:00 17.8 C 12.6 g/m*3 17.8 C 8.1 km/h
110 11-07-2022 09:05:00 17.8 C 12.45 g/m*3 17.8 C 4.8 km/h
111 11-07-2022 09:10:00 17.8 C 12.45 g/m*3 17.8 C 8.1 km/h
112 11-07-2022 09:15:00 17.8 C 12.45 g/m*3 17.8 C 4.8 km/h
113 11-07-2022 09:20:00 17.8 C 12.6 g/m*3 17.8 C 4.8 km/h
114 11-07-2022 09:25:00 17.8 C 12.45 g/m*3 17.8 C 4.8 km/h
115 11-07-2022 09:30:00 17.8 C 12.45 g/m*3 17.8 C 6.4 km/h
116 11-07-2022 09:35:00 17.8 C 12.45 g/m*3 17.8 C 6.4 km/h
117 11-07-2022 09:40:00 17.8 C 12.45 g/m*3 17.8 C 8.1 km/h
118 11-07-2022 09:45:00 17.8 C 12.45 g/m*3 17.8 C 11.3 km/h
119 11-07-2022 09:50:00 17.8 C 12.29 g/m*3 17.8 C 9.7 km/h
120 11-07-2022 09:55:00 17.8 C 12.45 g/m*3 17.8 C 4.8 km/h
121 11-07-2022 10:00:00 17.7 C 12.37 g/m*3 17.7 C 3.2 km/h
122 11-07-2022 10:05:00 17.8 C 12.45 g/m*3 17.8 C 6.4 km/h
123 11-07-2022 10:10:00 17.9 C 12.52 g/m*3 17.9 C 8.1 km/h
124 11-07-2022 10:15:00 18 C 12.59 g/m*3 18 C 3.2 km/h
125 11-07-2022 10:20:00 18.2 C 12.59 g/m*3 18.2 C 3.2 km/h
Sensor: Nr:Datum:Temp:Abs-Feuchte:Windchill:Wind:
Aussen-T/F 126 11-07-2022 10:25:00 18.3 C 12.66 g/m*3 18.3 C 4.8 km/h
127 11-07-2022 10:30:00 18.4 C 12.58 g/m*3 18.4 C 8.1 km/h
128 11-07-2022 10:35:00 18.4 C 12.43 g/m*3 18.4 C 8.1 km/h
129 11-07-2022 10:40:00 18.5 C 12.66 g/m*3 18.5 C 8.1 km/h
130 11-07-2022 10:45:00 18.6 C 12.57 g/m*3 18.6 C 6.4 km/h
131 11-07-2022 10:50:00 18.6 C 12.41 g/m*3 18.6 C 4.8 km/h
132 11-07-2022 10:55:00 18.6 C 12.57 g/m*3 18.6 C 3.2 km/h
133 11-07-2022 11:00:00 18.7 C 12.65 g/m*3 18.7 C 4.8 km/h
134 11-07-2022 11:05:00 18.7 C 12.65 g/m*3 18.7 C 4.8 km/h
135 11-07-2022 11:10:00 18.7 C 12.65 g/m*3 18.7 C 3.2 km/h
136 11-07-2022 11:15:00 18.7 C 12.65 g/m*3 18.7 C 3.2 km/h
137 11-07-2022 11:20:00 18.7 C 12.65 g/m*3 18.7 C 3.2 km/h
138 11-07-2022 11:25:00 18.8 C 12.72 g/m*3 18.8 C 0 km/h
139 11-07-2022 11:30:00 18.8 C 12.72 g/m*3 18.8 C 4.8 km/h
140 11-07-2022 11:35:00 18.8 C 12.56 g/m*3 18.8 C 6.4 km/h
141 11-07-2022 11:40:00 18.8 C 12.56 g/m*3 18.8 C 4.8 km/h
142 11-07-2022 11:45:00 18.9 C 12.8 g/m*3 18.9 C 4.8 km/h
143 11-07-2022 11:50:00 19 C 12.71 g/m*3 19 C 4.8 km/h
144 11-07-2022 11:55:00 19.1 C 12.79 g/m*3 19.1 C 4.8 km/h
145 11-07-2022 12:00:00 19.3 C 12.94 g/m*3 19.3 C 4.8 km/h
146 11-07-2022 12:05:00 19.4 C 12.85 g/m*3 19.4 C 6.4 km/h
147 11-07-2022 12:10:00 19.5 C 12.75 g/m*3 19.5 C 1.6 km/h
148 11-07-2022 12:15:00 19.5 C 12.75 g/m*3 19.5 C 8.1 km/h
149 11-07-2022 12:20:00 19.5 C 12.75 g/m*3 19.5 C 3.2 km/h
150 11-07-2022 12:25:00 19.6 C 12.83 g/m*3 19.6 C 6.4 km/h
Sensor: Nr:Datum:Temp:Abs-Feuchte:Windchill:Wind:
Aussen-T/F 151 11-07-2022 12:30:00 19.6 C 12.83 g/m*3 19.6 C 8.1 km/h
152 11-07-2022 12:35:00 19.5 C 12.75 g/m*3 19.5 C 6.4 km/h
153 11-07-2022 12:40:00 19.6 C 13 g/m*3 19.6 C 3.2 km/h
154 11-07-2022 12:45:00 19.6 C 13 g/m*3 19.6 C 4.8 km/h
155 11-07-2022 12:50:00 19.7 C 13.08 g/m*3 19.7 C 4.8 km/h
156 11-07-2022 12:55:00 19.8 C 13.15 g/m*3 19.8 C 6.4 km/h
157 11-07-2022 13:00:00 20 C 13.31 g/m*3 20 C 8.1 km/h
158 11-07-2022 13:05:00 20.1 C 13.39 g/m*3 20.1 C 6.4 km/h
159 11-07-2022 13:10:00 20.2 C 13.29 g/m*3 20.2 C 9.7 km/h
160 11-07-2022 13:15:00 20.3 C 13.37 g/m*3 20.3 C 8.1 km/h
161 11-07-2022 13:20:00 20.5 C 13.52 g/m*3 20.5 C 4.8 km/h
162 11-07-2022 13:25:00 20.7 C 13.14 g/m*3 20.7 C 9.7 km/h
163 11-07-2022 13:30:00 20.8 C 13.58 g/m*3 20.8 C 3.2 km/h
164 11-07-2022 13:35:00 21 C 13.56 g/m*3 21 C 6.4 km/h
165 11-07-2022 13:40:00 21.1 C 13.45 g/m*3 21.1 C 6.4 km/h
166 11-07-2022 13:45:00 21.1 C 13.45 g/m*3 21.1 C 9.7 km/h
167 11-07-2022 13:50:00 21 C 13.19 g/m*3 21 C 9.7 km/h
168 11-07-2022 13:55:00 20.9 C 13.3 g/m*3 20.9 C 12.9 km/h
169 11-07-2022 14:00:00 20.8 C 13.04 g/m*3 20.8 C 12.9 km/h
170 11-07-2022 14:05:00 20.9 C 13.3 g/m*3 20.9 C 6.4 km/h
171 11-07-2022 14:10:00 20.8 C 13.22 g/m*3 20.8 C 11.3 km/h
172 11-07-2022 14:15:00 20.8 C 13.22 g/m*3 20.8 C 8.1 km/h
173 11-07-2022 14:20:00 20.8 C 13.22 g/m*3 20.8 C 8.1 km/h
174 11-07-2022 14:25:00 20.9 C 13.3 g/m*3 20.9 C 6.4 km/h
175 11-07-2022 14:30:00 20.9 C 13.3 g/m*3 20.9 C 4.8 km/h
Sensor: Nr:Datum:Temp:Abs-Feuchte:Windchill:Wind:
Aussen-T/F 176 11-07-2022 14:35:00 20.9 C 13.3 g/m*3 20.9 C 11.3 km/h
177 11-07-2022 14:40:00 20.9 C 13.3 g/m*3 20.9 C 8.1 km/h
178 11-07-2022 14:45:00 21 C 13.37 g/m*3 21 C 6.4 km/h
179 11-07-2022 14:50:00 21 C 13.19 g/m*3 21 C 12.9 km/h
180 11-07-2022 14:55:00 21.1 C 13.27 g/m*3 21.1 C 8.1 km/h
181 11-07-2022 15:00:00 21.1 C 13.45 g/m*3 21.1 C 6.4 km/h
182 11-07-2022 15:05:00 21 C 13.19 g/m*3 21 C 8.1 km/h
183 11-07-2022 15:10:00 20.9 C 13.11 g/m*3 20.9 C 9.7 km/h
184 11-07-2022 15:15:00 20.7 C 12.96 g/m*3 20.7 C 9.7 km/h
185 11-07-2022 15:20:00 20.6 C 12.89 g/m*3 20.6 C 6.4 km/h
186 11-07-2022 15:25:00 20.7 C 13.14 g/m*3 20.7 C 6.4 km/h
187 11-07-2022 15:30:00 20.7 C 13.14 g/m*3 20.7 C 9.7 km/h
188 11-07-2022 15:35:00 20.7 C 13.32 g/m*3 20.7 C 6.4 km/h
189 11-07-2022 15:40:00 20.7 C 13.32 g/m*3 20.7 C 6.4 km/h
190 11-07-2022 15:45:00 20.8 C 13.4 g/m*3 20.8 C 4.8 km/h
191 11-07-2022 15:50:00 20.8 C 13.4 g/m*3 20.8 C 4.8 km/h
192 11-07-2022 15:55:00 20.8 C 13.22 g/m*3 20.8 C 4.8 km/h
193 11-07-2022 16:00:00 20.8 C 13.4 g/m*3 20.8 C 4.8 km/h
194 11-07-2022 16:05:00 20.8 C 13.4 g/m*3 20.8 C 8.1 km/h
195 11-07-2022 16:10:00 20.8 C 13.22 g/m*3 20.8 C 9.7 km/h
196 11-07-2022 16:15:00 20.9 C 13.48 g/m*3 20.9 C 1.6 km/h
197 11-07-2022 16:20:00 21.2 C 13.53 g/m*3 21.2 C 4.8 km/h
198 11-07-2022 16:25:00 21.3 C 13.42 g/m*3 21.3 C 4.8 km/h
199 11-07-2022 16:30:00 21.5 C 13.58 g/m*3 21.5 C 3.2 km/h
200 11-07-2022 16:35:00 21.6 C 13.47 g/m*3 21.6 C 9.7 km/h
Sensor: Nr:Datum:Temp:Abs-Feuchte:Windchill:Wind:
Aussen-T/F 201 11-07-2022 16:40:00 21.7 C 13.73 g/m*3 21.7 C 4.8 km/h
202 11-07-2022 16:45:00 21.8 C 13.62 g/m*3 21.8 C 4.8 km/h
203 11-07-2022 16:50:00 21.9 C 13.51 g/m*3 21.9 C 3.2 km/h
204 11-07-2022 16:55:00 21.9 C 13.51 g/m*3 21.9 C 6.4 km/h
205 11-07-2022 17:00:00 22 C 13.59 g/m*3 22 C 3.2 km/h
206 11-07-2022 17:05:00 22.1 C 13.66 g/m*3 22.1 C 6.4 km/h
207 11-07-2022 17:10:00 22.2 C 13.55 g/m*3 22.2 C 6.4 km/h
208 11-07-2022 17:15:00 22.2 C 13.55 g/m*3 22.2 C 8.1 km/h
209 11-07-2022 17:20:00 22.3 C 13.62 g/m*3 22.3 C 9.7 km/h
210 11-07-2022 17:25:00 22.4 C 13.5 g/m*3 22.4 C 9.7 km/h
211 11-07-2022 17:30:00 22.7 C 13.74 g/m*3 22.7 C 4.8 km/h
212 11-07-2022 17:35:00 22.9 C 13.69 g/m*3 22.9 C 11.3 km/h
213 11-07-2022 17:40:00 22.8 C 13.61 g/m*3 22.8 C 11.3 km/h
214 11-07-2022 17:45:00 22.6 C 13.46 g/m*3 22.6 C 9.7 km/h
215 11-07-2022 17:50:00 22.4 C 13.7 g/m*3 22.4 C 6.4 km/h
216 11-07-2022 17:55:00 22.6 C 13.66 g/m*3 22.6 C 8.1 km/h
217 11-07-2022 18:00:00 22.9 C 13.9 g/m*3 22.9 C 6.4 km/h
218 11-07-2022 18:05:00 23.1 C 13.85 g/m*3 23.1 C 9.7 km/h
219 11-07-2022 18:10:00 23.5 C 13.75 g/m*3 23.5 C 12.9 km/h
220 11-07-2022 18:15:00 23.6 C 13.4 g/m*3 23.6 C 12.9 km/h
221 11-07-2022 18:20:00 23.6 C 13.61 g/m*3 23.6 C 9.7 km/h
222 11-07-2022 18:25:00 23.7 C 13.69 g/m*3 23.7 C 4.8 km/h
223 11-07-2022 18:30:00 23.8 C 13.34 g/m*3 23.8 C 11.3 km/h
224 11-07-2022 18:35:00 23.8 C 13.77 g/m*3 23.8 C 6.4 km/h
225 11-07-2022 18:40:00 23.9 C 13.63 g/m*3 23.9 C 6.4 km/h
Sensor: Nr:Datum:Temp:Abs-Feuchte:Windchill:Wind:
Aussen-T/F 226 11-07-2022 18:45:00 23.7 C 13.48 g/m*3 23.7 C 12.9 km/h
227 11-07-2022 18:50:00 23.3 C 13.38 g/m*3 23.3 C 11.3 km/h
228 11-07-2022 18:55:00 22.9 C 13.28 g/m*3 22.9 C 11.3 km/h
229 11-07-2022 19:00:00 22.7 C 13.33 g/m*3 22.7 C 6.4 km/h
230 11-07-2022 19:05:00 22.3 C 13.23 g/m*3 22.3 C 6.4 km/h
231 11-07-2022 19:10:00 22.1 C 13.08 g/m*3 22.1 C 9.7 km/h
232 11-07-2022 19:15:00 22 C 13.39 g/m*3 22 C 4.8 km/h
233 11-07-2022 19:20:00 21.9 C 13.7 g/m*3 21.9 C 6.4 km/h
234 11-07-2022 19:25:00 21.9 C 13.7 g/m*3 21.9 C 9.7 km/h
235 11-07-2022 19:30:00 21.9 C 13.89 g/m*3 21.9 C 6.4 km/h
236 11-07-2022 19:35:00 21.9 C 13.7 g/m*3 21.9 C 9.7 km/h
237 11-07-2022 19:40:00 22 C 13.78 g/m*3 22 C 8.1 km/h
238 11-07-2022 19:45:00 22.1 C 13.66 g/m*3 22.1 C 9.7 km/h
239 11-07-2022 19:50:00 22.1 C 13.66 g/m*3 22.1 C 8.1 km/h
240 11-07-2022 19:55:00 22.1 C 13.66 g/m*3 22.1 C 6.4 km/h
241 11-07-2022 20:00:00 22.1 C 13.66 g/m*3 22.1 C 8.1 km/h
242 11-07-2022 20:05:00 22.1 C 13.47 g/m*3 22.1 C 6.4 km/h
243 11-07-2022 20:10:00 22.1 C 13.47 g/m*3 22.1 C 8.1 km/h
244 11-07-2022 20:15:00 22 C 13.39 g/m*3 22 C 4.8 km/h
245 11-07-2022 20:20:00 21.9 C 13.12 g/m*3 21.9 C 4.8 km/h
246 11-07-2022 20:25:00 21.8 C 13.24 g/m*3 21.8 C 6.4 km/h
247 11-07-2022 20:30:00 21.7 C 13.16 g/m*3 21.7 C 4.8 km/h
248 11-07-2022 20:35:00 21.6 C 13.28 g/m*3 21.6 C 3.2 km/h
249 11-07-2022 20:40:00 21.4 C 13.12 g/m*3 21.4 C 3.2 km/h
250 11-07-2022 20:45:00 21.3 C 13.05 g/m*3 21.3 C 9.7 km/h
Sensor: Nr:Datum:Temp:Abs-Feuchte:Windchill:Wind:
Aussen-T/F 251 11-07-2022 20:50:00 21.2 C 12.97 g/m*3 21.2 C 1.6 km/h
252 11-07-2022 20:55:00 21.1 C 13.08 g/m*3 21.1 C 6.4 km/h
253 11-07-2022 21:00:00 21 C 13.01 g/m*3 21 C 1.6 km/h
254 11-07-2022 21:05:00 20.8 C 12.86 g/m*3 20.8 C 3.2 km/h
255 11-07-2022 21:10:00 20.7 C 12.96 g/m*3 20.7 C 4.8 km/h
256 11-07-2022 21:15:00 20.5 C 12.81 g/m*3 20.5 C 6.4 km/h
257 11-07-2022 21:20:00 20.4 C 12.91 g/m*3 20.4 C 3.2 km/h
258 11-07-2022 21:25:00 20.3 C 12.84 g/m*3 20.3 C 1.6 km/h
259 11-07-2022 21:30:00 20.1 C 12.86 g/m*3 20.1 C 0 km/h
260 11-07-2022 21:35:00 19.8 C 12.64 g/m*3 19.8 C 0 km/h
261 11-07-2022 21:40:00 19.5 C 12.59 g/m*3 19.5 C 0 km/h
262 11-07-2022 21:45:00 19.2 C 12.53 g/m*3 19.2 C 0 km/h
263 11-07-2022 21:50:00 18.9 C 12.47 g/m*3 18.9 C 0 km/h
264 11-07-2022 21:55:00 18.6 C 12.26 g/m*3 18.6 C 4.8 km/h
265 11-07-2022 22:00:00 18.3 C 12.35 g/m*3 18.3 C 3.2 km/h
266 11-07-2022 22:05:00 18.1 C 12.21 g/m*3 18.1 C 0 km/h
267 11-07-2022 22:10:00 17.9 C 12.21 g/m*3 17.9 C 0 km/h
268 11-07-2022 22:15:00 17.7 C 12.22 g/m*3 17.7 C 0 km/h
269 11-07-2022 22:20:00 17.4 C 12 g/m*3 17.4 C 0 km/h
270 11-07-2022 22:25:00 17.2 C 12.01 g/m*3 17.2 C 1.6 km/h
271 11-07-2022 22:30:00 17 C 12.01 g/m*3 17 C 3.2 km/h
272 11-07-2022 22:35:00 16.8 C 11.87 g/m*3 16.8 C 0 km/h
273 11-07-2022 22:40:00 16.6 C 11.87 g/m*3 16.6 C 1.6 km/h
274 11-07-2022 22:45:00 16.4 C 11.86 g/m*3 16.4 C 1.6 km/h
275 11-07-2022 22:50:00 16.3 C 11.79 g/m*3 16.3 C 1.6 km/h
Sensor: Nr:Datum:Temp:Abs-Feuchte:Windchill:Wind:
Aussen-T/F 276 11-07-2022 22:55:00 16.2 C 11.86 g/m*3 16.2 C 0 km/h
277 11-07-2022 23:00:00 16.1 C 11.79 g/m*3 16.1 C 0 km/h
278 11-07-2022 23:05:00 16 C 11.72 g/m*3 16 C 0 km/h
279 11-07-2022 23:10:00 15.9 C 11.78 g/m*3 15.9 C 0 km/h
280 11-07-2022 23:15:00 15.8 C 11.71 g/m*3 15.8 C 1.6 km/h
281 11-07-2022 23:20:00 15.7 C 11.64 g/m*3 15.7 C 0 km/h
282 11-07-2022 23:25:00 15.6 C 11.7 g/m*3 15.6 C 0 km/h
283 11-07-2022 23:30:00 15.5 C 11.63 g/m*3 15.5 C 0 km/h
284 11-07-2022 23:35:00 15.4 C 11.56 g/m*3 15.4 C 0 km/h
285 11-07-2022 23:40:00 15.3 C 11.49 g/m*3 15.3 C 0 km/h
286 11-07-2022 23:45:00 15.3 C 11.49 g/m*3 15.3 C 0 km/h
287 11-07-2022 23:50:00 15.2 C 11.42 g/m*3 15.2 C 0 km/h
288 11-07-2022 23:55:00 15.1 C 11.48 g/m*3 15.1 C 0 km/h
289 12-07-2022 00:00:00 15 C 11.41 g/m*3 15 C 0 km/h
290 12-07-2022 00:05:00 14.9 C 11.34 g/m*3 14.9 C 0 km/h
291 12-07-2022 00:10:00 14.8 C 11.27 g/m*3 14.8 C 0 km/h
292 12-07-2022 00:15:00 14.7 C 11.21 g/m*3 14.7 C 0 km/h
293 12-07-2022 00:20:00 14.7 C 11.33 g/m*3 14.7 C 0 km/h
294 12-07-2022 00:25:00 14.6 C 11.26 g/m*3 14.6 C 0 km/h
295 12-07-2022 00:30:00 14.6 C 11.26 g/m*3 14.6 C 0 km/h
296 12-07-2022 00:35:00 14.5 C 11.19 g/m*3 14.5 C 0 km/h
297 12-07-2022 00:40:00 14.4 C 11.13 g/m*3 14.4 C 0 km/h
298 12-07-2022 00:45:00 14.3 C 11.06 g/m*3 14.3 C 0 km/h
299 12-07-2022 00:50:00 14.3 C 11.06 g/m*3 14.3 C 0 km/h
300 12-07-2022 00:55:00 14.3 C 11.06 g/m*3 14.3 C 0 km/h
Sensor: Nr:Datum:Temp:Abs-Feuchte:Windchill:Wind:
Aussen-T/F 301 12-07-2022 01:00:00 14.2 C 10.99 g/m*3 14.2 C 0 km/h
302 12-07-2022 01:05:00 14.2 C 11.11 g/m*3 14.2 C 0 km/h
303 12-07-2022 01:10:00 14.1 C 11.04 g/m*3 14.1 C 0 km/h
304 12-07-2022 01:15:00 14 C 10.98 g/m*3 14 C 0 km/h
305 12-07-2022 01:20:00 13.9 C 10.91 g/m*3 13.9 C 0 km/h
306 12-07-2022 01:25:00 13.9 C 10.91 g/m*3 13.9 C 0 km/h
307 12-07-2022 01:30:00 13.8 C 10.84 g/m*3 13.8 C 0 km/h
308 12-07-2022 01:35:00 13.8 C 10.96 g/m*3 13.8 C 0 km/h
309 12-07-2022 01:40:00 13.8 C 10.96 g/m*3 13.8 C 0 km/h
310 12-07-2022 01:45:00 13.7 C 10.89 g/m*3 13.7 C 0 km/h
311 12-07-2022 01:50:00 13.7 C 10.89 g/m*3 13.7 C 0 km/h
312 12-07-2022 01:55:00 13.6 C 10.83 g/m*3 13.6 C 0 km/h
313 12-07-2022 02:00:00 13.6 C 10.83 g/m*3 13.6 C 0 km/h
314 12-07-2022 02:05:00 13.6 C 10.83 g/m*3 13.6 C 0 km/h
315 12-07-2022 02:10:00 13.5 C 10.76 g/m*3 13.5 C 0 km/h
316 12-07-2022 02:15:00 13.4 C 10.69 g/m*3 13.4 C 0 km/h
317 12-07-2022 02:20:00 13.3 C 10.63 g/m*3 13.3 C 0 km/h
318 12-07-2022 02:25:00 13.3 C 10.63 g/m*3 13.3 C 0 km/h
319 12-07-2022 02:30:00 13.2 C 10.56 g/m*3 13.2 C 0 km/h
320 12-07-2022 02:35:00 13.2 C 10.56 g/m*3 13.2 C 0 km/h
321 12-07-2022 02:40:00 13.2 C 10.68 g/m*3 13.2 C 0 km/h
322 12-07-2022 02:45:00 13.1 C 10.5 g/m*3 13.1 C 0 km/h
323 12-07-2022 02:50:00 13.1 C 10.61 g/m*3 13.1 C 0 km/h
324 12-07-2022 02:55:00 13 C 10.55 g/m*3 13 C 0 km/h
325 12-07-2022 03:00:00 12.9 C 10.48 g/m*3 12.9 C 0 km/h
Sensor: Nr:Datum:Temp:Abs-Feuchte:Windchill:Wind:
Aussen-T/F 326 12-07-2022 03:05:00 12.9 C 10.48 g/m*3 12.9 C 0 km/h
327 12-07-2022 03:10:00 12.9 C 10.48 g/m*3 12.9 C 0 km/h
328 12-07-2022 03:15:00 12.8 C 10.42 g/m*3 12.8 C 0 km/h
329 12-07-2022 03:20:00 12.7 C 10.35 g/m*3 12.7 C 0 km/h
330 12-07-2022 03:25:00 12.7 C 10.35 g/m*3 12.7 C 0 km/h
331 12-07-2022 03:30:00 12.6 C 10.29 g/m*3 12.6 C 0 km/h
332 12-07-2022 03:35:00 12.6 C 10.29 g/m*3 12.6 C 0 km/h
333 12-07-2022 03:40:00 12.6 C 10.29 g/m*3 12.6 C 0 km/h
334 12-07-2022 03:45:00 12.6 C 10.4 g/m*3 12.6 C 0 km/h
335 12-07-2022 03:50:00 12.6 C 10.4 g/m*3 12.6 C 0 km/h
336 12-07-2022 03:55:00 12.6 C 10.29 g/m*3 12.6 C 0 km/h
337 12-07-2022 04:00:00 12.4 C 10.16 g/m*3 12.4 C 0 km/h
338 12-07-2022 04:05:00 12.4 C 10.16 g/m*3 12.4 C 0 km/h
339 12-07-2022 04:10:00 12.3 C 10.1 g/m*3 12.3 C 0 km/h
340 12-07-2022 04:15:00 12.3 C 10.1 g/m*3 12.3 C 0 km/h
341 12-07-2022 04:20:00 12.2 C 10.04 g/m*3 12.2 C 0 km/h
342 12-07-2022 04:25:00 12.2 C 10.04 g/m*3 12.2 C 0 km/h
343 12-07-2022 04:30:00 12.1 C 9.97 g/m*3 12.1 C 0 km/h
344 12-07-2022 04:35:00 12.1 C 9.97 g/m*3 12.1 C 0 km/h
345 12-07-2022 04:40:00 12.1 C 10.08 g/m*3 12.1 C 0 km/h
346 12-07-2022 04:45:00 11.9 C 9.96 g/m*3 11.9 C 0 km/h
347 12-07-2022 04:50:00 11.9 C 9.96 g/m*3 11.9 C 0 km/h
348 12-07-2022 04:55:00 11.8 C 9.79 g/m*3 11.8 C 0 km/h
349 12-07-2022 05:00:00 11.8 C 9.89 g/m*3 11.8 C 1.6 km/h
350 12-07-2022 05:05:00 11.8 C 9.89 g/m*3 11.8 C 0 km/h
Sensor: Nr:Datum:Temp:Abs-Feuchte:Windchill:Wind:
Aussen-T/F 351 12-07-2022 05:10:00 11.8 C 9.89 g/m*3 11.8 C 0 km/h
352 12-07-2022 05:15:00 11.7 C 9.83 g/m*3 11.7 C 0 km/h
353 12-07-2022 05:20:00 11.7 C 9.83 g/m*3 11.7 C 0 km/h
354 12-07-2022 05:25:00 11.7 C 9.83 g/m*3 11.7 C 0 km/h
355 12-07-2022 05:30:00 11.7 C 9.83 g/m*3 11.7 C 0 km/h
356 12-07-2022 05:35:00 11.7 C 9.83 g/m*3 11.7 C 1.6 km/h
357 12-07-2022 05:40:00 11.7 C 9.83 g/m*3 11.7 C 0 km/h
358 12-07-2022 05:45:00 11.8 C 10 g/m*3 11.8 C 0 km/h
359 12-07-2022 05:50:00 11.8 C 10 g/m*3 11.8 C 0 km/h
360 12-07-2022 05:55:00 11.8 C 9.89 g/m*3 11.8 C 0 km/h
361 12-07-2022 06:00:00 11.8 C 10 g/m*3 11.8 C 0 km/h
362 12-07-2022 06:05:00 11.8 C 10 g/m*3 11.8 C 0 km/h
363 12-07-2022 06:10:00 11.8 C 10 g/m*3 11.8 C 0 km/h
364 12-07-2022 06:15:00 11.8 C 10 g/m*3 11.8 C 0 km/h
365 12-07-2022 06:20:00 11.7 C 9.94 g/m*3 11.7 C 0 km/h
366 12-07-2022 06:25:00 11.7 C 9.94 g/m*3 11.7 C 0 km/h
367 12-07-2022 06:30:00 11.7 C 9.83 g/m*3 11.7 C 0 km/h
368 12-07-2022 06:35:00 11.6 C 9.77 g/m*3 11.6 C 0 km/h
369 12-07-2022 06:40:00 11.6 C 9.77 g/m*3 11.6 C 0 km/h
370 12-07-2022 06:45:00 11.6 C 9.77 g/m*3 11.6 C 0 km/h
371 12-07-2022 06:50:00 11.6 C 9.87 g/m*3 11.6 C 0 km/h
372 12-07-2022 06:55:00 11.7 C 9.94 g/m*3 11.7 C 0 km/h
373 12-07-2022 07:00:00 11.8 C 10 g/m*3 11.8 C 1.6 km/h
374 12-07-2022 07:05:00 12.1 C 10.19 g/m*3 12.1 C 0 km/h
375 12-07-2022 07:10:00 12.2 C 10.36 g/m*3 12.2 C 0 km/h
Sensor: Nr:Datum:Temp:Abs-Feuchte:Windchill:Wind:
Aussen-T/F 376 12-07-2022 07:15:00 12.3 C 10.42 g/m*3 12.3 C 0 km/h
377 12-07-2022 07:20:00 12.4 C 10.38 g/m*3 12.4 C 0 km/h
378 12-07-2022 07:25:00 12.6 C 10.51 g/m*3 12.6 C 0 km/h
379 12-07-2022 07:30:00 12.6 C 10.62 g/m*3 12.6 C 0 km/h
380 12-07-2022 07:35:00 12.7 C 10.69 g/m*3 12.7 C 0 km/h
381 12-07-2022 07:40:00 12.7 C 10.58 g/m*3 12.7 C 3.2 km/h
382 12-07-2022 07:45:00 12.8 C 10.64 g/m*3 12.8 C 3.2 km/h
383 12-07-2022 07:50:00 12.8 C 10.64 g/m*3 12.8 C 1.6 km/h
384 12-07-2022 07:55:00 12.9 C 10.82 g/m*3 12.9 C 0 km/h
385 12-07-2022 08:00:00 12.9 C 10.82 g/m*3 12.9 C 0 km/h
386 12-07-2022 08:05:00 13.1 C 10.95 g/m*3 13.1 C 0 km/h
387 12-07-2022 08:10:00 13.1 C 10.95 g/m*3 13.1 C 0 km/h
388 12-07-2022 08:15:00 13.2 C 11.02 g/m*3 13.2 C 0 km/h
389 12-07-2022 08:20:00 13.2 C 11.02 g/m*3 13.2 C 0 km/h
390 12-07-2022 08:25:00 13.3 C 11.09 g/m*3 13.3 C 0 km/h
391 12-07-2022 08:30:00 13.3 C 11.09 g/m*3 13.3 C 0 km/h
392 12-07-2022 08:35:00 13.3 C 11.09 g/m*3 13.3 C 0 km/h
393 12-07-2022 08:40:00 13.4 C 11.16 g/m*3 13.4 C 0 km/h
394 12-07-2022 08:45:00 13.4 C 11.16 g/m*3 13.4 C 0 km/h
395 12-07-2022 08:50:00 13.5 C 11.23 g/m*3 13.5 C 0 km/h
396 12-07-2022 08:55:00 13.6 C 11.3 g/m*3 13.6 C 0 km/h
397 12-07-2022 09:00:00 13.6 C 11.3 g/m*3 13.6 C 0 km/h
398 12-07-2022 09:05:00 13.7 C 11.37 g/m*3 13.7 C 0 km/h
399 12-07-2022 09:10:00 13.8 C 11.44 g/m*3 13.8 C 0 km/h
400 12-07-2022 09:15:00 14.2 C 11.72 g/m*3 14.2 C 0 km/h
Sensor: Nr:Datum:Temp:Abs-Feuchte:Windchill:Wind:
Aussen-T/F 401 12-07-2022 09:20:00 14.5 C 11.94 g/m*3 14.5 C 0 km/h
402 12-07-2022 09:25:00 14.9 C 12.36 g/m*3 14.9 C 0 km/h
403 12-07-2022 09:30:00 15.2 C 12.59 g/m*3 15.2 C 0 km/h
404 12-07-2022 09:35:00 15.4 C 12.61 g/m*3 15.4 C 1.6 km/h
405 12-07-2022 09:40:00 15.7 C 12.84 g/m*3 15.7 C 0 km/h
406 12-07-2022 09:45:00 15.9 C 13 g/m*3 15.9 C 0 km/h
407 12-07-2022 09:50:00 16.2 C 13.24 g/m*3 16.2 C 0 km/h
408 12-07-2022 09:55:00 16.3 C 13.18 g/m*3 16.3 C 0 km/h
409 12-07-2022 10:00:00 16.4 C 13.26 g/m*3 16.4 C 0 km/h
410 12-07-2022 10:05:00 16.6 C 13.28 g/m*3 16.6 C 0 km/h
411 12-07-2022 10:10:00 16.7 C 13.36 g/m*3 16.7 C 0 km/h
412 12-07-2022 10:15:00 16.8 C 13.44 g/m*3 16.8 C 0 km/h
413 12-07-2022 10:20:00 16.9 C 13.38 g/m*3 16.9 C 0 km/h
414 12-07-2022 10:25:00 17.3 C 13.7 g/m*3 17.3 C 0 km/h
415 12-07-2022 10:30:00 17.6 C 13.8 g/m*3 17.6 C 0 km/h
416 12-07-2022 10:35:00 18 C 14.13 g/m*3 18 C 1.6 km/h
417 12-07-2022 10:40:00 18.4 C 14 g/m*3 18.4 C 1.6 km/h
418 12-07-2022 10:45:00 18.8 C 14.01 g/m*3 18.8 C 4.8 km/h
419 12-07-2022 10:50:00 19.3 C 13.44 g/m*3 19.3 C 6.4 km/h
420 12-07-2022 10:55:00 19.9 C 13.74 g/m*3 19.9 C 4.8 km/h
421 12-07-2022 11:00:00 20.4 C 13.62 g/m*3 20.4 C 4.8 km/h
422 12-07-2022 11:05:00 20.9 C 13.66 g/m*3 20.9 C 1.6 km/h
423 12-07-2022 11:10:00 21.4 C 13.5 g/m*3 21.4 C 6.4 km/h
424 12-07-2022 11:15:00 21.7 C 12.97 g/m*3 21.7 C 4.8 km/h
425 12-07-2022 11:20:00 21.9 C 12.93 g/m*3 21.9 C 6.4 km/h
Sensor: Nr:Datum:Temp:Abs-Feuchte:Windchill:Wind:
Aussen-T/F 426 12-07-2022 11:25:00 22.2 C 13.35 g/m*3 22.2 C 1.6 km/h
427 12-07-2022 11:30:00 22.6 C 13.86 g/m*3 22.6 C 0 km/h
428 12-07-2022 11:35:00 22.8 C 13.21 g/m*3 22.8 C 0 km/h
429 12-07-2022 11:40:00 23.1 C 13.02 g/m*3 23.1 C 3.2 km/h
430 12-07-2022 11:45:00 23.2 C 12.89 g/m*3 23.2 C 3.2 km/h
431 12-07-2022 11:50:00 23.4 C 13.04 g/m*3 23.4 C 3.2 km/h
432 12-07-2022 11:55:00 23.7 C 13.26 g/m*3 23.7 C 6.4 km/h
433 12-07-2022 12:00:00 23.8 C 12.91 g/m*3 23.8 C 11.3 km/h
434 12-07-2022 12:05:00 24 C 12.84 g/m*3 24 C 4.8 km/h
435 12-07-2022 12:10:00 24.2 C 12.98 g/m*3 24.2 C 3.2 km/h
436 12-07-2022 12:15:00 24.4 C 13.13 g/m*3 24.4 C 4.8 km/h
437 12-07-2022 12:20:00 24.6 C 13.28 g/m*3 24.6 C 4.8 km/h
438 12-07-2022 12:25:00 24.8 C 12.97 g/m*3 24.8 C 4.8 km/h
439 12-07-2022 12:30:00 24.9 C 12.82 g/m*3 24.9 C 11.3 km/h
440 12-07-2022 12:35:00 24.9 C 13.05 g/m*3 24.9 C 4.8 km/h
441 12-07-2022 12:40:00 25.1 C 13.2 g/m*3 25.1 C 9.7 km/h
442 12-07-2022 12:45:00 25.1 C 12.73 g/m*3 25.1 C 6.4 km/h
443 12-07-2022 12:50:00 25.2 C 13.27 g/m*3 25.2 C 3.2 km/h
444 12-07-2022 12:55:00 25.4 C 13.18 g/m*3 25.4 C 6.4 km/h
445 12-07-2022 13:00:00 25.7 C 13.41 g/m*3 25.7 C 6.4 km/h
446 12-07-2022 13:05:00 25.9 C 13.56 g/m*3 25.9 C 6.4 km/h
447 12-07-2022 13:10:00 25.9 C 13.07 g/m*3 25.9 C 6.4 km/h
448 12-07-2022 13:15:00 26 C 13.39 g/m*3 26 C 1.6 km/h
449 12-07-2022 13:20:00 26.1 C 13.22 g/m*3 26.1 C 4.8 km/h
450 12-07-2022 13:25:00 26.3 C 13.12 g/m*3 26.3 C 11.3 km/h
Sensor: Nr:Datum:Temp:Abs-Feuchte:Windchill:Wind:
Aussen-T/F 451 12-07-2022 13:30:00 26.2 C 13.54 g/m*3 26.2 C 8.1 km/h
452 12-07-2022 13:35:00 26.4 C 12.94 g/m*3 26.4 C 8.1 km/h
453 12-07-2022 13:40:00 26.5 C 12.77 g/m*3 26.5 C 8.1 km/h
454 12-07-2022 13:45:00 26.7 C 12.91 g/m*3 26.7 C 9.7 km/h
455 12-07-2022 13:50:00 26.8 C 13.24 g/m*3 26.8 C 8.1 km/h
456 12-07-2022 13:55:00 27.1 C 13.46 g/m*3 27.1 C 4.8 km/h
457 12-07-2022 14:00:00 27.2 C 13.01 g/m*3 27.2 C 9.7 km/h
458 12-07-2022 14:05:00 27.4 C 13.42 g/m*3 27.4 C 4.8 km/h
459 12-07-2022 14:10:00 27.6 C 13.3 g/m*3 27.6 C 4.8 km/h
460 12-07-2022 14:15:00 27.8 C 12.64 g/m*3 27.8 C 4.8 km/h
461 12-07-2022 14:20:00 27.9 C 12.71 g/m*3 27.9 C 8.1 km/h
462 12-07-2022 14:25:00 28.1 C 12.85 g/m*3 28.1 C 9.7 km/h
463 12-07-2022 14:30:00 28.1 C 13.13 g/m*3 28.1 C 8.1 km/h
464 12-07-2022 14:35:00 28.4 C 12.79 g/m*3 28.4 C 4.8 km/h
465 12-07-2022 14:40:00 28.5 C 12.58 g/m*3 28.5 C 9.7 km/h
466 12-07-2022 14:45:00 28.3 C 12.72 g/m*3 28.3 C 11.3 km/h
467 12-07-2022 14:50:00 28.2 C 12.92 g/m*3 28.2 C 8.1 km/h
468 12-07-2022 14:55:00 28.3 C 12.72 g/m*3 28.3 C 6.4 km/h
469 12-07-2022 15:00:00 28.4 C 13.06 g/m*3 28.4 C 4.8 km/h
470 12-07-2022 15:05:00 28.8 C 12.5 g/m*3 28.8 C 6.4 km/h
471 12-07-2022 15:10:00 28.9 C 12.57 g/m*3 28.9 C 8.1 km/h
472 12-07-2022 15:15:00 28.9 C 12.57 g/m*3 28.9 C 9.7 km/h
473 12-07-2022 15:20:00 29 C 12.06 g/m*3 29 C 4.8 km/h
474 12-07-2022 15:25:00 29.2 C 12.2 g/m*3 29.2 C 3.2 km/h
475 12-07-2022 15:30:00 29.4 C 12.33 g/m*3 29.4 C 6.4 km/h
Sensor: Nr:Datum:Temp:Abs-Feuchte:Windchill:Wind:
Aussen-T/F 476 12-07-2022 15:35:00 29.3 C 11.97 g/m*3 29.3 C 9.7 km/h
477 12-07-2022 15:40:00 29.2 C 11.91 g/m*3 29.2 C 9.7 km/h
478 12-07-2022 15:45:00 29.2 C 11.91 g/m*3 29.2 C 6.4 km/h
479 12-07-2022 15:50:00 29.3 C 11.97 g/m*3 29.3 C 9.7 km/h
480 12-07-2022 15:55:00 29.6 C 11.57 g/m*3 29.6 C 8.1 km/h
481 12-07-2022 16:00:00 29.6 C 12.17 g/m*3 29.6 C 4.8 km/h
482 12-07-2022 16:05:00 29.7 C 11.93 g/m*3 29.7 C 9.7 km/h
483 12-07-2022 16:10:00 29.9 C 11.76 g/m*3 29.9 C 3.2 km/h
484 12-07-2022 16:15:00 30 C 11.83 g/m*3 30 C 9.7 km/h
485 12-07-2022 16:20:00 29.7 C 11.34 g/m*3 29.7 C 9.7 km/h
486 12-07-2022 16:25:00 29.5 C 11.22 g/m*3 29.5 C 4.8 km/h
487 12-07-2022 16:30:00 29.4 C 11.15 g/m*3 29.4 C 8.1 km/h
488 12-07-2022 16:35:00 29.3 C 11.68 g/m*3 29.3 C 8.1 km/h
489 12-07-2022 16:40:00 29.3 C 11.39 g/m*3 29.3 C 1.6 km/h
490 12-07-2022 16:45:00 29.4 C 11.45 g/m*3 29.4 C 4.8 km/h
491 12-07-2022 16:50:00 29.7 C 11.93 g/m*3 29.7 C 4.8 km/h
492 12-07-2022 16:55:00 30 C 11.22 g/m*3 30 C 3.2 km/h
493 12-07-2022 17:00:00 30.2 C 10.73 g/m*3 30.2 C 9.7 km/h
494 12-07-2022 17:05:00 30.2 C 11.04 g/m*3 30.2 C 4.8 km/h
495 12-07-2022 17:10:00 30.3 C 10.48 g/m*3 30.3 C 4.8 km/h
496 12-07-2022 17:15:00 30.2 C 10.42 g/m*3 30.2 C 1.6 km/h
497 12-07-2022 17:20:00 30.2 C 10.42 g/m*3 30.2 C 1.6 km/h
498 12-07-2022 17:25:00 30.4 C 9.92 g/m*3 30.4 C 4.8 km/h
499 12-07-2022 17:30:00 30.6 C 10.02 g/m*3 30.6 C 4.8 km/h
500 12-07-2022 17:35:00 30.7 C 10.39 g/m*3 30.7 C 1.6 km/h
Sensor: Nr:Datum:Temp:Abs-Feuchte:Windchill:Wind:
Aussen-T/F 501 12-07-2022 17:40:00 30.7 C 10.08 g/m*3 30.7 C 3.2 km/h
502 12-07-2022 17:45:00 30.5 C 10.9 g/m*3 30.5 C 4.8 km/h
503 12-07-2022 17:50:00 30.4 C 10.85 g/m*3 30.4 C 0 km/h
504 12-07-2022 17:55:00 30.3 C 11.1 g/m*3 30.3 C 0 km/h
505 12-07-2022 18:00:00 30.3 C 11.1 g/m*3 30.3 C 0 km/h
506 12-07-2022 18:05:00 30.4 C 10.85 g/m*3 30.4 C 1.6 km/h
507 12-07-2022 18:10:00 30.4 C 11.77 g/m*3 30.4 C 0 km/h
508 12-07-2022 18:15:00 30.3 C 10.79 g/m*3 30.3 C 3.2 km/h
509 12-07-2022 18:20:00 30.3 C 10.79 g/m*3 30.3 C 3.2 km/h
510 12-07-2022 18:25:00 30.3 C 9.86 g/m*3 30.3 C 4.8 km/h
511 12-07-2022 18:30:00 30.2 C 9.81 g/m*3 30.2 C 3.2 km/h
512 12-07-2022 18:35:00 30.2 C 9.81 g/m*3 30.2 C 3.2 km/h
513 12-07-2022 18:40:00 30.2 C 9.81 g/m*3 30.2 C 3.2 km/h
514 12-07-2022 18:45:00 30.1 C 9.76 g/m*3 30.1 C 0 km/h
515 12-07-2022 18:50:00 29.9 C 9.95 g/m*3 29.9 C 4.8 km/h
516 12-07-2022 18:55:00 29.7 C 12.53 g/m*3 29.7 C 1.6 km/h
517 12-07-2022 19:00:00 29.6 C 13.35 g/m*3 29.6 C 1.6 km/h
518 12-07-2022 19:05:00 29.3 C 14.01 g/m*3 29.3 C 0 km/h
519 12-07-2022 19:10:00 28.9 C 13.71 g/m*3 28.9 C 0 km/h
520 12-07-2022 19:15:00 28.5 C 13.7 g/m*3 28.5 C 0 km/h
521 12-07-2022 19:20:00 28.2 C 13.2 g/m*3 28.2 C 0 km/h
522 12-07-2022 19:25:00 28 C 13.33 g/m*3 28 C 1.6 km/h
523 12-07-2022 19:30:00 27.8 C 14.26 g/m*3 27.8 C 1.6 km/h
524 12-07-2022 19:35:00 27.6 C 13.83 g/m*3 27.6 C 1.6 km/h
525 12-07-2022 19:40:00 27.4 C 13.68 g/m*3 27.4 C 1.6 km/h
Sensor: Nr:Datum:Temp:Abs-Feuchte:Windchill:Wind:
Aussen-T/F 526 12-07-2022 19:45:00 27.2 C 13.27 g/m*3 27.2 C 3.2 km/h
527 12-07-2022 19:50:00 26.8 C 13.24 g/m*3 26.8 C 1.6 km/h
528 12-07-2022 19:55:00 26.4 C 13.94 g/m*3 26.4 C 1.6 km/h
529 12-07-2022 20:00:00 26.1 C 13.71 g/m*3 26.1 C 0 km/h
530 12-07-2022 20:05:00 25.6 C 13.33 g/m*3 25.6 C 0 km/h
531 12-07-2022 20:10:00 25.2 C 13.97 g/m*3 25.2 C 0 km/h
532 12-07-2022 20:15:00 24.8 C 12.97 g/m*3 24.8 C 0 km/h
533 12-07-2022 20:20:00 24.6 C 13.5 g/m*3 24.6 C 0 km/h
534 12-07-2022 20:25:00 24.3 C 13.5 g/m*3 24.3 C 0 km/h
535 12-07-2022 20:30:00 24.2 C 13.86 g/m*3 24.2 C 0 km/h
536 12-07-2022 20:35:00 24 C 13.49 g/m*3 24 C 0 km/h
537 12-07-2022 20:40:00 23.7 C 13.05 g/m*3 23.7 C 0 km/h
538 12-07-2022 20:45:00 23.5 C 13.53 g/m*3 23.5 C 0 km/h
539 12-07-2022 20:50:00 23.2 C 13.51 g/m*3 23.2 C 0 km/h
540 12-07-2022 20:55:00 22.9 C 13.08 g/m*3 22.9 C 0 km/h
541 12-07-2022 21:00:00 22.6 C 12.86 g/m*3 22.6 C 0 km/h
542 12-07-2022 21:05:00 22.4 C 12.91 g/m*3 22.4 C 4.8 km/h
543 12-07-2022 21:10:00 22.3 C 12.44 g/m*3 22.3 C 4.8 km/h
544 12-07-2022 21:15:00 22.2 C 12.57 g/m*3 22.2 C 4.8 km/h
545 12-07-2022 21:20:00 22.1 C 12.69 g/m*3 22.1 C 3.2 km/h
546 12-07-2022 21:25:00 21.9 C 12.74 g/m*3 21.9 C 0 km/h
547 12-07-2022 21:30:00 21.8 C 12.47 g/m*3 21.8 C 0 km/h
548 12-07-2022 21:35:00 21.4 C 12.56 g/m*3 21.4 C 0 km/h
549 12-07-2022 21:40:00 21.1 C 12.53 g/m*3 21.1 C 0 km/h
550 12-07-2022 21:45:00 20.7 C 12.24 g/m*3 20.7 C 0 km/h
Sensor: Nr:Datum:Temp:Abs-Feuchte:Windchill:Wind:
Aussen-T/F 551 12-07-2022 21:50:00 20.4 C 12.03 g/m*3 20.4 C 0 km/h
552 12-07-2022 21:55:00 20.2 C 12.06 g/m*3 20.2 C 0 km/h
553 12-07-2022 22:00:00 20 C 12.1 g/m*3 20 C 0 km/h
554 12-07-2022 22:05:00 19.8 C 12.13 g/m*3 19.8 C 0 km/h
555 12-07-2022 22:10:00 19.6 C 11.82 g/m*3 19.6 C 0 km/h
556 12-07-2022 22:15:00 19.4 C 11.85 g/m*3 19.4 C 0 km/h
557 12-07-2022 22:20:00 19.3 C 11.94 g/m*3 19.3 C 0 km/h
558 12-07-2022 22:25:00 19.2 C 11.87 g/m*3 19.2 C 0 km/h
559 12-07-2022 22:30:00 19.1 C 11.97 g/m*3 19.1 C 0 km/h
560 12-07-2022 22:35:00 18.9 C 11.83 g/m*3 18.9 C 0 km/h
561 12-07-2022 22:40:00 18.8 C 11.92 g/m*3 18.8 C 0 km/h
562 12-07-2022 22:45:00 18.7 C 11.85 g/m*3 18.7 C 0 km/h
563 12-07-2022 22:50:00 18.5 C 11.71 g/m*3 18.5 C 0 km/h
564 12-07-2022 22:55:00 18.4 C 11.64 g/m*3 18.4 C 0 km/h
565 12-07-2022 23:00:00 18.3 C 11.73 g/m*3 18.3 C 0 km/h
566 12-07-2022 23:05:00 18.3 C 11.73 g/m*3 18.3 C 0 km/h
567 12-07-2022 23:10:00 18.2 C 11.81 g/m*3 18.2 C 0 km/h
568 12-07-2022 23:15:00 18.1 C 11.74 g/m*3 18.1 C 0 km/h
569 12-07-2022 23:20:00 17.9 C 11.6 g/m*3 17.9 C 0 km/h
570 12-07-2022 23:25:00 17.9 C 11.76 g/m*3 17.9 C 0 km/h
571 12-07-2022 23:30:00 17.8 C 11.69 g/m*3 17.8 C 0 km/h
572 12-07-2022 23:35:00 17.7 C 11.62 g/m*3 17.7 C 0 km/h
573 12-07-2022 23:40:00 17.7 C 11.77 g/m*3 17.7 C 0 km/h
574 12-07-2022 23:45:00 17.6 C 11.55 g/m*3 17.6 C 0 km/h
575 12-07-2022 23:50:00 17.6 C 11.7 g/m*3 17.6 C 0 km/h
Sensor: Nr:Datum:Temp:Abs-Feuchte:Windchill:Wind:
Aussen-T/F 576 12-07-2022 23:55:00 17.6 C 11.85 g/m*3 17.6 C 0 km/h
577 13-07-2022 00:00:00 17.6 C 11.85 g/m*3 17.6 C 0 km/h
578 13-07-2022 00:05:00 17.6 C 11.85 g/m*3 17.6 C 0 km/h
579 13-07-2022 00:10:00 17.6 C 12 g/m*3 17.6 C 0 km/h
580 13-07-2022 00:15:00 17.6 C 11.85 g/m*3 17.6 C 0 km/h
581 13-07-2022 00:20:00 17.6 C 11.85 g/m*3 17.6 C 0 km/h
582 13-07-2022 00:25:00 17.6 C 11.85 g/m*3 17.6 C 0 km/h
583 13-07-2022 00:30:00 17.6 C 11.85 g/m*3 17.6 C 0 km/h
584 13-07-2022 00:35:00 17.6 C 11.7 g/m*3 17.6 C 0 km/h
585 13-07-2022 00:40:00 17.7 C 11.92 g/m*3 17.7 C 0 km/h
586 13-07-2022 00:45:00 17.8 C 11.99 g/m*3 17.8 C 0 km/h
587 13-07-2022 00:50:00 17.9 C 12.06 g/m*3 17.9 C 0 km/h
588 13-07-2022 00:55:00 17.9 C 12.06 g/m*3 17.9 C 0 km/h
589 13-07-2022 01:00:00 17.9 C 12.06 g/m*3 17.9 C 1.6 km/h
590 13-07-2022 01:05:00 17.9 C 12.06 g/m*3 17.9 C 0 km/h
591 13-07-2022 01:10:00 17.9 C 12.06 g/m*3 17.9 C 0 km/h
592 13-07-2022 01:15:00 17.9 C 12.06 g/m*3 17.9 C 0 km/h
593 13-07-2022 01:20:00 17.9 C 11.91 g/m*3 17.9 C 0 km/h
594 13-07-2022 01:25:00 17.9 C 12.06 g/m*3 17.9 C 0 km/h
595 13-07-2022 01:30:00 17.9 C 12.06 g/m*3 17.9 C 0 km/h
596 13-07-2022 01:35:00 17.9 C 12.06 g/m*3 17.9 C 0 km/h
597 13-07-2022 01:40:00 17.9 C 12.06 g/m*3 17.9 C 0 km/h
598 13-07-2022 01:45:00 17.9 C 12.06 g/m*3 17.9 C 0 km/h
599 13-07-2022 01:50:00 17.9 C 12.06 g/m*3 17.9 C 0 km/h
600 13-07-2022 01:55:00 17.9 C 12.21 g/m*3 17.9 C 0 km/h
Sensor: Nr:Datum:Temp:Abs-Feuchte:Windchill:Wind:
Aussen-T/F 601 13-07-2022 02:00:00 17.8 C 11.99 g/m*3 17.8 C 0 km/h
602 13-07-2022 02:05:00 17.8 C 11.99 g/m*3 17.8 C 0 km/h
603 13-07-2022 02:10:00 17.9 C 12.21 g/m*3 17.9 C 0 km/h
604 13-07-2022 02:15:00 17.9 C 12.21 g/m*3 17.9 C 0 km/h
605 13-07-2022 02:20:00 17.9 C 12.21 g/m*3 17.9 C 0 km/h
606 13-07-2022 02:25:00 17.9 C 12.21 g/m*3 17.9 C 0 km/h
607 13-07-2022 02:30:00 17.8 C 12.14 g/m*3 17.8 C 0 km/h
608 13-07-2022 02:35:00 17.8 C 12.14 g/m*3 17.8 C 0 km/h
609 13-07-2022 02:40:00 17.8 C 12.14 g/m*3 17.8 C 0 km/h
610 13-07-2022 02:45:00 17.8 C 12.29 g/m*3 17.8 C 0 km/h
611 13-07-2022 02:50:00 17.7 C 12.22 g/m*3 17.7 C 0 km/h
612 13-07-2022 02:55:00 17.7 C 12.22 g/m*3 17.7 C 0 km/h
613 13-07-2022 03:00:00 17.7 C 12.22 g/m*3 17.7 C 0 km/h
614 13-07-2022 03:05:00 17.6 C 12.15 g/m*3 17.6 C 0 km/h
615 13-07-2022 03:10:00 17.6 C 12.15 g/m*3 17.6 C 0 km/h
616 13-07-2022 03:15:00 17.6 C 12.15 g/m*3 17.6 C 0 km/h
617 13-07-2022 03:20:00 17.6 C 12.3 g/m*3 17.6 C 0 km/h
618 13-07-2022 03:25:00 17.5 C 12.23 g/m*3 17.5 C 0 km/h
619 13-07-2022 03:30:00 17.4 C 12.15 g/m*3 17.4 C 0 km/h
620 13-07-2022 03:35:00 17.4 C 12.15 g/m*3 17.4 C 0 km/h
621 13-07-2022 03:40:00 17.4 C 12.15 g/m*3 17.4 C 0 km/h
622 13-07-2022 03:45:00 17.3 C 12.08 g/m*3 17.3 C 0 km/h
623 13-07-2022 03:50:00 17.3 C 12.08 g/m*3 17.3 C 0 km/h
624 13-07-2022 03:55:00 17.3 C 12.08 g/m*3 17.3 C 0 km/h
625 13-07-2022 04:00:00 17.2 C 12.01 g/m*3 17.2 C 0 km/h
Sensor: Nr:Datum:Temp:Abs-Feuchte:Windchill:Wind:
Aussen-T/F 626 13-07-2022 04:05:00 17.2 C 12.01 g/m*3 17.2 C 0 km/h
627 13-07-2022 04:10:00 17.1 C 11.79 g/m*3 17.1 C 0 km/h
628 13-07-2022 04:15:00 17.1 C 11.94 g/m*3 17.1 C 0 km/h
629 13-07-2022 04:20:00 17.1 C 11.94 g/m*3 17.1 C 0 km/h
630 13-07-2022 04:25:00 17.2 C 12.01 g/m*3 17.2 C 0 km/h
631 13-07-2022 04:30:00 17.2 C 12.15 g/m*3 17.2 C 0 km/h
632 13-07-2022 04:35:00 17.2 C 12.15 g/m*3 17.2 C 0 km/h
633 13-07-2022 04:40:00 17.2 C 12.3 g/m*3 17.2 C 0 km/h
634 13-07-2022 04:45:00 17.2 C 12.45 g/m*3 17.2 C 0 km/h
635 13-07-2022 04:50:00 17.2 C 12.59 g/m*3 17.2 C 0 km/h
636 13-07-2022 04:55:00 17.2 C 12.59 g/m*3 17.2 C 0 km/h
637 13-07-2022 05:00:00 17.1 C 12.52 g/m*3 17.1 C 0 km/h
638 13-07-2022 05:05:00 17.1 C 12.66 g/m*3 17.1 C 0 km/h
639 13-07-2022 05:10:00 17 C 12.59 g/m*3 17 C 0 km/h
640 13-07-2022 05:15:00 16.9 C 12.51 g/m*3 16.9 C 0 km/h
641 13-07-2022 05:20:00 16.8 C 12.44 g/m*3 16.8 C 0 km/h
642 13-07-2022 05:25:00 16.8 C 12.44 g/m*3 16.8 C 0 km/h
643 13-07-2022 05:30:00 16.7 C 12.51 g/m*3 16.7 C 0 km/h
644 13-07-2022 05:35:00 16.7 C 12.36 g/m*3 16.7 C 0 km/h
645 13-07-2022 05:40:00 16.7 C 12.36 g/m*3 16.7 C 0 km/h
646 13-07-2022 05:45:00 16.7 C 12.36 g/m*3 16.7 C 0 km/h
647 13-07-2022 05:50:00 16.7 C 12.51 g/m*3 16.7 C 0 km/h
648 13-07-2022 05:55:00 16.7 C 12.36 g/m*3 16.7 C 0 km/h
649 13-07-2022 06:00:00 16.8 C 12.44 g/m*3 16.8 C 0 km/h
650 13-07-2022 06:05:00 16.8 C 12.44 g/m*3 16.8 C 0 km/h
Sensor: Nr:Datum:Temp:Abs-Feuchte:Windchill:Wind:
Aussen-T/F 651 13-07-2022 06:10:00 16.9 C 12.51 g/m*3 16.9 C 0 km/h
652 13-07-2022 06:15:00 16.9 C 12.37 g/m*3 16.9 C 0 km/h
653 13-07-2022 06:20:00 17 C 12.59 g/m*3 17 C 0 km/h
654 13-07-2022 06:25:00 17.1 C 12.66 g/m*3 17.1 C 0 km/h
655 13-07-2022 06:30:00 17.1 C 12.66 g/m*3 17.1 C 0 km/h
656 13-07-2022 06:35:00 17.2 C 12.74 g/m*3 17.2 C 0 km/h
657 13-07-2022 06:40:00 17.2 C 12.74 g/m*3 17.2 C 0 km/h
658 13-07-2022 06:45:00 17.2 C 12.74 g/m*3 17.2 C 0 km/h
659 13-07-2022 06:50:00 17.2 C 12.59 g/m*3 17.2 C 0 km/h
660 13-07-2022 06:55:00 17.2 C 12.59 g/m*3 17.2 C 0 km/h
661 13-07-2022 07:00:00 17.3 C 12.82 g/m*3 17.3 C 0 km/h
662 13-07-2022 07:05:00 17.4 C 12.89 g/m*3 17.4 C 0 km/h
663 13-07-2022 07:10:00 17.6 C 13.05 g/m*3 17.6 C 0 km/h
664 13-07-2022 07:15:00 17.6 C 13.05 g/m*3 17.6 C 0 km/h
665 13-07-2022 07:20:00 17.7 C 13.13 g/m*3 17.7 C 0 km/h
666 13-07-2022 07:25:00 17.7 C 12.82 g/m*3 17.7 C 0 km/h
667 13-07-2022 07:30:00 17.8 C 12.75 g/m*3 17.8 C 0 km/h
668 13-07-2022 07:35:00 17.8 C 12.6 g/m*3 17.8 C 0 km/h
669 13-07-2022 07:40:00 17.9 C 12.67 g/m*3 17.9 C 0 km/h
670 13-07-2022 07:45:00 18.1 C 12.98 g/m*3 18.1 C 0 km/h
671 13-07-2022 07:50:00 18.3 C 12.98 g/m*3 18.3 C 0 km/h
672 13-07-2022 07:55:00 18.4 C 13.21 g/m*3 18.4 C 0 km/h
673 13-07-2022 08:00:00 18.7 C 13.45 g/m*3 18.7 C 0 km/h
674 13-07-2022 08:05:00 18.8 C 13.05 g/m*3 18.8 C 0 km/h
675 13-07-2022 08:10:00 18.9 C 12.96 g/m*3 18.9 C 0 km/h
Sensor: Nr:Datum:Temp:Abs-Feuchte:Windchill:Wind:
Aussen-T/F 676 13-07-2022 08:15:00 19.2 C 13.03 g/m*3 19.2 C 0 km/h
677 13-07-2022 08:20:00 19.3 C 12.94 g/m*3 19.3 C 0 km/h
678 13-07-2022 08:25:00 19.5 C 13.09 g/m*3 19.5 C 0 km/h
679 13-07-2022 08:30:00 19.7 C 13.08 g/m*3 19.7 C 0 km/h
680 13-07-2022 08:35:00 19.8 C 13.15 g/m*3 19.8 C 0 km/h
681 13-07-2022 08:40:00 20 C 13.31 g/m*3 20 C 0 km/h
682 13-07-2022 08:45:00 20.2 C 13.29 g/m*3 20.2 C 0 km/h
683 13-07-2022 08:50:00 20.3 C 13.37 g/m*3 20.3 C 0 km/h
684 13-07-2022 08:55:00 20.6 C 13.6 g/m*3 20.6 C 0 km/h
685 13-07-2022 09:00:00 20.7 C 13.86 g/m*3 20.7 C 0 km/h
686 13-07-2022 09:05:00 20.9 C 13.84 g/m*3 20.9 C 0 km/h
687 13-07-2022 09:10:00 21 C 13.74 g/m*3 21 C 0 km/h
688 13-07-2022 09:15:00 21.2 C 14.08 g/m*3 21.2 C 0 km/h
689 13-07-2022 09:20:00 21.3 C 13.79 g/m*3 21.3 C 0 km/h
690 13-07-2022 09:25:00 21.3 C 13.79 g/m*3 21.3 C 0 km/h
691 13-07-2022 09:30:00 21.5 C 14.14 g/m*3 21.5 C 0 km/h
692 13-07-2022 09:35:00 21.7 C 14.31 g/m*3 21.7 C 0 km/h
693 13-07-2022 09:40:00 21.8 C 14.58 g/m*3 21.8 C 0 km/h
694 13-07-2022 09:45:00 21.9 C 14.28 g/m*3 21.9 C 0 km/h
695 13-07-2022 09:50:00 22.1 C 13.86 g/m*3 22.1 C 0 km/h
696 13-07-2022 09:55:00 22.1 C 13.66 g/m*3 22.1 C 0 km/h
697 13-07-2022 10:00:00 22.3 C 13.62 g/m*3 22.3 C 0 km/h
698 13-07-2022 10:05:00 22.4 C 14.5 g/m*3 22.4 C 0 km/h
699 13-07-2022 10:10:00 22.7 C 14.55 g/m*3 22.7 C 0 km/h
700 13-07-2022 10:15:00 23.1 C 14.47 g/m*3 23.1 C 0 km/h
Sensor: Nr:Datum:Temp:Abs-Feuchte:Windchill:Wind:
Aussen-T/F 701 13-07-2022 10:20:00 23.4 C 14.51 g/m*3 23.4 C 0 km/h
702 13-07-2022 10:25:00 23.9 C 13.41 g/m*3 23.9 C 6.4 km/h
703 13-07-2022 10:30:00 24.6 C 13.73 g/m*3 24.6 C 6.4 km/h
704 13-07-2022 10:35:00 25.1 C 13.66 g/m*3 25.1 C 8.1 km/h
705 13-07-2022 10:40:00 25.3 C 13.34 g/m*3 25.3 C 3.2 km/h
706 13-07-2022 10:45:00 25.7 C 12.93 g/m*3 25.7 C 6.4 km/h
707 13-07-2022 10:50:00 25.9 C 13.56 g/m*3 25.9 C 4.8 km/h
708 13-07-2022 10:55:00 26.1 C 12.98 g/m*3 26.1 C 9.7 km/h
709 13-07-2022 11:00:00 26.2 C 12.8 g/m*3 26.2 C 11.3 km/h
710 13-07-2022 11:05:00 26.4 C 12.94 g/m*3 26.4 C 11.3 km/h
711 13-07-2022 11:10:00 26.9 C 12.54 g/m*3 26.9 C 11.3 km/h
712 13-07-2022 11:15:00 27.3 C 12.56 g/m*3 27.3 C 11.3 km/h
713 13-07-2022 11:20:00 27.7 C 12.3 g/m*3 27.7 C 9.7 km/h
714 13-07-2022 11:25:00 27.9 C 12.17 g/m*3 27.9 C 11.3 km/h
715 13-07-2022 11:30:00 28.2 C 12.37 g/m*3 28.2 C 8.1 km/h
716 13-07-2022 11:35:00 28.4 C 11.95 g/m*3 28.4 C 9.7 km/h
717 13-07-2022 11:40:00 28.4 C 11.95 g/m*3 28.4 C 14.5 km/h
718 13-07-2022 11:45:00 28.4 C 11.95 g/m*3 28.4 C 9.7 km/h
719 13-07-2022 11:50:00 28.4 C 11.67 g/m*3 28.4 C 11.3 km/h
720 13-07-2022 11:55:00 28.4 C 12.23 g/m*3 28.4 C 11.3 km/h
721 13-07-2022 12:00:00 28.4 C 11.95 g/m*3 28.4 C 11.3 km/h
722 13-07-2022 12:05:00 28.4 C 12.23 g/m*3 28.4 C 9.7 km/h
723 13-07-2022 12:10:00 28.8 C 12.22 g/m*3 28.8 C 16.1 km/h
724 13-07-2022 12:15:00 29.2 C 11.91 g/m*3 29.2 C 9.7 km/h
725 13-07-2022 12:20:00 29.4 C 12.04 g/m*3 29.4 C 11.3 km/h
Sensor: Nr:Datum:Temp:Abs-Feuchte:Windchill:Wind:
Aussen-T/F 726 13-07-2022 12:25:00 29.8 C 11.7 g/m*3 29.8 C 9.7 km/h
727 13-07-2022 12:30:00 30.2 C 11.65 g/m*3 30.2 C 9.7 km/h
728 13-07-2022 12:35:00 30.7 C 11.65 g/m*3 30.7 C 12.9 km/h
729 13-07-2022 12:40:00 30.8 C 11.71 g/m*3 30.8 C 16.1 km/h
730 13-07-2022 12:45:00 30.9 C 11.78 g/m*3 30.9 C 11.3 km/h
731 13-07-2022 12:50:00 31 C 11.84 g/m*3 31 C 11.3 km/h
732 13-07-2022 12:55:00 31.2 C 11.97 g/m*3 31.2 C 11.3 km/h
733 13-07-2022 13:00:00 31.4 C 11.77 g/m*3 31.4 C 11.3 km/h
734 13-07-2022 13:05:00 31.6 C 12.23 g/m*3 31.6 C 14.5 km/h
735 13-07-2022 13:10:00 31.8 C 12.02 g/m*3 31.8 C 12.9 km/h
736 13-07-2022 13:15:00 31.9 C 11.42 g/m*3 31.9 C 9.7 km/h
737 13-07-2022 13:20:00 31.9 C 11.42 g/m*3 31.9 C 8.1 km/h
738 13-07-2022 13:25:00 32.1 C 12.22 g/m*3 32.1 C 4.8 km/h
739 13-07-2022 13:30:00 32.2 C 11.6 g/m*3 32.2 C 12.9 km/h
740 13-07-2022 13:35:00 32.4 C 11.72 g/m*3 32.4 C 12.9 km/h
741 13-07-2022 13:40:00 32.6 C 11.5 g/m*3 32.6 C 14.5 km/h
742 13-07-2022 13:45:00 32.7 C 11.21 g/m*3 32.7 C 14.5 km/h
743 13-07-2022 13:50:00 32.8 C 11.27 g/m*3 32.8 C 8.1 km/h
744 13-07-2022 13:55:00 32.9 C 11.33 g/m*3 32.9 C 11.3 km/h
745 13-07-2022 14:00:00 33.2 C 10.79 g/m*3 33.2 C 11.3 km/h
746 13-07-2022 14:05:00 33.4 C 10.54 g/m*3 33.4 C 12.9 km/h
747 13-07-2022 14:10:00 33.8 C 11.14 g/m*3 33.8 C 8.1 km/h
748 13-07-2022 14:15:00 33.9 C 10.82 g/m*3 33.9 C 11.3 km/h
749 13-07-2022 14:20:00 34.1 C 10.94 g/m*3 34.1 C 16.1 km/h
750 13-07-2022 14:25:00 33.9 C 10.82 g/m*3 33.9 C 14.5 km/h
Sensor: Nr:Datum:Temp:Abs-Feuchte:Windchill:Wind:
Aussen-T/F 751 13-07-2022 14:30:00 33.8 C 11.14 g/m*3 33.8 C 9.7 km/h
752 13-07-2022 14:35:00 33.9 C 10.82 g/m*3 33.9 C 11.3 km/h
753 13-07-2022 14:40:00 34 C 11.26 g/m*3 34 C 9.7 km/h
754 13-07-2022 14:45:00 34.2 C 11.37 g/m*3 34.2 C 9.7 km/h
755 13-07-2022 14:50:00 34 C 10.88 g/m*3 34 C 17.7 km/h
756 13-07-2022 14:55:00 33.6 C 11.02 g/m*3 33.6 C 14.5 km/h
757 13-07-2022 15:00:00 33.2 C 10.79 g/m*3 33.2 C 12.9 km/h
758 13-07-2022 15:05:00 33.4 C 11.27 g/m*3 33.4 C 6.4 km/h
759 13-07-2022 15:10:00 33.9 C 10.82 g/m*3 33.9 C 8.1 km/h
760 13-07-2022 15:15:00 34.4 C 11.11 g/m*3 34.4 C 9.7 km/h
761 13-07-2022 15:20:00 34.9 C 11.4 g/m*3 34.9 C 11.3 km/h
762 13-07-2022 15:25:00 35.1 C 10.73 g/m*3 35.1 C 11.3 km/h
763 13-07-2022 15:30:00 34.7 C 11.29 g/m*3 34.7 C 9.7 km/h
764 13-07-2022 15:35:00 34.2 C 11 g/m*3 34.2 C 8.1 km/h
765 13-07-2022 15:40:00 34.4 C 11.11 g/m*3 34.4 C 14.5 km/h
766 13-07-2022 15:45:00 34.7 C 10.9 g/m*3 34.7 C 16.1 km/h
767 13-07-2022 15:50:00 34.7 C 10.51 g/m*3 34.7 C 11.3 km/h
768 13-07-2022 15:55:00 34.4 C 10.34 g/m*3 34.4 C 19.3 km/h
769 13-07-2022 16:00:00 34.6 C 10.45 g/m*3 34.6 C 17.7 km/h
770 13-07-2022 16:05:00 34.7 C 10.51 g/m*3 34.7 C 16.1 km/h
771 13-07-2022 16:10:00 34.3 C 10.67 g/m*3 34.3 C 12.9 km/h
772 13-07-2022 16:15:00 34.3 C 11.43 g/m*3 34.3 C 6.4 km/h
773 13-07-2022 16:20:00 34.8 C 10.95 g/m*3 34.8 C 12.9 km/h
774 13-07-2022 16:25:00 35.3 C 10.44 g/m*3 35.3 C 11.3 km/h
775 13-07-2022 16:30:00 35.7 C 10.66 g/m*3 35.7 C 16.1 km/h
Sensor: Nr:Datum:Temp:Abs-Feuchte:Windchill:Wind:
Aussen-T/F 776 13-07-2022 16:35:00 35.9 C 9.94 g/m*3 35.9 C 14.5 km/h
777 13-07-2022 16:40:00 36.1 C 10.04 g/m*3 36.1 C 9.7 km/h
778 13-07-2022 16:45:00 36.2 C 9.68 g/m*3 36.2 C 14.5 km/h
779 13-07-2022 16:50:00 36.2 C 9.68 g/m*3 36.2 C 16.1 km/h
780 13-07-2022 16:55:00 35.9 C 9.53 g/m*3 35.9 C 16.1 km/h
781 13-07-2022 17:00:00 35.6 C 9.38 g/m*3 35.6 C 12.9 km/h
782 13-07-2022 17:05:00 35.4 C 9.69 g/m*3 35.4 C 11.3 km/h
783 13-07-2022 17:10:00 35.7 C 10.25 g/m*3 35.7 C 16.1 km/h
784 13-07-2022 17:15:00 35.7 C 9.84 g/m*3 35.7 C 14.5 km/h
785 13-07-2022 17:20:00 35.5 C 9.74 g/m*3 35.5 C 9.7 km/h
786 13-07-2022 17:25:00 35.4 C 10.49 g/m*3 35.4 C 6.4 km/h
787 13-07-2022 17:30:00 35.7 C 10.25 g/m*3 35.7 C 17.7 km/h
788 13-07-2022 17:35:00 35.5 C 10.95 g/m*3 35.5 C 11.3 km/h
789 13-07-2022 17:40:00 34.8 C 11.35 g/m*3 34.8 C 11.3 km/h
790 13-07-2022 17:45:00 34.7 C 11.29 g/m*3 34.7 C 12.9 km/h
791 13-07-2022 17:50:00 34.6 C 11.62 g/m*3 34.6 C 9.7 km/h
792 13-07-2022 17:55:00 34.4 C 11.49 g/m*3 34.4 C 16.1 km/h
793 13-07-2022 18:00:00 34.2 C 11.75 g/m*3 34.2 C 11.3 km/h
794 13-07-2022 18:05:00 34.3 C 11.82 g/m*3 34.3 C 14.5 km/h
795 13-07-2022 18:10:00 34.1 C 11.32 g/m*3 34.1 C 14.5 km/h
796 13-07-2022 18:15:00 33.8 C 11.88 g/m*3 33.8 C 12.9 km/h
797 13-07-2022 18:20:00 33.8 C 11.88 g/m*3 33.8 C 17.7 km/h
798 13-07-2022 18:25:00 33.6 C 12.12 g/m*3 33.6 C 17.7 km/h
799 13-07-2022 18:30:00 33.1 C 12.17 g/m*3 33.1 C 16.1 km/h
800 13-07-2022 18:35:00 32.8 C 12.33 g/m*3 32.8 C 14.5 km/h
Sensor: Nr:Datum:Temp:Abs-Feuchte:Windchill:Wind:
Aussen-T/F 801 13-07-2022 18:40:00 32.5 C 12.48 g/m*3 32.5 C 14.5 km/h
802 13-07-2022 18:45:00 32.2 C 12.28 g/m*3 32.2 C 20.9 km/h
803 13-07-2022 18:50:00 31.7 C 12.62 g/m*3 31.7 C 20.9 km/h
804 13-07-2022 18:55:00 31.6 C 12.89 g/m*3 31.6 C 19.3 km/h
805 13-07-2022 19:00:00 31.5 C 12.82 g/m*3 31.5 C 19.3 km/h
806 13-07-2022 19:05:00 31.3 C 12.68 g/m*3 31.3 C 17.7 km/h
807 13-07-2022 19:10:00 31.2 C 12.62 g/m*3 31.2 C 14.5 km/h
808 13-07-2022 19:15:00 31.1 C 12.55 g/m*3 31.1 C 20.9 km/h
809 13-07-2022 19:20:00 30.9 C 12.41 g/m*3 30.9 C 16.1 km/h
810 13-07-2022 19:25:00 30.8 C 12.66 g/m*3 30.8 C 12.9 km/h
811 13-07-2022 19:30:00 30.7 C 12.91 g/m*3 30.7 C 14.5 km/h
812 13-07-2022 19:35:00 30.4 C 12.7 g/m*3 30.4 C 14.5 km/h
813 13-07-2022 19:40:00 30.2 C 12.57 g/m*3 30.2 C 12.9 km/h
814 13-07-2022 19:45:00 30 C 12.74 g/m*3 30 C 9.7 km/h
815 13-07-2022 19:50:00 29.8 C 12.6 g/m*3 29.8 C 14.5 km/h
816 13-07-2022 19:55:00 29.7 C 12.83 g/m*3 29.7 C 16.1 km/h
817 13-07-2022 20:00:00 29.4 C 12.92 g/m*3 29.4 C 12.9 km/h
818 13-07-2022 20:05:00 29.3 C 13.14 g/m*3 29.3 C 12.9 km/h
819 13-07-2022 20:10:00 29.2 C 13.07 g/m*3 29.2 C 16.1 km/h
820 13-07-2022 20:15:00 29 C 12.93 g/m*3 29 C 17.7 km/h
821 13-07-2022 20:20:00 28.9 C 13.14 g/m*3 28.9 C 14.5 km/h
822 13-07-2022 20:25:00 28.9 C 12.86 g/m*3 28.9 C 9.7 km/h
823 13-07-2022 20:30:00 28.8 C 13.07 g/m*3 28.8 C 6.4 km/h
824 13-07-2022 20:35:00 28.7 C 12.72 g/m*3 28.7 C 11.3 km/h
825 13-07-2022 20:40:00 28.6 C 12.65 g/m*3 28.6 C 11.3 km/h
Sensor: Nr:Datum:Temp:Abs-Feuchte:Windchill:Wind:
Aussen-T/F 826 13-07-2022 20:45:00 28.4 C 12.79 g/m*3 28.4 C 8.1 km/h
827 13-07-2022 20:50:00 28.2 C 12.92 g/m*3 28.2 C 9.7 km/h
828 13-07-2022 20:55:00 28 C 12.78 g/m*3 28 C 11.3 km/h
829 13-07-2022 21:00:00 27.8 C 12.64 g/m*3 27.8 C 11.3 km/h
830 13-07-2022 21:05:00 27.7 C 12.84 g/m*3 27.7 C 9.7 km/h
831 13-07-2022 21:10:00 27.6 C 12.77 g/m*3 27.6 C 3.2 km/h
832 13-07-2022 21:15:00 27.4 C 12.63 g/m*3 27.4 C 3.2 km/h
833 13-07-2022 21:20:00 27.3 C 12.82 g/m*3 27.3 C 3.2 km/h
834 13-07-2022 21:25:00 27.2 C 12.75 g/m*3 27.2 C 4.8 km/h
835 13-07-2022 21:30:00 27.1 C 12.68 g/m*3 27.1 C 9.7 km/h
836 13-07-2022 21:35:00 27 C 12.87 g/m*3 27 C 6.4 km/h
837 13-07-2022 21:40:00 26.8 C 12.73 g/m*3 26.8 C 3.2 km/h
838 13-07-2022 21:45:00 26.7 C 12.91 g/m*3 26.7 C 6.4 km/h
839 13-07-2022 21:50:00 26.6 C 13.34 g/m*3 26.6 C 4.8 km/h
840 13-07-2022 21:55:00 26.3 C 13.37 g/m*3 26.3 C 0 km/h
841 13-07-2022 22:00:00 26.1 C 13.22 g/m*3 26.1 C 0 km/h
842 13-07-2022 22:05:00 25.7 C 13.41 g/m*3 25.7 C 0 km/h
843 13-07-2022 22:10:00 25.4 C 13.42 g/m*3 25.4 C 0 km/h
844 13-07-2022 22:15:00 25.1 C 13.43 g/m*3 25.1 C 0 km/h
845 13-07-2022 22:20:00 24.7 C 13.35 g/m*3 24.7 C 0 km/h
846 13-07-2022 22:25:00 24.3 C 13.28 g/m*3 24.3 C 0 km/h
847 13-07-2022 22:30:00 23.9 C 13.41 g/m*3 23.9 C 0 km/h
848 13-07-2022 22:35:00 23.5 C 13.32 g/m*3 23.5 C 0 km/h
849 13-07-2022 22:40:00 23.2 C 13.1 g/m*3 23.2 C 0 km/h
850 13-07-2022 22:45:00 22.8 C 12.8 g/m*3 22.8 C 0 km/h
Sensor: Nr:Datum:Temp:Abs-Feuchte:Windchill:Wind:
Aussen-T/F 851 13-07-2022 22:50:00 22.6 C 13.06 g/m*3 22.6 C 0 km/h
852 13-07-2022 22:55:00 22.4 C 13.11 g/m*3 22.4 C 0 km/h
853 13-07-2022 23:00:00 22.3 C 13.03 g/m*3 22.3 C 0 km/h
854 13-07-2022 23:05:00 22.1 C 13.08 g/m*3 22.1 C 0 km/h
855 13-07-2022 23:10:00 21.9 C 12.93 g/m*3 21.9 C 0 km/h
856 13-07-2022 23:15:00 21.8 C 13.05 g/m*3 21.8 C 0 km/h
857 13-07-2022 23:20:00 21.7 C 13.16 g/m*3 21.7 C 0 km/h
858 13-07-2022 23:25:00 21.5 C 13.01 g/m*3 21.5 C 0 km/h
859 13-07-2022 23:30:00 21.3 C 12.86 g/m*3 21.3 C 0 km/h
860 13-07-2022 23:35:00 21.2 C 12.97 g/m*3 21.2 C 0 km/h
861 13-07-2022 23:40:00 21.1 C 13.08 g/m*3 21.1 C 0 km/h
862 13-07-2022 23:45:00 21 C 13.01 g/m*3 21 C 0 km/h
863 13-07-2022 23:50:00 20.9 C 13.11 g/m*3 20.9 C 0 km/h
864 13-07-2022 23:55:00 20.8 C 13.04 g/m*3 20.8 C 0 km/h
865 14-07-2022 00:00:00 20.7 C 12.96 g/m*3 20.7 C 0 km/h
866 14-07-2022 00:05:00 20.7 C 13.14 g/m*3 20.7 C 0 km/h
867 14-07-2022 00:10:00 20.6 C 12.89 g/m*3 20.6 C 0 km/h
868 14-07-2022 00:15:00 20.5 C 12.81 g/m*3 20.5 C 0 km/h
869 14-07-2022 00:20:00 20.4 C 12.91 g/m*3 20.4 C 0 km/h
870 14-07-2022 00:25:00 20.4 C 12.91 g/m*3 20.4 C 0 km/h
871 14-07-2022 00:30:00 20.4 C 13.09 g/m*3 20.4 C 0 km/h
872 14-07-2022 00:35:00 20.4 C 13.09 g/m*3 20.4 C 0 km/h
873 14-07-2022 00:40:00 20.3 C 13.01 g/m*3 20.3 C 0 km/h
874 14-07-2022 00:45:00 20.3 C 13.01 g/m*3 20.3 C 0 km/h
875 14-07-2022 00:50:00 20.2 C 12.94 g/m*3 20.2 C 0 km/h
Sensor: Nr:Datum:Temp:Abs-Feuchte:Windchill:Wind:
Aussen-T/F 876 14-07-2022 00:55:00 20.2 C 12.94 g/m*3 20.2 C 0 km/h
877 14-07-2022 01:00:00 20.1 C 12.86 g/m*3 20.1 C 0 km/h
878 14-07-2022 01:05:00 20 C 12.79 g/m*3 20 C 0 km/h
879 14-07-2022 01:10:00 19.9 C 12.54 g/m*3 19.9 C 0 km/h
880 14-07-2022 01:15:00 19.8 C 12.64 g/m*3 19.8 C 0 km/h
881 14-07-2022 01:20:00 19.7 C 12.74 g/m*3 19.7 C 0 km/h
882 14-07-2022 01:25:00 19.7 C 12.74 g/m*3 19.7 C 0 km/h
883 14-07-2022 01:30:00 19.6 C 12.66 g/m*3 19.6 C 0 km/h
884 14-07-2022 01:35:00 19.5 C 12.75 g/m*3 19.5 C 0 km/h
885 14-07-2022 01:40:00 19.4 C 12.51 g/m*3 19.4 C 0 km/h
886 14-07-2022 01:45:00 19.3 C 12.61 g/m*3 19.3 C 0 km/h
887 14-07-2022 01:50:00 19.3 C 12.61 g/m*3 19.3 C 0 km/h
888 14-07-2022 01:55:00 19.3 C 12.77 g/m*3 19.3 C 0 km/h
889 14-07-2022 02:00:00 19.3 C 12.94 g/m*3 19.3 C 0 km/h
890 14-07-2022 02:05:00 19.3 C 12.94 g/m*3 19.3 C 0 km/h
891 14-07-2022 02:10:00 19.3 C 12.94 g/m*3 19.3 C 0 km/h
892 14-07-2022 02:15:00 19.3 C 12.94 g/m*3 19.3 C 0 km/h
893 14-07-2022 02:20:00 19.2 C 12.86 g/m*3 19.2 C 0 km/h
894 14-07-2022 02:25:00 19.3 C 12.94 g/m*3 19.3 C 0 km/h
895 14-07-2022 02:30:00 19.2 C 13.03 g/m*3 19.2 C 0 km/h
896 14-07-2022 02:35:00 19.2 C 12.86 g/m*3 19.2 C 0 km/h
897 14-07-2022 02:40:00 19.2 C 13.03 g/m*3 19.2 C 0 km/h
898 14-07-2022 02:45:00 19.2 C 13.03 g/m*3 19.2 C 0 km/h
899 14-07-2022 02:50:00 19.3 C 13.1 g/m*3 19.3 C 0 km/h
900 14-07-2022 02:55:00 19.2 C 12.86 g/m*3 19.2 C 0 km/h
Sensor: Nr:Datum:Temp:Abs-Feuchte:Windchill:Wind:
Aussen-T/F 901 14-07-2022 03:00:00 19.3 C 12.94 g/m*3 19.3 C 0 km/h
902 14-07-2022 03:05:00 19.2 C 12.86 g/m*3 19.2 C 0 km/h
903 14-07-2022 03:10:00 19.3 C 12.94 g/m*3 19.3 C 0 km/h
904 14-07-2022 03:15:00 19.3 C 12.94 g/m*3 19.3 C 0 km/h
905 14-07-2022 03:20:00 19.3 C 12.94 g/m*3 19.3 C 0 km/h
906 14-07-2022 03:25:00 19.3 C 12.94 g/m*3 19.3 C 0 km/h
907 14-07-2022 03:30:00 19.3 C 12.94 g/m*3 19.3 C 0 km/h
908 14-07-2022 03:35:00 19.3 C 13.1 g/m*3 19.3 C 0 km/h
909 14-07-2022 03:40:00 19.3 C 12.94 g/m*3 19.3 C 0 km/h
910 14-07-2022 03:45:00 19.2 C 13.03 g/m*3 19.2 C 0 km/h
911 14-07-2022 03:50:00 19.2 C 13.03 g/m*3 19.2 C 0 km/h
912 14-07-2022 03:55:00 19.2 C 13.03 g/m*3 19.2 C 0 km/h
913 14-07-2022 04:00:00 19.2 C 13.03 g/m*3 19.2 C 0 km/h
914 14-07-2022 04:05:00 19.1 C 12.95 g/m*3 19.1 C 0 km/h
915 14-07-2022 04:10:00 19.2 C 13.19 g/m*3 19.2 C 0 km/h
916 14-07-2022 04:15:00 19.2 C 13.19 g/m*3 19.2 C 0 km/h
917 14-07-2022 04:20:00 19.2 C 13.19 g/m*3 19.2 C 0 km/h
918 14-07-2022 04:25:00 19.2 C 13.19 g/m*3 19.2 C 0 km/h
919 14-07-2022 04:30:00 19.2 C 13.03 g/m*3 19.2 C 0 km/h
920 14-07-2022 04:35:00 19.2 C 13.03 g/m*3 19.2 C 0 km/h
921 14-07-2022 04:40:00 19.2 C 13.19 g/m*3 19.2 C 0 km/h
922 14-07-2022 04:45:00 19.2 C 13.03 g/m*3 19.2 C 0 km/h
923 14-07-2022 04:50:00 19.2 C 13.03 g/m*3 19.2 C 0 km/h
924 14-07-2022 04:55:00 19.2 C 13.19 g/m*3 19.2 C 0 km/h
925 14-07-2022 05:00:00 19.2 C 13.19 g/m*3 19.2 C 0 km/h
Sensor: Nr:Datum:Temp:Abs-Feuchte:Windchill:Wind:
Aussen-T/F 926 14-07-2022 05:05:00 19.2 C 13.19 g/m*3 19.2 C 0 km/h
927 14-07-2022 05:10:00 19.2 C 13.19 g/m*3 19.2 C 3.2 km/h
928 14-07-2022 05:15:00 19.2 C 13.19 g/m*3 19.2 C 1.6 km/h
929 14-07-2022 05:20:00 19.2 C 13.19 g/m*3 19.2 C 1.6 km/h
930 14-07-2022 05:25:00 19.2 C 13.19 g/m*3 19.2 C 1.6 km/h
931 14-07-2022 05:30:00 19.2 C 13.19 g/m*3 19.2 C 1.6 km/h
932 14-07-2022 05:35:00 19.2 C 13.19 g/m*3 19.2 C 1.6 km/h
933 14-07-2022 05:40:00 19.3 C 13.1 g/m*3 19.3 C 4.8 km/h
934 14-07-2022 05:45:00 19.3 C 13.1 g/m*3 19.3 C 0 km/h
935 14-07-2022 05:50:00 19.4 C 13.35 g/m*3 19.4 C 4.8 km/h
936 14-07-2022 05:55:00 19.4 C 13.18 g/m*3 19.4 C 6.4 km/h
937 14-07-2022 06:00:00 19.6 C 13.34 g/m*3 19.6 C 6.4 km/h
938 14-07-2022 06:05:00 19.6 C 13.34 g/m*3 19.6 C 3.2 km/h
939 14-07-2022 06:10:00 19.6 C 13.34 g/m*3 19.6 C 6.4 km/h
940 14-07-2022 06:15:00 19.7 C 13.41 g/m*3 19.7 C 4.8 km/h
941 14-07-2022 06:20:00 19.7 C 13.41 g/m*3 19.7 C 4.8 km/h
942 14-07-2022 06:25:00 19.7 C 13.41 g/m*3 19.7 C 6.4 km/h
943 14-07-2022 06:30:00 19.7 C 13.41 g/m*3 19.7 C 8.1 km/h
944 14-07-2022 06:35:00 19.7 C 13.41 g/m*3 19.7 C 8.1 km/h
945 14-07-2022 06:40:00 19.7 C 13.41 g/m*3 19.7 C 9.7 km/h
946 14-07-2022 06:45:00 19.6 C 13.34 g/m*3 19.6 C 8.1 km/h
947 14-07-2022 06:50:00 19.6 C 13.34 g/m*3 19.6 C 8.1 km/h
948 14-07-2022 06:55:00 19.6 C 13.34 g/m*3 19.6 C 6.4 km/h
949 14-07-2022 07:00:00 19.6 C 13.34 g/m*3 19.6 C 11.3 km/h
950 14-07-2022 07:05:00 19.6 C 13.34 g/m*3 19.6 C 4.8 km/h
Sensor: Nr:Datum:Temp:Abs-Feuchte:Windchill:Wind:
Aussen-T/F 951 14-07-2022 07:10:00 19.6 C 13.34 g/m*3 19.6 C 4.8 km/h
952 14-07-2022 07:15:00 19.6 C 13.51 g/m*3 19.6 C 8.1 km/h
953 14-07-2022 07:20:00 19.6 C 13.51 g/m*3 19.6 C 1.6 km/h
954 14-07-2022 07:25:00 19.6 C 13.51 g/m*3 19.6 C 1.6 km/h
955 14-07-2022 07:30:00 19.6 C 13.51 g/m*3 19.6 C 6.4 km/h
956 14-07-2022 07:35:00 19.6 C 13.51 g/m*3 19.6 C 1.6 km/h
957 14-07-2022 07:40:00 19.6 C 13.51 g/m*3 19.6 C 6.4 km/h
958 14-07-2022 07:45:00 19.6 C 13.51 g/m*3 19.6 C 3.2 km/h
959 14-07-2022 07:50:00 19.6 C 13.51 g/m*3 19.6 C 6.4 km/h
960 14-07-2022 07:55:00 19.6 C 13.51 g/m*3 19.6 C 3.2 km/h
961 14-07-2022 08:00:00 19.7 C 13.58 g/m*3 19.7 C 8.1 km/h
962 14-07-2022 08:05:00 19.7 C 13.41 g/m*3 19.7 C 8.1 km/h
963 14-07-2022 08:10:00 19.7 C 13.41 g/m*3 19.7 C 4.8 km/h
964 14-07-2022 08:15:00 19.8 C 13.66 g/m*3 19.8 C 4.8 km/h
965 14-07-2022 08:20:00 19.8 C 13.49 g/m*3 19.8 C 1.6 km/h
966 14-07-2022 08:25:00 19.9 C 13.57 g/m*3 19.9 C 6.4 km/h
967 14-07-2022 08:30:00 19.9 C 13.57 g/m*3 19.9 C 8.1 km/h
968 14-07-2022 08:35:00 19.9 C 13.57 g/m*3 19.9 C 3.2 km/h
969 14-07-2022 08:40:00 20 C 13.65 g/m*3 20 C 6.4 km/h
970 14-07-2022 08:45:00 20 C 13.65 g/m*3 20 C 4.8 km/h
971 14-07-2022 08:50:00 19.9 C 13.57 g/m*3 19.9 C 3.2 km/h
972 14-07-2022 08:55:00 19.9 C 13.74 g/m*3 19.9 C 4.8 km/h
973 14-07-2022 09:00:00 19.9 C 13.74 g/m*3 19.9 C 3.2 km/h
974 14-07-2022 09:05:00 19.9 C 13.74 g/m*3 19.9 C 3.2 km/h
975 14-07-2022 09:10:00 20.1 C 13.91 g/m*3 20.1 C 3.2 km/h
Sensor: Nr:Datum:Temp:Abs-Feuchte:Windchill:Wind:
Aussen-T/F 976 14-07-2022 09:15:00 20.1 C 13.73 g/m*3 20.1 C 3.2 km/h
977 14-07-2022 09:20:00 20.2 C 13.81 g/m*3 20.2 C 4.8 km/h
978 14-07-2022 09:25:00 20.3 C 13.89 g/m*3 20.3 C 4.8 km/h
979 14-07-2022 09:30:00 20.3 C 13.89 g/m*3 20.3 C 8.1 km/h
980 14-07-2022 09:35:00 20.3 C 13.89 g/m*3 20.3 C 8.1 km/h
981 14-07-2022 09:40:00 20.4 C 13.8 g/m*3 20.4 C 8.1 km/h
982 14-07-2022 09:45:00 20.4 C 13.8 g/m*3 20.4 C 4.8 km/h
983 14-07-2022 09:50:00 20.4 C 13.8 g/m*3 20.4 C 4.8 km/h
984 14-07-2022 09:55:00 20.5 C 13.88 g/m*3 20.5 C 11.3 km/h
985 14-07-2022 10:00:00 20.7 C 14.04 g/m*3 20.7 C 8.1 km/h
986 14-07-2022 10:05:00 20.7 C 13.86 g/m*3 20.7 C 6.4 km/h
987 14-07-2022 10:10:00 20.8 C 13.94 g/m*3 20.8 C 9.7 km/h
988 14-07-2022 10:15:00 20.8 C 13.94 g/m*3 20.8 C 4.8 km/h
989 14-07-2022 10:20:00 20.8 C 13.94 g/m*3 20.8 C 9.7 km/h
990 14-07-2022 10:25:00 20.7 C 13.86 g/m*3 20.7 C 9.7 km/h
991 14-07-2022 10:30:00 20.8 C 13.76 g/m*3 20.8 C 6.4 km/h
992 14-07-2022 10:35:00 20.8 C 13.76 g/m*3 20.8 C 6.4 km/h
993 14-07-2022 10:40:00 20.9 C 13.84 g/m*3 20.9 C 4.8 km/h
994 14-07-2022 10:45:00 21 C 13.74 g/m*3 21 C 6.4 km/h
995 14-07-2022 10:50:00 21.1 C 13.63 g/m*3 21.1 C 12.9 km/h
996 14-07-2022 10:55:00 21.2 C 13.71 g/m*3 21.2 C 6.4 km/h
997 14-07-2022 11:00:00 21.2 C 13.34 g/m*3 21.2 C 8.1 km/h
998 14-07-2022 11:05:00 21.3 C 13.42 g/m*3 21.3 C 9.7 km/h
999 14-07-2022 11:10:00 21.3 C 13.42 g/m*3 21.3 C 8.1 km/h
1000 14-07-2022 11:15:00 21.4 C 13.31 g/m*3 21.4 C 8.1 km/h
Sensor: Nr:Datum:Temp:Abs-Feuchte:Windchill:Wind:
Aussen-T/F 1001 14-07-2022 11:20:00 21.7 C 13.35 g/m*3 21.7 C 9.7 km/h
1002 14-07-2022 11:25:00 21.8 C 13.05 g/m*3 21.8 C 1.6 km/h
1003 14-07-2022 11:30:00 22.1 C 13.47 g/m*3 22.1 C 6.4 km/h
1004 14-07-2022 11:35:00 22.4 C 13.5 g/m*3 22.4 C 9.7 km/h
1005 14-07-2022 11:40:00 22.8 C 12.6 g/m*3 22.8 C 14.5 km/h
1006 14-07-2022 11:45:00 22.9 C 12.88 g/m*3 22.9 C 11.3 km/h
1007 14-07-2022 11:50:00 23.2 C 13.31 g/m*3 23.2 C 8.1 km/h
1008 14-07-2022 11:55:00 23.5 C 12.9 g/m*3 23.5 C 8.1 km/h
1009 14-07-2022 12:00:00 23.9 C 12.98 g/m*3 23.9 C 8.1 km/h
1010 14-07-2022 12:05:00 24.2 C 12.76 g/m*3 24.2 C 8.1 km/h
1011 14-07-2022 12:10:00 24.3 C 12.83 g/m*3 24.3 C 6.4 km/h
1012 14-07-2022 12:15:00 24.5 C 12.53 g/m*3 24.5 C 16.1 km/h
1013 14-07-2022 12:20:00 24.7 C 12.68 g/m*3 24.7 C 8.1 km/h
1014 14-07-2022 12:25:00 24.9 C 11.67 g/m*3 24.9 C 9.7 km/h
1015 14-07-2022 12:30:00 24.9 C 11.67 g/m*3 24.9 C 9.7 km/h
1016 14-07-2022 12:35:00 24.8 C 11.61 g/m*3 24.8 C 6.4 km/h
1017 14-07-2022 12:40:00 24.9 C 11.9 g/m*3 24.9 C 9.7 km/h
1018 14-07-2022 12:45:00 25.3 C 11.94 g/m*3 25.3 C 9.7 km/h
1019 14-07-2022 12:50:00 25.5 C 11.84 g/m*3 25.5 C 11.3 km/h
1020 14-07-2022 12:55:00 25.4 C 11.54 g/m*3 25.4 C 11.3 km/h
1021 14-07-2022 13:00:00 25.4 C 11.54 g/m*3 25.4 C 9.7 km/h
1022 14-07-2022 13:05:00 25.7 C 11.73 g/m*3 25.7 C 9.7 km/h
1023 14-07-2022 13:10:00 26.1 C 11.51 g/m*3 26.1 C 14.5 km/h
1024 14-07-2022 13:15:00 26.2 C 11.08 g/m*3 26.2 C 14.5 km/h
1025 14-07-2022 13:20:00 26.2 C 11.08 g/m*3 26.2 C 11.3 km/h
Sensor: Nr:Datum:Temp:Abs-Feuchte:Windchill:Wind:
Aussen-T/F 1026 14-07-2022 13:25:00 26.3 C 11.39 g/m*3 26.3 C 11.3 km/h
1027 14-07-2022 13:30:00 26.2 C 11.08 g/m*3 26.2 C 14.5 km/h
1028 14-07-2022 13:35:00 25.9 C 10.65 g/m*3 25.9 C 16.1 km/h
1029 14-07-2022 13:40:00 25.8 C 10.59 g/m*3 25.8 C 16.1 km/h
1030 14-07-2022 13:45:00 25.4 C 10.12 g/m*3 25.4 C 14.5 km/h
1031 14-07-2022 13:50:00 25.2 C 10.24 g/m*3 25.2 C 11.3 km/h
1032 14-07-2022 13:55:00 24.9 C 10.53 g/m*3 24.9 C 12.9 km/h
1033 14-07-2022 14:00:00 24.7 C 10.86 g/m*3 24.7 C 14.5 km/h
1034 14-07-2022 14:05:00 24.3 C 11.06 g/m*3 24.3 C 17.7 km/h
1035 14-07-2022 14:10:00 23.8 C 11.19 g/m*3 23.8 C 19.3 km/h
1036 14-07-2022 14:15:00 23.5 C 11.63 g/m*3 23.5 C 12.9 km/h
1037 14-07-2022 14:20:00 23.4 C 11.78 g/m*3 23.4 C 9.7 km/h
1038 14-07-2022 14:25:00 23.3 C 11.5 g/m*3 23.3 C 12.9 km/h
1039 14-07-2022 14:30:00 23.2 C 11.64 g/m*3 23.2 C 14.5 km/h
1040 14-07-2022 14:35:00 23.2 C 11.85 g/m*3 23.2 C 9.7 km/h
1041 14-07-2022 14:40:00 23.7 C 12.19 g/m*3 23.7 C 9.7 km/h
1042 14-07-2022 14:45:00 24.4 C 12.02 g/m*3 24.4 C 9.7 km/h
1043 14-07-2022 14:50:00 25 C 11.74 g/m*3 25 C 22.5 km/h
1044 14-07-2022 14:55:00 25.6 C 11.9 g/m*3 25.6 C 22.5 km/h
1045 14-07-2022 15:00:00 25.8 C 11.8 g/m*3 25.8 C 9.7 km/h
1046 14-07-2022 15:05:00 26.1 C 11.75 g/m*3 26.1 C 16.1 km/h
1047 14-07-2022 15:10:00 26.5 C 11.51 g/m*3 26.5 C 14.5 km/h
1048 14-07-2022 15:15:00 26.8 C 11.2 g/m*3 26.8 C 14.5 km/h
1049 14-07-2022 15:20:00 26.7 C 11.14 g/m*3 26.7 C 16.1 km/h
1050 14-07-2022 15:25:00 26.3 C 10.64 g/m*3 26.3 C 12.9 km/h
Sensor: Nr:Datum:Temp:Abs-Feuchte:Windchill:Wind:
Aussen-T/F 1051 14-07-2022 15:30:00 25.9 C 10.65 g/m*3 25.9 C 14.5 km/h
1052 14-07-2022 15:35:00 25.6 C 10.71 g/m*3 25.6 C 16.1 km/h
1053 14-07-2022 15:40:00 25.6 C 11.19 g/m*3 25.6 C 4.8 km/h
1054 14-07-2022 15:45:00 26 C 10.47 g/m*3 26 C 19.3 km/h
1055 14-07-2022 15:50:00 26 C 10.47 g/m*3 26 C 16.1 km/h
1056 14-07-2022 15:55:00 26.1 C 10.53 g/m*3 26.1 C 16.1 km/h
1057 14-07-2022 16:00:00 26.4 C 10.46 g/m*3 26.4 C 9.7 km/h
1058 14-07-2022 16:05:00 26.9 C 10.75 g/m*3 26.9 C 19.3 km/h
1059 14-07-2022 16:10:00 27.3 C 10.47 g/m*3 27.3 C 11.3 km/h
1060 14-07-2022 16:15:00 27.5 C 10.58 g/m*3 27.5 C 16.1 km/h
1061 14-07-2022 16:20:00 27.5 C 10.32 g/m*3 27.5 C 16.1 km/h
1062 14-07-2022 16:25:00 27.5 C 10.05 g/m*3 27.5 C 17.7 km/h
1063 14-07-2022 16:30:00 27.3 C 10.2 g/m*3 27.3 C 16.1 km/h
1064 14-07-2022 16:35:00 27.4 C 10.52 g/m*3 27.4 C 12.9 km/h
1065 14-07-2022 16:40:00 27.7 C 10.43 g/m*3 27.7 C 20.9 km/h
1066 14-07-2022 16:45:00 27.4 C 10.26 g/m*3 27.4 C 19.3 km/h
1067 14-07-2022 16:50:00 27.4 C 10 g/m*3 27.4 C 11.3 km/h
1068 14-07-2022 16:55:00 27.2 C 9.89 g/m*3 27.2 C 11.3 km/h
1069 14-07-2022 17:00:00 26.7 C 10.12 g/m*3 26.7 C 11.3 km/h
1070 14-07-2022 17:05:00 26.5 C 10.01 g/m*3 26.5 C 16.1 km/h
1071 14-07-2022 17:10:00 26.9 C 10.24 g/m*3 26.9 C 8.1 km/h
1072 14-07-2022 17:15:00 27.4 C 10.26 g/m*3 27.4 C 27.4 km/h
1073 14-07-2022 17:20:00 27.7 C 10.16 g/m*3 27.7 C 17.7 km/h
1074 14-07-2022 17:25:00 27.8 C 10.22 g/m*3 27.8 C 19.3 km/h
1075 14-07-2022 17:30:00 27.7 C 10.16 g/m*3 27.7 C 19.3 km/h
Sensor: Nr:Datum:Temp:Abs-Feuchte:Windchill:Wind:
Aussen-T/F 1076 14-07-2022 17:35:00 27.6 C 10.38 g/m*3 27.6 C 16.1 km/h
1077 14-07-2022 17:40:00 27.6 C 10.11 g/m*3 27.6 C 12.9 km/h
1078 14-07-2022 17:45:00 27.6 C 10.38 g/m*3 27.6 C 14.5 km/h
1079 14-07-2022 17:50:00 27.7 C 10.16 g/m*3 27.7 C 14.5 km/h
1080 14-07-2022 17:55:00 27.3 C 10.2 g/m*3 27.3 C 25.7 km/h
1081 14-07-2022 18:00:00 27.2 C 10.41 g/m*3 27.2 C 14.5 km/h
1082 14-07-2022 18:05:00 27.3 C 10.47 g/m*3 27.3 C 12.9 km/h
1083 14-07-2022 18:10:00 27.3 C 9.94 g/m*3 27.3 C 25.7 km/h
1084 14-07-2022 18:15:00 26.8 C 9.93 g/m*3 26.8 C 24.1 km/h
1085 14-07-2022 18:20:00 26.6 C 10.07 g/m*3 26.6 C 17.7 km/h
1086 14-07-2022 18:25:00 26.4 C 9.96 g/m*3 26.4 C 17.7 km/h
1087 14-07-2022 18:30:00 26.2 C 10.59 g/m*3 26.2 C 14.5 km/h
1088 14-07-2022 18:35:00 26.2 C 11.08 g/m*3 26.2 C 14.5 km/h
1089 14-07-2022 18:40:00 25.8 C 10.35 g/m*3 25.8 C 11.3 km/h
1090 14-07-2022 18:45:00 25.6 C 10.48 g/m*3 25.6 C 11.3 km/h
1091 14-07-2022 18:50:00 25.4 C 10.59 g/m*3 25.4 C 14.5 km/h
1092 14-07-2022 18:55:00 25.4 C 10.36 g/m*3 25.4 C 20.9 km/h
1093 14-07-2022 19:00:00 25.3 C 10.07 g/m*3 25.3 C 19.3 km/h
1094 14-07-2022 19:05:00 25.2 C 10.01 g/m*3 25.2 C 11.3 km/h
1095 14-07-2022 19:10:00 25 C 10.13 g/m*3 25 C 20.9 km/h
1096 14-07-2022 19:15:00 24.9 C 9.84 g/m*3 24.9 C 17.7 km/h
1097 14-07-2022 19:20:00 24.8 C 10.02 g/m*3 24.8 C 19.3 km/h
1098 14-07-2022 19:25:00 24.8 C 10.02 g/m*3 24.8 C 14.5 km/h
1099 14-07-2022 19:30:00 24.7 C 9.96 g/m*3 24.7 C 20.9 km/h
1100 14-07-2022 19:35:00 24.4 C 10.01 g/m*3 24.4 C 16.1 km/h
Sensor: Nr:Datum:Temp:Abs-Feuchte:Windchill:Wind:
Aussen-T/F 1101 14-07-2022 19:40:00 24.2 C 9.9 g/m*3 24.2 C 17.7 km/h
1102 14-07-2022 19:45:00 23.9 C 9.74 g/m*3 23.9 C 19.3 km/h
1103 14-07-2022 19:50:00 23.8 C 9.9 g/m*3 23.8 C 12.9 km/h
1104 14-07-2022 19:55:00 23.9 C 9.95 g/m*3 23.9 C 12.9 km/h
1105 14-07-2022 20:00:00 23.9 C 9.95 g/m*3 23.9 C 12.9 km/h
1106 14-07-2022 20:05:00 23.9 C 9.95 g/m*3 23.9 C 16.1 km/h
1107 14-07-2022 20:10:00 23.8 C 9.9 g/m*3 23.8 C 16.1 km/h
1108 14-07-2022 20:15:00 23.7 C 9.84 g/m*3 23.7 C 12.9 km/h
1109 14-07-2022 20:20:00 23.6 C 10 g/m*3 23.6 C 11.3 km/h
1110 14-07-2022 20:25:00 23.5 C 9.73 g/m*3 23.5 C 12.9 km/h
1111 14-07-2022 20:30:00 23.3 C 10.04 g/m*3 23.3 C 12.9 km/h
1112 14-07-2022 20:35:00 23.2 C 9.98 g/m*3 23.2 C 12.9 km/h
1113 14-07-2022 20:40:00 23.1 C 9.92 g/m*3 23.1 C 12.9 km/h
1114 14-07-2022 20:45:00 22.9 C 10.01 g/m*3 22.9 C 12.9 km/h
1115 14-07-2022 20:50:00 22.8 C 9.96 g/m*3 22.8 C 8.1 km/h
1116 14-07-2022 20:55:00 22.7 C 9.9 g/m*3 22.7 C 12.9 km/h
1117 14-07-2022 21:00:00 22.5 C 9.99 g/m*3 22.5 C 8.1 km/h
1118 14-07-2022 21:05:00 22.4 C 10.13 g/m*3 22.4 C 1.6 km/h
1119 14-07-2022 21:10:00 22.2 C 10.41 g/m*3 22.2 C 1.6 km/h
1120 14-07-2022 21:15:00 22.1 C 10.74 g/m*3 22.1 C 0 km/h
1121 14-07-2022 21:20:00 21.9 C 10.81 g/m*3 21.9 C 0 km/h
1122 14-07-2022 21:25:00 21.7 C 10.87 g/m*3 21.7 C 0 km/h
1123 14-07-2022 21:30:00 21.3 C 10.62 g/m*3 21.3 C 0 km/h
1124 14-07-2022 21:35:00 21 C 10.62 g/m*3 21 C 0 km/h
1125 14-07-2022 21:40:00 20.6 C 10.74 g/m*3 20.6 C 3.2 km/h
Sensor: Nr:Datum:Temp:Abs-Feuchte:Windchill:Wind:
Aussen-T/F 1126 14-07-2022 21:45:00 20.3 C 10.55 g/m*3 20.3 C 0 km/h
1127 14-07-2022 21:50:00 19.9 C 10.48 g/m*3 19.9 C 1.6 km/h
1128 14-07-2022 21:55:00 19.5 C 10.24 g/m*3 19.5 C 3.2 km/h
1129 14-07-2022 22:00:00 19.2 C 10.22 g/m*3 19.2 C 0 km/h
1130 14-07-2022 22:05:00 19 C 10.27 g/m*3 19 C 1.6 km/h
1131 14-07-2022 22:10:00 18.8 C 10.31 g/m*3 18.8 C 0 km/h
1132 14-07-2022 22:15:00 18.7 C 10.57 g/m*3 18.7 C 0 km/h
1133 14-07-2022 22:20:00 18.4 C 10.22 g/m*3 18.4 C 4.8 km/h
1134 14-07-2022 22:25:00 18.3 C 10.16 g/m*3 18.3 C 3.2 km/h
1135 14-07-2022 22:30:00 18.1 C 10.2 g/m*3 18.1 C 1.6 km/h
1136 14-07-2022 22:35:00 18 C 10.29 g/m*3 18 C 0 km/h
1137 14-07-2022 22:40:00 17.8 C 10.17 g/m*3 17.8 C 0 km/h
1138 14-07-2022 22:45:00 17.7 C 10.11 g/m*3 17.7 C 0 km/h
1139 14-07-2022 22:50:00 17.5 C 10.14 g/m*3 17.5 C 0 km/h
1140 14-07-2022 22:55:00 17.4 C 10.23 g/m*3 17.4 C 0 km/h
1141 14-07-2022 23:00:00 17.3 C 9.87 g/m*3 17.3 C 0 km/h
1142 14-07-2022 23:05:00 17.4 C 10.08 g/m*3 17.4 C 0 km/h
1143 14-07-2022 23:10:00 17.4 C 9.93 g/m*3 17.4 C 4.8 km/h
1144 14-07-2022 23:15:00 17.5 C 10.14 g/m*3 17.5 C 1.6 km/h
1145 14-07-2022 23:20:00 17.5 C 10.29 g/m*3 17.5 C 3.2 km/h
1146 14-07-2022 23:25:00 17.5 C 10.29 g/m*3 17.5 C 0 km/h
1147 14-07-2022 23:30:00 17.4 C 10.23 g/m*3 17.4 C 0 km/h
1148 14-07-2022 23:35:00 17.3 C 10.31 g/m*3 17.3 C 0 km/h
1149 14-07-2022 23:40:00 17.2 C 10.25 g/m*3 17.2 C 0 km/h
1150 14-07-2022 23:45:00 17.1 C 10.19 g/m*3 17.1 C 3.2 km/h
Sensor: Nr:Datum:Temp:Abs-Feuchte:Windchill:Wind:
Aussen-T/F 1151 14-07-2022 23:50:00 16.9 C 10.07 g/m*3 16.9 C 3.2 km/h
1152 14-07-2022 23:55:00 16.8 C 10.01 g/m*3 16.8 C 0 km/h
1153 15-07-2022 00:00:00 16.7 C 10.09 g/m*3 16.7 C 3.2 km/h
1154 15-07-2022 00:05:00 16.5 C 10.11 g/m*3 16.5 C 1.6 km/h
1155 15-07-2022 00:10:00 16.3 C 9.99 g/m*3 16.3 C 0 km/h
1156 15-07-2022 00:15:00 16.2 C 9.93 g/m*3 16.2 C 0 km/h
1157 15-07-2022 00:20:00 16.1 C 10.01 g/m*3 16.1 C 3.2 km/h
1158 15-07-2022 00:25:00 15.9 C 10.02 g/m*3 15.9 C 0 km/h
1159 15-07-2022 00:30:00 15.8 C 9.83 g/m*3 15.8 C 0 km/h
1160 15-07-2022 00:35:00 15.8 C 9.96 g/m*3 15.8 C 1.6 km/h
1161 15-07-2022 00:40:00 15.8 C 9.83 g/m*3 15.8 C 0 km/h
1162 15-07-2022 00:45:00 15.7 C 9.9 g/m*3 15.7 C 3.2 km/h
1163 15-07-2022 00:50:00 15.7 C 9.9 g/m*3 15.7 C 4.8 km/h
1164 15-07-2022 00:55:00 15.7 C 10.03 g/m*3 15.7 C 1.6 km/h
1165 15-07-2022 01:00:00 15.7 C 9.9 g/m*3 15.7 C 3.2 km/h
1166 15-07-2022 01:05:00 15.7 C 10.03 g/m*3 15.7 C 1.6 km/h
1167 15-07-2022 01:10:00 15.8 C 10.1 g/m*3 15.8 C 1.6 km/h
1168 15-07-2022 01:15:00 15.8 C 9.96 g/m*3 15.8 C 1.6 km/h
1169 15-07-2022 01:20:00 15.8 C 9.96 g/m*3 15.8 C 1.6 km/h
1170 15-07-2022 01:25:00 15.9 C 10.02 g/m*3 15.9 C 0 km/h
1171 15-07-2022 01:30:00 15.9 C 10.02 g/m*3 15.9 C 1.6 km/h
1172 15-07-2022 01:35:00 15.9 C 10.02 g/m*3 15.9 C 1.6 km/h
1173 15-07-2022 01:40:00 15.9 C 10.02 g/m*3 15.9 C 0 km/h
1174 15-07-2022 01:45:00 15.8 C 9.96 g/m*3 15.8 C 0 km/h
1175 15-07-2022 01:50:00 15.7 C 9.9 g/m*3 15.7 C 0 km/h
Sensor: Nr:Datum:Temp:Abs-Feuchte:Windchill:Wind:
Aussen-T/F 1176 15-07-2022 01:55:00 15.7 C 10.03 g/m*3 15.7 C 0 km/h
1177 15-07-2022 02:00:00 15.6 C 10.11 g/m*3 15.6 C 0 km/h
1178 15-07-2022 02:05:00 15.6 C 10.11 g/m*3 15.6 C 0 km/h
1179 15-07-2022 02:10:00 15.5 C 9.91 g/m*3 15.5 C 3.2 km/h
1180 15-07-2022 02:15:00 15.6 C 10.11 g/m*3 15.6 C 0 km/h
1181 15-07-2022 02:20:00 15.6 C 9.97 g/m*3 15.6 C 0 km/h
1182 15-07-2022 02:25:00 15.5 C 9.91 g/m*3 15.5 C 4.8 km/h
1183 15-07-2022 02:30:00 15.4 C 9.85 g/m*3 15.4 C 4.8 km/h
1184 15-07-2022 02:35:00 15.3 C 9.92 g/m*3 15.3 C 1.6 km/h
1185 15-07-2022 02:40:00 15.2 C 9.86 g/m*3 15.2 C 0 km/h
1186 15-07-2022 02:45:00 15.2 C 9.86 g/m*3 15.2 C 0 km/h
1187 15-07-2022 02:50:00 15.1 C 9.93 g/m*3 15.1 C 0 km/h
1188 15-07-2022 02:55:00 15 C 9.87 g/m*3 15 C 3.2 km/h
1189 15-07-2022 03:00:00 14.9 C 9.94 g/m*3 14.9 C 4.8 km/h
1190 15-07-2022 03:05:00 14.9 C 9.94 g/m*3 14.9 C 1.6 km/h
1191 15-07-2022 03:10:00 14.9 C 9.94 g/m*3 14.9 C 3.2 km/h
1192 15-07-2022 03:15:00 14.9 C 9.94 g/m*3 14.9 C 0 km/h
1193 15-07-2022 03:20:00 14.9 C 9.94 g/m*3 14.9 C 0 km/h
1194 15-07-2022 03:25:00 14.8 C 10.01 g/m*3 14.8 C 0 km/h
1195 15-07-2022 03:30:00 14.8 C 10.01 g/m*3 14.8 C 0 km/h
1196 15-07-2022 03:35:00 14.7 C 9.95 g/m*3 14.7 C 0 km/h
1197 15-07-2022 03:40:00 14.6 C 10.01 g/m*3 14.6 C 0 km/h
1198 15-07-2022 03:45:00 14.4 C 9.89 g/m*3 14.4 C 0 km/h
1199 15-07-2022 03:50:00 14.2 C 9.89 g/m*3 14.2 C 0 km/h
1200 15-07-2022 03:55:00 14.1 C 9.83 g/m*3 14.1 C 0 km/h
Sensor: Nr:Datum:Temp:Abs-Feuchte:Windchill:Wind:
Aussen-T/F 1201 15-07-2022 04:00:00 13.9 C 9.83 g/m*3 13.9 C 3.2 km/h
1202 15-07-2022 04:05:00 13.8 C 9.77 g/m*3 13.8 C 1.6 km/h
1203 15-07-2022 04:10:00 13.7 C 9.71 g/m*3 13.7 C 1.6 km/h
1204 15-07-2022 04:15:00 13.6 C 9.77 g/m*3 13.6 C 3.2 km/h
1205 15-07-2022 04:20:00 13.6 C 9.77 g/m*3 13.6 C 3.2 km/h
1206 15-07-2022 04:25:00 13.5 C 9.71 g/m*3 13.5 C 1.6 km/h
1207 15-07-2022 04:30:00 13.4 C 9.76 g/m*3 13.4 C 0 km/h
1208 15-07-2022 04:35:00 13.3 C 9.7 g/m*3 13.3 C 0 km/h
1209 15-07-2022 04:40:00 13.3 C 9.7 g/m*3 13.3 C 0 km/h
1210 15-07-2022 04:45:00 13.2 C 9.64 g/m*3 13.2 C 0 km/h
1211 15-07-2022 04:50:00 13.2 C 9.64 g/m*3 13.2 C 0 km/h
1212 15-07-2022 04:55:00 13.2 C 9.64 g/m*3 13.2 C 0 km/h
1213 15-07-2022 05:00:00 13.1 C 9.7 g/m*3 13.1 C 0 km/h
1214 15-07-2022 05:05:00 13 C 9.64 g/m*3 13 C 0 km/h
1215 15-07-2022 05:10:00 12.9 C 9.58 g/m*3 12.9 C 0 km/h
1216 15-07-2022 05:15:00 12.9 C 9.58 g/m*3 12.9 C 0 km/h
1217 15-07-2022 05:20:00 12.9 C 9.58 g/m*3 12.9 C 0 km/h
1218 15-07-2022 05:25:00 12.9 C 9.69 g/m*3 12.9 C 0 km/h
1219 15-07-2022 05:30:00 12.9 C 9.69 g/m*3 12.9 C 0 km/h
1220 15-07-2022 05:35:00 13.1 C 9.93 g/m*3 13.1 C 0 km/h
1221 15-07-2022 05:40:00 13.2 C 9.87 g/m*3 13.2 C 0 km/h
1222 15-07-2022 05:45:00 13.3 C 9.94 g/m*3 13.3 C 0 km/h
1223 15-07-2022 05:50:00 13.3 C 9.94 g/m*3 13.3 C 0 km/h
1224 15-07-2022 05:55:00 13.3 C 9.94 g/m*3 13.3 C 0 km/h
1225 15-07-2022 06:00:00 13.3 C 9.94 g/m*3 13.3 C 0 km/h
Sensor: Nr:Datum:Temp:Abs-Feuchte:Windchill:Wind:
Aussen-T/F 1226 15-07-2022 06:05:00 13.3 C 9.94 g/m*3 13.3 C 0 km/h
1227 15-07-2022 06:10:00 13.3 C 9.94 g/m*3 13.3 C 0 km/h
1228 15-07-2022 06:15:00 13.3 C 9.94 g/m*3 13.3 C 0 km/h
1229 15-07-2022 06:20:00 13.3 C 9.94 g/m*3 13.3 C 0 km/h
1230 15-07-2022 06:25:00 13.3 C 9.94 g/m*3 13.3 C 0 km/h
1231 15-07-2022 06:30:00 13.4 C 10 g/m*3 13.4 C 0 km/h
1232 15-07-2022 06:35:00 13.4 C 10 g/m*3 13.4 C 0 km/h
1233 15-07-2022 06:40:00 13.5 C 10.06 g/m*3 13.5 C 0 km/h
1234 15-07-2022 06:45:00 13.6 C 10.12 g/m*3 13.6 C 0 km/h
1235 15-07-2022 06:50:00 13.7 C 10.18 g/m*3 13.7 C 0 km/h
1236 15-07-2022 06:55:00 13.7 C 10.18 g/m*3 13.7 C 0 km/h
1237 15-07-2022 07:00:00 13.7 C 10.18 g/m*3 13.7 C 1.6 km/h
1238 15-07-2022 07:05:00 13.8 C 10.25 g/m*3 13.8 C 0 km/h
1239 15-07-2022 07:10:00 13.8 C 10.25 g/m*3 13.8 C 0 km/h
1240 15-07-2022 07:15:00 13.8 C 10.25 g/m*3 13.8 C 1.6 km/h
1241 15-07-2022 07:20:00 13.9 C 10.31 g/m*3 13.9 C 0 km/h
1242 15-07-2022 07:25:00 13.9 C 10.31 g/m*3 13.9 C 0 km/h
1243 15-07-2022 07:30:00 14.1 C 10.44 g/m*3 14.1 C 0 km/h
1244 15-07-2022 07:35:00 14.1 C 10.44 g/m*3 14.1 C 0 km/h
1245 15-07-2022 07:40:00 14.2 C 10.62 g/m*3 14.2 C 0 km/h
1246 15-07-2022 07:45:00 14.3 C 10.69 g/m*3 14.3 C 4.8 km/h
1247 15-07-2022 07:50:00 14.4 C 10.63 g/m*3 14.4 C 11.3 km/h
1248 15-07-2022 07:55:00 14.7 C 10.7 g/m*3 14.7 C 3.2 km/h
1249 15-07-2022 08:00:00 14.9 C 10.71 g/m*3 14.9 C 3.2 km/h
1250 15-07-2022 08:05:00 15.1 C 10.84 g/m*3 15.1 C 4.8 km/h
Sensor: Nr:Datum:Temp:Abs-Feuchte:Windchill:Wind:
Aussen-T/F 1251 15-07-2022 08:10:00 15.3 C 10.84 g/m*3 15.3 C 4.8 km/h
1252 15-07-2022 08:15:00 15.5 C 10.84 g/m*3 15.5 C 3.2 km/h
1253 15-07-2022 08:20:00 15.6 C 10.77 g/m*3 15.6 C 4.8 km/h
1254 15-07-2022 08:25:00 15.8 C 10.9 g/m*3 15.8 C 8.1 km/h
1255 15-07-2022 08:30:00 15.9 C 10.97 g/m*3 15.9 C 6.4 km/h
1256 15-07-2022 08:35:00 16.1 C 10.97 g/m*3 16.1 C 6.4 km/h
1257 15-07-2022 08:40:00 16.2 C 11.03 g/m*3 16.2 C 6.4 km/h
1258 15-07-2022 08:45:00 16.3 C 10.96 g/m*3 16.3 C 4.8 km/h
1259 15-07-2022 08:50:00 16.4 C 10.89 g/m*3 16.4 C 4.8 km/h
1260 15-07-2022 08:55:00 16.5 C 10.95 g/m*3 16.5 C 1.6 km/h
1261 15-07-2022 09:00:00 16.6 C 10.88 g/m*3 16.6 C 3.2 km/h
1262 15-07-2022 09:05:00 16.7 C 10.94 g/m*3 16.7 C 4.8 km/h
1263 15-07-2022 09:10:00 16.8 C 11.01 g/m*3 16.8 C 8.1 km/h
1264 15-07-2022 09:15:00 16.8 C 10.87 g/m*3 16.8 C 6.4 km/h
1265 15-07-2022 09:20:00 16.9 C 10.93 g/m*3 16.9 C 6.4 km/h
1266 15-07-2022 09:25:00 16.9 C 10.79 g/m*3 16.9 C 8.1 km/h
1267 15-07-2022 09:30:00 16.9 C 10.79 g/m*3 16.9 C 9.7 km/h
1268 15-07-2022 09:35:00 16.9 C 10.64 g/m*3 16.9 C 9.7 km/h
1269 15-07-2022 09:40:00 16.9 C 10.64 g/m*3 16.9 C 8.1 km/h
1270 15-07-2022 09:45:00 16.9 C 10.64 g/m*3 16.9 C 6.4 km/h
1271 15-07-2022 09:50:00 16.9 C 10.36 g/m*3 16.9 C 8.1 km/h
1272 15-07-2022 09:55:00 17 C 9.98 g/m*3 17 C 6.4 km/h
1273 15-07-2022 10:00:00 17.1 C 10.19 g/m*3 17.1 C 9.7 km/h
1274 15-07-2022 10:05:00 17.2 C 10.54 g/m*3 17.2 C 6.4 km/h
1275 15-07-2022 10:10:00 17.2 C 10.54 g/m*3 17.2 C 9.7 km/h
Sensor: Nr:Datum:Temp:Abs-Feuchte:Windchill:Wind:
Aussen-T/F 1276 15-07-2022 10:15:00 17.2 C 10.69 g/m*3 17.2 C 4.8 km/h
1277 15-07-2022 10:20:00 17.4 C 10.52 g/m*3 17.4 C 6.4 km/h
1278 15-07-2022 10:25:00 17.6 C 10.5 g/m*3 17.6 C 8.1 km/h
1279 15-07-2022 10:30:00 17.7 C 10.26 g/m*3 17.7 C 3.2 km/h
1280 15-07-2022 10:35:00 17.9 C 10.23 g/m*3 17.9 C 8.1 km/h
1281 15-07-2022 10:40:00 18.3 C 10.16 g/m*3 18.3 C 8.1 km/h
1282 15-07-2022 10:45:00 18.6 C 10.35 g/m*3 18.6 C 8.1 km/h
1283 15-07-2022 10:50:00 18.7 C 10.41 g/m*3 18.7 C 11.3 km/h
1284 15-07-2022 10:55:00 18.7 C 10.25 g/m*3 18.7 C 11.3 km/h
1285 15-07-2022 11:00:00 18.7 C 10.41 g/m*3 18.7 C 8.1 km/h
1286 15-07-2022 11:05:00 18.9 C 10.21 g/m*3 18.9 C 8.1 km/h
1287 15-07-2022 11:10:00 19.1 C 10.49 g/m*3 19.1 C 1.6 km/h
1288 15-07-2022 11:15:00 19.1 C 10 g/m*3 19.1 C 11.3 km/h
1289 15-07-2022 11:20:00 19.1 C 10.16 g/m*3 19.1 C 6.4 km/h
1290 15-07-2022 11:25:00 19.2 C 10.06 g/m*3 19.2 C 9.7 km/h
1291 15-07-2022 11:30:00 19.2 C 10.06 g/m*3 19.2 C 9.7 km/h
1292 15-07-2022 11:35:00 19.3 C 10.12 g/m*3 19.3 C 9.7 km/h
1293 15-07-2022 11:40:00 19.4 C 10.01 g/m*3 19.4 C 6.4 km/h
1294 15-07-2022 11:45:00 19.7 C 10.19 g/m*3 19.7 C 8.1 km/h
1295 15-07-2022 11:50:00 19.8 C 10.08 g/m*3 19.8 C 6.4 km/h
1296 15-07-2022 11:55:00 19.9 C 9.79 g/m*3 19.9 C 12.9 km/h
1297 15-07-2022 12:00:00 20.1 C 9.73 g/m*3 20.1 C 8.1 km/h
1298 15-07-2022 12:05:00 20.3 C 9.67 g/m*3 20.3 C 6.4 km/h
1299 15-07-2022 12:10:00 20.7 C 9.54 g/m*3 20.7 C 6.4 km/h
1300 15-07-2022 12:15:00 20.6 C 9.66 g/m*3 20.6 C 16.1 km/h
Sensor: Nr:Datum:Temp:Abs-Feuchte:Windchill:Wind:
Aussen-T/F 1301 15-07-2022 12:20:00 20.4 C 9.73 g/m*3 20.4 C 11.3 km/h
1302 15-07-2022 12:25:00 20.1 C 9.39 g/m*3 20.1 C 12.9 km/h
1303 15-07-2022 12:30:00 19.8 C 9.22 g/m*3 19.8 C 14.5 km/h
1304 15-07-2022 12:35:00 20 C 9.33 g/m*3 20 C 14.5 km/h
1305 15-07-2022 12:40:00 20.3 C 9.15 g/m*3 20.3 C 9.7 km/h
1306 15-07-2022 12:45:00 20.9 C 9.29 g/m*3 20.9 C 8.1 km/h
1307 15-07-2022 12:50:00 21.3 C 9.13 g/m*3 21.3 C 17.7 km/h
1308 15-07-2022 12:55:00 21 C 9.16 g/m*3 21 C 17.7 km/h
1309 15-07-2022 13:00:00 20.8 C 9.23 g/m*3 20.8 C 16.1 km/h
1310 15-07-2022 13:05:00 20.9 C 8.92 g/m*3 20.9 C 14.5 km/h
1311 15-07-2022 13:10:00 20.9 C 8.56 g/m*3 20.9 C 16.1 km/h
1312 15-07-2022 13:15:00 21.1 C 8.66 g/m*3 21.1 C 9.7 km/h
1313 15-07-2022 13:20:00 21.6 C 8.91 g/m*3 21.6 C 9.7 km/h
1314 15-07-2022 13:25:00 21.9 C 8.88 g/m*3 21.9 C 20.9 km/h
1315 15-07-2022 13:30:00 21.7 C 8.77 g/m*3 21.7 C 20.9 km/h
1316 15-07-2022 13:35:00 21.8 C 9.02 g/m*3 21.8 C 11.3 km/h
1317 15-07-2022 13:40:00 22.1 C 8.78 g/m*3 22.1 C 9.7 km/h
1318 15-07-2022 13:45:00 22.2 C 8.64 g/m*3 22.2 C 12.9 km/h
1319 15-07-2022 13:50:00 22.1 C 8.39 g/m*3 22.1 C 16.1 km/h
1320 15-07-2022 13:55:00 22 C 8.73 g/m*3 22 C 11.3 km/h
1321 15-07-2022 14:00:00 22.3 C 8.69 g/m*3 22.3 C 14.5 km/h
1322 15-07-2022 14:05:00 22.5 C 8.79 g/m*3 22.5 C 12.9 km/h
1323 15-07-2022 14:10:00 22.5 C 8.79 g/m*3 22.5 C 12.9 km/h
1324 15-07-2022 14:15:00 22.6 C 8.64 g/m*3 22.6 C 4.8 km/h
1325 15-07-2022 14:20:00 22.7 C 8.69 g/m*3 22.7 C 12.9 km/h
Sensor: Nr:Datum:Temp:Abs-Feuchte:Windchill:Wind:
Aussen-T/F 1326 15-07-2022 14:25:00 22.9 C 8.79 g/m*3 22.9 C 12.9 km/h
1327 15-07-2022 14:30:00 23.1 C 8.68 g/m*3 23.1 C 12.9 km/h
1328 15-07-2022 14:35:00 22.9 C 8.38 g/m*3 22.9 C 14.5 km/h
1329 15-07-2022 14:40:00 22.8 C 8.33 g/m*3 22.8 C 11.3 km/h
1330 15-07-2022 14:45:00 22.8 C 8.33 g/m*3 22.8 C 12.9 km/h
1331 15-07-2022 14:50:00 22.8 C 8.33 g/m*3 22.8 C 11.3 km/h
1332 15-07-2022 14:55:00 22.9 C 8.58 g/m*3 22.9 C 11.3 km/h
1333 15-07-2022 15:00:00 23.2 C 8.52 g/m*3 23.2 C 9.7 km/h
1334 15-07-2022 15:05:00 23.4 C 8.62 g/m*3 23.4 C 9.7 km/h
1335 15-07-2022 15:10:00 23.6 C 8.29 g/m*3 23.6 C 14.5 km/h
1336 15-07-2022 15:15:00 23.8 C 8.39 g/m*3 23.8 C 11.3 km/h
1337 15-07-2022 15:20:00 23.9 C 8.65 g/m*3 23.9 C 19.3 km/h
1338 15-07-2022 15:25:00 23.7 C 8.56 g/m*3 23.7 C 19.3 km/h
1339 15-07-2022 15:30:00 23.5 C 8.25 g/m*3 23.5 C 11.3 km/h
1340 15-07-2022 15:35:00 23.3 C 8.36 g/m*3 23.3 C 12.9 km/h
1341 15-07-2022 15:40:00 23.4 C 8.2 g/m*3 23.4 C 12.9 km/h
1342 15-07-2022 15:45:00 23.2 C 8.11 g/m*3 23.2 C 9.7 km/h
1343 15-07-2022 15:50:00 22.9 C 8.38 g/m*3 22.9 C 4.8 km/h
1344 15-07-2022 15:55:00 23.1 C 8.48 g/m*3 23.1 C 11.3 km/h
1345 15-07-2022 16:00:00 23.4 C 8.41 g/m*3 23.4 C 11.3 km/h
1346 15-07-2022 16:05:00 23.9 C 8.22 g/m*3 23.9 C 9.7 km/h
1347 15-07-2022 16:10:00 24.3 C 8.63 g/m*3 24.3 C 12.9 km/h
1348 15-07-2022 16:15:00 24.6 C 8.55 g/m*3 24.6 C 8.1 km/h
1349 15-07-2022 16:20:00 25 C 8.52 g/m*3 25 C 11.3 km/h
1350 15-07-2022 16:25:00 25.1 C 8.33 g/m*3 25.1 C 9.7 km/h
Sensor: Nr:Datum:Temp:Abs-Feuchte:Windchill:Wind:
Aussen-T/F 1351 15-07-2022 16:30:00 25.1 C 8.33 g/m*3 25.1 C 11.3 km/h
1352 15-07-2022 16:35:00 25 C 8.29 g/m*3 25 C 11.3 km/h
1353 15-07-2022 16:40:00 24.7 C 8.15 g/m*3 24.7 C 19.3 km/h
1354 15-07-2022 16:45:00 24.3 C 8.41 g/m*3 24.3 C 16.1 km/h
1355 15-07-2022 16:50:00 24.3 C 8.19 g/m*3 24.3 C 11.3 km/h
1356 15-07-2022 16:55:00 24.6 C 8.1 g/m*3 24.6 C 9.7 km/h
1357 15-07-2022 17:00:00 24.5 C 8.06 g/m*3 24.5 C 14.5 km/h
1358 15-07-2022 17:05:00 24.4 C 8.01 g/m*3 24.4 C 6.4 km/h
1359 15-07-2022 17:10:00 24.6 C 8.1 g/m*3 24.6 C 14.5 km/h
1360 15-07-2022 17:15:00 24.8 C 8.42 g/m*3 24.8 C 14.5 km/h
1361 15-07-2022 17:20:00 24.7 C 8.37 g/m*3 24.7 C 12.9 km/h
1362 15-07-2022 17:25:00 24.7 C 8.37 g/m*3 24.7 C 6.4 km/h
1363 15-07-2022 17:30:00 25 C 8.06 g/m*3 25 C 11.3 km/h
1364 15-07-2022 17:35:00 25.1 C 8.1 g/m*3 25.1 C 16.1 km/h
1365 15-07-2022 17:40:00 24.8 C 7.97 g/m*3 24.8 C 11.3 km/h
1366 15-07-2022 17:45:00 24.6 C 8.1 g/m*3 24.6 C 8.1 km/h
1367 15-07-2022 17:50:00 24.7 C 8.37 g/m*3 24.7 C 9.7 km/h
1368 15-07-2022 17:55:00 24.9 C 8.24 g/m*3 24.9 C 17.7 km/h
1369 15-07-2022 18:00:00 24.6 C 8.33 g/m*3 24.6 C 17.7 km/h
1370 15-07-2022 18:05:00 24.2 C 8.36 g/m*3 24.2 C 12.9 km/h
1371 15-07-2022 18:10:00 24.1 C 8.31 g/m*3 24.1 C 14.5 km/h
1372 15-07-2022 18:15:00 24 C 8.27 g/m*3 24 C 12.9 km/h
1373 15-07-2022 18:20:00 24.1 C 8.31 g/m*3 24.1 C 9.7 km/h
1374 15-07-2022 18:25:00 24.2 C 8.36 g/m*3 24.2 C 14.5 km/h
1375 15-07-2022 18:30:00 23.9 C 8.22 g/m*3 23.9 C 16.1 km/h
Sensor: Nr:Datum:Temp:Abs-Feuchte:Windchill:Wind:
Aussen-T/F 1376 15-07-2022 18:35:00 23.7 C 8.34 g/m*3 23.7 C 12.9 km/h
1377 15-07-2022 18:40:00 23.6 C 8.08 g/m*3 23.6 C 12.9 km/h
1378 15-07-2022 18:45:00 23.5 C 8.25 g/m*3 23.5 C 11.3 km/h
1379 15-07-2022 18:50:00 23.6 C 8.29 g/m*3 23.6 C 9.7 km/h
1380 15-07-2022 18:55:00 23.8 C 8.17 g/m*3 23.8 C 14.5 km/h
1381 15-07-2022 19:00:00 23.8 C 8.17 g/m*3 23.8 C 8.1 km/h
1382 15-07-2022 19:05:00 23.6 C 8.29 g/m*3 23.6 C 11.3 km/h
1383 15-07-2022 19:10:00 23.4 C 8.2 g/m*3 23.4 C 12.9 km/h
1384 15-07-2022 19:15:00 23.3 C 8.36 g/m*3 23.3 C 11.3 km/h
1385 15-07-2022 19:20:00 23.2 C 8.32 g/m*3 23.2 C 12.9 km/h
1386 15-07-2022 19:25:00 23.1 C 8.27 g/m*3 23.1 C 16.1 km/h
1387 15-07-2022 19:30:00 22.9 C 8.17 g/m*3 22.9 C 16.1 km/h
1388 15-07-2022 19:35:00 22.7 C 8.28 g/m*3 22.7 C 11.3 km/h
1389 15-07-2022 19:40:00 22.7 C 8.28 g/m*3 22.7 C 16.1 km/h
1390 15-07-2022 19:45:00 22.6 C 8.44 g/m*3 22.6 C 14.5 km/h
1391 15-07-2022 19:50:00 22.5 C 8.39 g/m*3 22.5 C 11.3 km/h
1392 15-07-2022 19:55:00 22.6 C 8.44 g/m*3 22.6 C 11.3 km/h
1393 15-07-2022 20:00:00 22.5 C 8.79 g/m*3 22.5 C 11.3 km/h
1394 15-07-2022 20:05:00 22.1 C 8.78 g/m*3 22.1 C 12.9 km/h
1395 15-07-2022 20:10:00 21.7 C 8.58 g/m*3 21.7 C 11.3 km/h
1396 15-07-2022 20:15:00 21.4 C 8.62 g/m*3 21.4 C 9.7 km/h
1397 15-07-2022 20:20:00 21.4 C 8.62 g/m*3 21.4 C 8.1 km/h
1398 15-07-2022 20:25:00 21.4 C 8.62 g/m*3 21.4 C 9.7 km/h
1399 15-07-2022 20:30:00 21.3 C 8.57 g/m*3 21.3 C 9.7 km/h
1400 15-07-2022 20:35:00 21.2 C 8.52 g/m*3 21.2 C 8.1 km/h
Sensor: Nr:Datum:Temp:Abs-Feuchte:Windchill:Wind:
Aussen-T/F 1401 15-07-2022 20:40:00 21.2 C 8.52 g/m*3 21.2 C 8.1 km/h
1402 15-07-2022 20:45:00 21.1 C 8.66 g/m*3 21.1 C 6.4 km/h
1403 15-07-2022 20:50:00 21 C 8.61 g/m*3 21 C 8.1 km/h
1404 15-07-2022 20:55:00 20.9 C 8.56 g/m*3 20.9 C 8.1 km/h
1405 15-07-2022 21:00:00 20.8 C 8.51 g/m*3 20.8 C 3.2 km/h
1406 15-07-2022 21:05:00 20.6 C 8.59 g/m*3 20.6 C 3.2 km/h
1407 15-07-2022 21:10:00 20.5 C 8.9 g/m*3 20.5 C 1.6 km/h
1408 15-07-2022 21:15:00 20.4 C 9.2 g/m*3 20.4 C 0 km/h
1409 15-07-2022 21:20:00 20.2 C 9.44 g/m*3 20.2 C 0 km/h
1410 15-07-2022 21:25:00 20 C 9.33 g/m*3 20 C 0 km/h
1411 15-07-2022 21:30:00 19.7 C 9.34 g/m*3 19.7 C 1.6 km/h
1412 15-07-2022 21:35:00 19.3 C 9.29 g/m*3 19.3 C 0 km/h
1413 15-07-2022 21:40:00 19.1 C 9.18 g/m*3 19.1 C 1.6 km/h
1414 15-07-2022 21:45:00 18.7 C 9.13 g/m*3 18.7 C 0 km/h
1415 15-07-2022 21:50:00 18.3 C 9.22 g/m*3 18.3 C 1.6 km/h
1416 15-07-2022 21:55:00 17.9 C 9.16 g/m*3 17.9 C 3.2 km/h
1417 15-07-2022 22:00:00 17.6 C 9 g/m*3 17.6 C 3.2 km/h
1418 15-07-2022 22:05:00 17.2 C 9.08 g/m*3 17.2 C 3.2 km/h
1419 15-07-2022 22:10:00 16.9 C 9.06 g/m*3 16.9 C 0 km/h
1420 15-07-2022 22:15:00 16.7 C 8.95 g/m*3 16.7 C 1.6 km/h
1421 15-07-2022 22:20:00 16.4 C 8.93 g/m*3 16.4 C 4.8 km/h
1422 15-07-2022 22:25:00 16.2 C 8.96 g/m*3 16.2 C 3.2 km/h
1423 15-07-2022 22:30:00 16 C 8.86 g/m*3 16 C 1.6 km/h
1424 15-07-2022 22:35:00 15.8 C 8.88 g/m*3 15.8 C 3.2 km/h
1425 15-07-2022 22:40:00 15.7 C 8.96 g/m*3 15.7 C 1.6 km/h
Sensor: Nr:Datum:Temp:Abs-Feuchte:Windchill:Wind:
Aussen-T/F 1426 15-07-2022 22:45:00 15.6 C 8.91 g/m*3 15.6 C 1.6 km/h
1427 15-07-2022 22:50:00 15.4 C 8.93 g/m*3 15.4 C 1.6 km/h
1428 15-07-2022 22:55:00 15.3 C 8.88 g/m*3 15.3 C 1.6 km/h
1429 15-07-2022 23:00:00 15.2 C 8.96 g/m*3 15.2 C 1.6 km/h
1430 15-07-2022 23:05:00 15.1 C 9.03 g/m*3 15.1 C 0 km/h
1431 15-07-2022 23:10:00 14.9 C 8.92 g/m*3 14.9 C 1.6 km/h
1432 15-07-2022 23:15:00 14.8 C 8.99 g/m*3 14.8 C 0 km/h
1433 15-07-2022 23:20:00 14.7 C 8.94 g/m*3 14.7 C 0 km/h
1434 15-07-2022 23:25:00 14.6 C 9.01 g/m*3 14.6 C 0 km/h
1435 15-07-2022 23:30:00 14.4 C 8.78 g/m*3 14.4 C 0 km/h
1436 15-07-2022 23:35:00 14.3 C 8.85 g/m*3 14.3 C 0 km/h
1437 15-07-2022 23:40:00 14.2 C 8.91 g/m*3 14.2 C 0 km/h
1438 15-07-2022 23:45:00 14.1 C 8.86 g/m*3 14.1 C 0 km/h
1439 15-07-2022 23:50:00 13.9 C 8.87 g/m*3 13.9 C 0 km/h
1440 15-07-2022 23:55:00 13.8 C 8.82 g/m*3 13.8 C 0 km/h
1441 16-07-2022 00:00:00 13.7 C 8.76 g/m*3 13.7 C 0 km/h
1442 16-07-2022 00:05:00 13.6 C 8.83 g/m*3 13.6 C 0 km/h
1443 16-07-2022 00:10:00 13.4 C 8.72 g/m*3 13.4 C 0 km/h
1444 16-07-2022 00:15:00 13.3 C 8.78 g/m*3 13.3 C 0 km/h
1445 16-07-2022 00:20:00 13.3 C 8.78 g/m*3 13.3 C 0 km/h
1446 16-07-2022 00:25:00 13.2 C 8.73 g/m*3 13.2 C 1.6 km/h
1447 16-07-2022 00:30:00 13.1 C 8.79 g/m*3 13.1 C 1.6 km/h
1448 16-07-2022 00:35:00 13.1 C 8.79 g/m*3 13.1 C 0 km/h
1449 16-07-2022 00:40:00 13.1 C 8.79 g/m*3 13.1 C 0 km/h
1450 16-07-2022 00:45:00 13 C 8.73 g/m*3 13 C 0 km/h
Sensor: Nr:Datum:Temp:Abs-Feuchte:Windchill:Wind:
Aussen-T/F 1451 16-07-2022 00:50:00 12.9 C 8.68 g/m*3 12.9 C 0 km/h
1452 16-07-2022 00:55:00 12.9 C 8.79 g/m*3 12.9 C 0 km/h
1453 16-07-2022 01:00:00 12.8 C 8.74 g/m*3 12.8 C 0 km/h
1454 16-07-2022 01:05:00 12.7 C 8.68 g/m*3 12.7 C 0 km/h
1455 16-07-2022 01:10:00 12.7 C 8.68 g/m*3 12.7 C 0 km/h
1456 16-07-2022 01:15:00 12.7 C 8.79 g/m*3 12.7 C 0 km/h
1457 16-07-2022 01:20:00 12.7 C 8.79 g/m*3 12.7 C 1.6 km/h
1458 16-07-2022 01:25:00 12.6 C 8.74 g/m*3 12.6 C 1.6 km/h
1459 16-07-2022 01:30:00 12.6 C 8.74 g/m*3 12.6 C 0 km/h
1460 16-07-2022 01:35:00 12.6 C 8.74 g/m*3 12.6 C 1.6 km/h
1461 16-07-2022 01:40:00 12.5 C 8.69 g/m*3 12.5 C 4.8 km/h
1462 16-07-2022 01:45:00 12.6 C 8.74 g/m*3 12.6 C 4.8 km/h
1463 16-07-2022 01:50:00 12.6 C 8.74 g/m*3 12.6 C 1.6 km/h
1464 16-07-2022 01:55:00 12.5 C 8.69 g/m*3 12.5 C 4.8 km/h
1465 16-07-2022 02:00:00 12.5 C 8.69 g/m*3 12.5 C 3.2 km/h
1466 16-07-2022 02:05:00 12.4 C 8.63 g/m*3 12.4 C 1.6 km/h
1467 16-07-2022 02:10:00 12.4 C 8.63 g/m*3 12.4 C 0 km/h
1468 16-07-2022 02:15:00 12.3 C 8.58 g/m*3 12.3 C 0 km/h
1469 16-07-2022 02:20:00 12.2 C 8.52 g/m*3 12.2 C 0 km/h
1470 16-07-2022 02:25:00 12 C 8.53 g/m*3 12 C 3.2 km/h
1471 16-07-2022 02:30:00 11.9 C 8.47 g/m*3 11.9 C 1.6 km/h
1472 16-07-2022 02:35:00 11.8 C 8.53 g/m*3 11.8 C 4.8 km/h
1473 16-07-2022 02:40:00 11.8 C 8.53 g/m*3 11.8 C 3.2 km/h
1474 16-07-2022 02:45:00 11.7 C 8.58 g/m*3 11.7 C 1.6 km/h
1475 16-07-2022 02:50:00 11.7 C 8.58 g/m*3 11.7 C 0 km/h
Sensor: Nr:Datum:Temp:Abs-Feuchte:Windchill:Wind:
Aussen-T/F 1476 16-07-2022 02:55:00 11.6 C 8.52 g/m*3 11.6 C 1.6 km/h
1477 16-07-2022 03:00:00 11.5 C 8.47 g/m*3 11.5 C 3.2 km/h
1478 16-07-2022 03:05:00 11.4 C 8.42 g/m*3 11.4 C 0 km/h
1479 16-07-2022 03:10:00 11.3 C 8.36 g/m*3 11.3 C 1.6 km/h
1480 16-07-2022 03:15:00 11.3 C 8.36 g/m*3 11.3 C 0 km/h
1481 16-07-2022 03:20:00 11.2 C 8.41 g/m*3 11.2 C 0 km/h
1482 16-07-2022 03:25:00 11.1 C 8.36 g/m*3 11.1 C 0 km/h
1483 16-07-2022 03:30:00 11 C 8.31 g/m*3 11 C 1.6 km/h
1484 16-07-2022 03:35:00 10.9 C 8.36 g/m*3 10.9 C 1.6 km/h
1485 16-07-2022 03:40:00 10.9 C 8.36 g/m*3 10.9 C 0 km/h
1486 16-07-2022 03:45:00 10.9 C 8.36 g/m*3 10.9 C 0 km/h
1487 16-07-2022 03:50:00 10.8 C 8.3 g/m*3 10.8 C 0 km/h
1488 16-07-2022 03:55:00 10.7 C 8.25 g/m*3 10.7 C 0 km/h
1489 16-07-2022 04:00:00 10.7 C 8.35 g/m*3 10.7 C 1.6 km/h
1490 16-07-2022 04:05:00 10.6 C 8.3 g/m*3 10.6 C 1.6 km/h
1491 16-07-2022 04:10:00 10.6 C 8.3 g/m*3 10.6 C 1.6 km/h
1492 16-07-2022 04:15:00 10.6 C 8.3 g/m*3 10.6 C 0 km/h
1493 16-07-2022 04:20:00 10.6 C 8.3 g/m*3 10.6 C 0 km/h
1494 16-07-2022 04:25:00 10.5 C 8.24 g/m*3 10.5 C 0 km/h
1495 16-07-2022 04:30:00 10.4 C 8.29 g/m*3 10.4 C 0 km/h
1496 16-07-2022 04:35:00 10.3 C 8.24 g/m*3 10.3 C 0 km/h
1497 16-07-2022 04:40:00 10.3 C 8.24 g/m*3 10.3 C 0 km/h
1498 16-07-2022 04:45:00 10.2 C 8.18 g/m*3 10.2 C 0 km/h
1499 16-07-2022 04:50:00 10.1 C 8.13 g/m*3 10.1 C 0 km/h
1500 16-07-2022 04:55:00 10.1 C 8.13 g/m*3 10.1 C 0 km/h
Sensor: Nr:Datum:Temp:Abs-Feuchte:Windchill:Wind:
Aussen-T/F 1501 16-07-2022 05:00:00 10 C 8.17 g/m*3 10 C 0 km/h
1502 16-07-2022 05:05:00 9.9 C 8.12 g/m*3 9.9 C 0 km/h
1503 16-07-2022 05:10:00 9.8 C 8.07 g/m*3 9.8 C 0 km/h
1504 16-07-2022 05:15:00 9.8 C 8.07 g/m*3 9.8 C 0 km/h
1505 16-07-2022 05:20:00 9.8 C 8.16 g/m*3 9.8 C 0 km/h
1506 16-07-2022 05:25:00 9.8 C 8.16 g/m*3 9.8 C 0 km/h
1507 16-07-2022 05:30:00 9.8 C 8.16 g/m*3 9.8 C 0 km/h
1508 16-07-2022 05:35:00 9.7 C 8.11 g/m*3 9.7 C 1.6 km/h
1509 16-07-2022 05:40:00 9.7 C 8.11 g/m*3 9.7 C 0 km/h
1510 16-07-2022 05:45:00 9.7 C 8.11 g/m*3 9.7 C 0 km/h
1511 16-07-2022 05:50:00 9.6 C 8.06 g/m*3 9.6 C 0 km/h
1512 16-07-2022 05:55:00 9.6 C 8.06 g/m*3 9.6 C 0 km/h
1513 16-07-2022 06:00:00 9.6 C 8.06 g/m*3 9.6 C 0 km/h
1514 16-07-2022 06:05:00 9.5 C 8.1 g/m*3 9.5 C 0 km/h
1515 16-07-2022 06:10:00 9.5 C 8.1 g/m*3 9.5 C 0 km/h
1516 16-07-2022 06:15:00 9.4 C 8.05 g/m*3 9.4 C 0 km/h
1517 16-07-2022 06:20:00 9.4 C 8.05 g/m*3 9.4 C 0 km/h
1518 16-07-2022 06:25:00 9.4 C 8.05 g/m*3 9.4 C 0 km/h
1519 16-07-2022 06:30:00 9.4 C 8.05 g/m*3 9.4 C 0 km/h
1520 16-07-2022 06:35:00 9.6 C 8.24 g/m*3 9.6 C 0 km/h
1521 16-07-2022 06:40:00 9.6 C 8.24 g/m*3 9.6 C 0 km/h
1522 16-07-2022 06:45:00 9.6 C 8.24 g/m*3 9.6 C 0 km/h
1523 16-07-2022 06:50:00 9.7 C 8.3 g/m*3 9.7 C 0 km/h
1524 16-07-2022 06:55:00 9.7 C 8.3 g/m*3 9.7 C 0 km/h
1525 16-07-2022 07:00:00 9.7 C 8.3 g/m*3 9.7 C 1.6 km/h
Sensor: Nr:Datum:Temp:Abs-Feuchte:Windchill:Wind:
Aussen-T/F 1526 16-07-2022 07:05:00 9.8 C 8.35 g/m*3 9.8 C 1.6 km/h
1527 16-07-2022 07:10:00 9.8 C 8.44 g/m*3 9.8 C 1.6 km/h
1528 16-07-2022 07:15:00 9.9 C 8.5 g/m*3 9.9 C 0 km/h
1529 16-07-2022 07:20:00 10 C 8.55 g/m*3 10 C 0 km/h
1530 16-07-2022 07:25:00 10.1 C 8.61 g/m*3 10.1 C 1.6 km/h
1531 16-07-2022 07:30:00 10.3 C 8.71 g/m*3 10.3 C 3.2 km/h
1532 16-07-2022 07:35:00 10.5 C 8.83 g/m*3 9.57 C 8.1 km/h
1533 16-07-2022 07:40:00 10.8 C 8.9 g/m*3 9.93 C 8.1 km/h
1534 16-07-2022 07:45:00 11 C 9.01 g/m*3 10.52 C 6.4 km/h
1535 16-07-2022 07:50:00 11.3 C 9.08 g/m*3 11.3 C 3.2 km/h
1536 16-07-2022 07:55:00 11.6 C 9.15 g/m*3 11.6 C 1.6 km/h
1537 16-07-2022 08:00:00 11.9 C 9.21 g/m*3 11.9 C 3.2 km/h
1538 16-07-2022 08:05:00 12.3 C 9.34 g/m*3 12.3 C 1.6 km/h
1539 16-07-2022 08:10:00 12.6 C 9.4 g/m*3 12.6 C 0 km/h
1540 16-07-2022 08:15:00 12.9 C 9.35 g/m*3 12.9 C 1.6 km/h
1541 16-07-2022 08:20:00 13.2 C 9.53 g/m*3 13.2 C 3.2 km/h
1542 16-07-2022 08:25:00 13.4 C 9.53 g/m*3 13.4 C 0 km/h
1543 16-07-2022 08:30:00 13.7 C 9.71 g/m*3 13.7 C 1.6 km/h
1544 16-07-2022 08:35:00 13.9 C 9.71 g/m*3 13.9 C 4.8 km/h
1545 16-07-2022 08:40:00 14.1 C 9.59 g/m*3 14.1 C 4.8 km/h
1546 16-07-2022 08:45:00 14.2 C 9.52 g/m*3 14.2 C 6.4 km/h
1547 16-07-2022 08:50:00 14.3 C 9.46 g/m*3 14.3 C 6.4 km/h
1548 16-07-2022 08:55:00 14.5 C 9.58 g/m*3 14.5 C 6.4 km/h
1549 16-07-2022 09:00:00 14.6 C 9.76 g/m*3 14.6 C 3.2 km/h
1550 16-07-2022 09:05:00 14.7 C 9.69 g/m*3 14.7 C 1.6 km/h
Sensor: Nr:Datum:Temp:Abs-Feuchte:Windchill:Wind:
Aussen-T/F 1551 16-07-2022 09:10:00 14.9 C 9.69 g/m*3 14.9 C 1.6 km/h
1552 16-07-2022 09:15:00 15.1 C 9.8 g/m*3 15.1 C 0 km/h
1553 16-07-2022 09:20:00 15.3 C 10.19 g/m*3 15.3 C 0 km/h
1554 16-07-2022 09:25:00 15.7 C 10.3 g/m*3 15.7 C 1.6 km/h
1555 16-07-2022 09:30:00 16 C 10.22 g/m*3 16 C 4.8 km/h
1556 16-07-2022 09:35:00 16.6 C 10.31 g/m*3 16.6 C 1.6 km/h
1557 16-07-2022 09:40:00 16.9 C 10.21 g/m*3 16.9 C 4.8 km/h
1558 16-07-2022 09:45:00 17.3 C 10.31 g/m*3 17.3 C 1.6 km/h
1559 16-07-2022 09:50:00 17.6 C 10.2 g/m*3 17.6 C 1.6 km/h
1560 16-07-2022 09:55:00 17.9 C 10.08 g/m*3 17.9 C 1.6 km/h
1561 16-07-2022 10:00:00 18.2 C 10.1 g/m*3 18.2 C 1.6 km/h
1562 16-07-2022 10:05:00 18.3 C 10.32 g/m*3 18.3 C 0 km/h
1563 16-07-2022 10:10:00 18.5 C 10.6 g/m*3 18.5 C 0 km/h
1564 16-07-2022 10:15:00 18.6 C 9.87 g/m*3 18.6 C 6.4 km/h
1565 16-07-2022 10:20:00 18.8 C 10.31 g/m*3 18.8 C 3.2 km/h
1566 16-07-2022 10:25:00 19.2 C 9.89 g/m*3 19.2 C 4.8 km/h
1567 16-07-2022 10:30:00 19.5 C 9.9 g/m*3 19.5 C 11.3 km/h
1568 16-07-2022 10:35:00 19.7 C 9.85 g/m*3 19.7 C 8.1 km/h
1569 16-07-2022 10:40:00 19.8 C 10.08 g/m*3 19.8 C 9.7 km/h
1570 16-07-2022 10:45:00 20 C 10.02 g/m*3 20 C 6.4 km/h
1571 16-07-2022 10:50:00 20.3 C 10.2 g/m*3 20.3 C 9.7 km/h
1572 16-07-2022 10:55:00 20.6 C 9.66 g/m*3 20.6 C 12.9 km/h
1573 16-07-2022 11:00:00 20.7 C 9.9 g/m*3 20.7 C 8.1 km/h
1574 16-07-2022 11:05:00 20.9 C 10.2 g/m*3 20.9 C 16.1 km/h
1575 16-07-2022 11:10:00 20.9 C 10.02 g/m*3 20.9 C 14.5 km/h
Sensor: Nr:Datum:Temp:Abs-Feuchte:Windchill:Wind:
Aussen-T/F 1576 16-07-2022 11:15:00 20.8 C 10.14 g/m*3 20.8 C 12.9 km/h
1577 16-07-2022 11:20:00 20.7 C 10.08 g/m*3 20.7 C 14.5 km/h
1578 16-07-2022 11:25:00 20.6 C 10.2 g/m*3 20.6 C 16.1 km/h
1579 16-07-2022 11:30:00 20.5 C 10.32 g/m*3 20.5 C 8.1 km/h
1580 16-07-2022 11:35:00 20.7 C 10.44 g/m*3 20.7 C 17.7 km/h
1581 16-07-2022 11:40:00 21 C 10.44 g/m*3 21 C 14.5 km/h
1582 16-07-2022 11:45:00 21.4 C 10.31 g/m*3 21.4 C 12.9 km/h
1583 16-07-2022 11:50:00 21.9 C 10.81 g/m*3 21.9 C 11.3 km/h
1584 16-07-2022 11:55:00 22.1 C 10.74 g/m*3 22.1 C 19.3 km/h
1585 16-07-2022 12:00:00 22.2 C 10.99 g/m*3 22.2 C 14.5 km/h
1586 16-07-2022 12:05:00 22.3 C 11.26 g/m*3 22.3 C 16.1 km/h
1587 16-07-2022 12:10:00 22.4 C 11.32 g/m*3 22.4 C 20.9 km/h
1588 16-07-2022 12:15:00 22.5 C 11.39 g/m*3 22.5 C 22.5 km/h
1589 16-07-2022 12:20:00 22.7 C 11.52 g/m*3 22.7 C 16.1 km/h
1590 16-07-2022 12:25:00 22.8 C 11.38 g/m*3 22.8 C 17.7 km/h
1591 16-07-2022 12:30:00 22.9 C 11.44 g/m*3 22.9 C 17.7 km/h
1592 16-07-2022 12:35:00 22.8 C 11.38 g/m*3 22.8 C 20.9 km/h
1593 16-07-2022 12:40:00 22.9 C 11.24 g/m*3 22.9 C 20.9 km/h
1594 16-07-2022 12:45:00 23 C 11.51 g/m*3 23 C 19.3 km/h
1595 16-07-2022 12:50:00 23.1 C 11.37 g/m*3 23.1 C 16.1 km/h
1596 16-07-2022 12:55:00 23.1 C 11.58 g/m*3 23.1 C 19.3 km/h
1597 16-07-2022 13:00:00 23.2 C 11.43 g/m*3 23.2 C 19.3 km/h
1598 16-07-2022 13:05:00 23.5 C 11.63 g/m*3 23.5 C 16.1 km/h
1599 16-07-2022 13:10:00 23.6 C 11.48 g/m*3 23.6 C 12.9 km/h
1600 16-07-2022 13:15:00 23.8 C 11.4 g/m*3 23.8 C 16.1 km/h
Sensor: Nr:Datum:Temp:Abs-Feuchte:Windchill:Wind:
Aussen-T/F 1601 16-07-2022 13:20:00 24 C 11.31 g/m*3 24 C 16.1 km/h
1602 16-07-2022 13:25:00 24.2 C 11.44 g/m*3 24.2 C 16.1 km/h
1603 16-07-2022 13:30:00 24.2 C 10.78 g/m*3 24.2 C 22.5 km/h
1604 16-07-2022 13:35:00 23.9 C 10.82 g/m*3 23.9 C 19.3 km/h
1605 16-07-2022 13:40:00 24 C 11.1 g/m*3 24 C 20.9 km/h
1606 16-07-2022 13:45:00 24.1 C 10.72 g/m*3 24.1 C 22.5 km/h
1607 16-07-2022 13:50:00 24.2 C 10.78 g/m*3 24.2 C 12.9 km/h
1608 16-07-2022 13:55:00 24.4 C 10.9 g/m*3 24.4 C 19.3 km/h
1609 16-07-2022 14:00:00 24.5 C 10.97 g/m*3 24.5 C 22.5 km/h
1610 16-07-2022 14:05:00 24.7 C 11.09 g/m*3 24.7 C 19.3 km/h
1611 16-07-2022 14:10:00 24.6 C 11.25 g/m*3 24.6 C 17.7 km/h
1612 16-07-2022 14:15:00 24.6 C 11.25 g/m*3 24.6 C 17.7 km/h
1613 16-07-2022 14:20:00 24.4 C 11.13 g/m*3 24.4 C 17.7 km/h
1614 16-07-2022 14:25:00 24.3 C 10.62 g/m*3 24.3 C 24.1 km/h
1615 16-07-2022 14:30:00 24.3 C 11.06 g/m*3 24.3 C 20.9 km/h
1616 16-07-2022 14:35:00 24.5 C 10.74 g/m*3 24.5 C 17.7 km/h
1617 16-07-2022 14:40:00 24.8 C 10.7 g/m*3 24.8 C 9.7 km/h
1618 16-07-2022 14:45:00 25.3 C 10.77 g/m*3 25.3 C 12.9 km/h
1619 16-07-2022 14:50:00 25.7 C 10.77 g/m*3 25.7 C 19.3 km/h
1620 16-07-2022 14:55:00 25.6 C 10.71 g/m*3 25.6 C 16.1 km/h
1621 16-07-2022 15:00:00 25.8 C 11.32 g/m*3 25.8 C 11.3 km/h
1622 16-07-2022 15:05:00 25.8 C 11.07 g/m*3 25.8 C 17.7 km/h
1623 16-07-2022 15:10:00 25.4 C 10.83 g/m*3 25.4 C 12.9 km/h
1624 16-07-2022 15:15:00 25.6 C 10.48 g/m*3 25.6 C 12.9 km/h
1625 16-07-2022 15:20:00 25.6 C 10.71 g/m*3 25.6 C 16.1 km/h
Sensor: Nr:Datum:Temp:Abs-Feuchte:Windchill:Wind:
Aussen-T/F 1626 16-07-2022 15:25:00 25.8 C 10.59 g/m*3 25.8 C 16.1 km/h
1627 16-07-2022 15:30:00 25.8 C 10.59 g/m*3 25.8 C 19.3 km/h
1628 16-07-2022 15:35:00 25.3 C 10.3 g/m*3 25.3 C 17.7 km/h
1629 16-07-2022 15:40:00 25.3 C 10.3 g/m*3 25.3 C 14.5 km/h
1630 16-07-2022 15:45:00 25.3 C 10.07 g/m*3 25.3 C 19.3 km/h
1631 16-07-2022 15:50:00 25.4 C 10.12 g/m*3 25.4 C 11.3 km/h
1632 16-07-2022 15:55:00 25.8 C 10.11 g/m*3 25.8 C 16.1 km/h
1633 16-07-2022 16:00:00 26.2 C 10.34 g/m*3 26.2 C 12.9 km/h
1634 16-07-2022 16:05:00 26.3 C 9.9 g/m*3 26.3 C 12.9 km/h
1635 16-07-2022 16:10:00 26.4 C 9.71 g/m*3 26.4 C 16.1 km/h
1636 16-07-2022 16:15:00 26.3 C 9.41 g/m*3 26.3 C 16.1 km/h
1637 16-07-2022 16:20:00 26.2 C 9.35 g/m*3 26.2 C 12.9 km/h
1638 16-07-2022 16:25:00 26.3 C 9.41 g/m*3 26.3 C 14.5 km/h
1639 16-07-2022 16:30:00 26.5 C 9.51 g/m*3 26.5 C 9.7 km/h
1640 16-07-2022 16:35:00 26.6 C 9.31 g/m*3 26.6 C 12.9 km/h
1641 16-07-2022 16:40:00 26.6 C 9.31 g/m*3 26.6 C 16.1 km/h
1642 16-07-2022 16:45:00 26.5 C 9.51 g/m*3 26.5 C 11.3 km/h
1643 16-07-2022 16:50:00 26.5 C 9.01 g/m*3 26.5 C 9.7 km/h
1644 16-07-2022 16:55:00 26.3 C 8.91 g/m*3 26.3 C 17.7 km/h
1645 16-07-2022 17:00:00 26.3 C 9.16 g/m*3 26.3 C 16.1 km/h
1646 16-07-2022 17:05:00 26.3 C 9.16 g/m*3 26.3 C 16.1 km/h
1647 16-07-2022 17:10:00 26.2 C 8.86 g/m*3 26.2 C 19.3 km/h
1648 16-07-2022 17:15:00 26.3 C 9.16 g/m*3 26.3 C 12.9 km/h
1649 16-07-2022 17:20:00 26.3 C 8.91 g/m*3 26.3 C 19.3 km/h
1650 16-07-2022 17:25:00 26.3 C 8.91 g/m*3 26.3 C 14.5 km/h
Sensor: Nr:Datum:Temp:Abs-Feuchte:Windchill:Wind:
Aussen-T/F 1651 16-07-2022 17:30:00 26.2 C 9.11 g/m*3 26.2 C 16.1 km/h
1652 16-07-2022 17:35:00 26.4 C 9.21 g/m*3 26.4 C 8.1 km/h
1653 16-07-2022 17:40:00 26.6 C 9.31 g/m*3 26.6 C 12.9 km/h
1654 16-07-2022 17:45:00 26.8 C 9.16 g/m*3 26.8 C 11.3 km/h
1655 16-07-2022 17:50:00 26.9 C 9.21 g/m*3 26.9 C 9.7 km/h
1656 16-07-2022 17:55:00 26.8 C 9.42 g/m*3 26.8 C 16.1 km/h
1657 16-07-2022 18:00:00 26.7 C 9.11 g/m*3 26.7 C 14.5 km/h
1658 16-07-2022 18:05:00 26.6 C 9.31 g/m*3 26.6 C 16.1 km/h
1659 16-07-2022 18:10:00 26.4 C 9.21 g/m*3 26.4 C 12.9 km/h
1660 16-07-2022 18:15:00 26.3 C 9.41 g/m*3 26.3 C 11.3 km/h
1661 16-07-2022 18:20:00 26 C 9.49 g/m*3 26 C 14.5 km/h
1662 16-07-2022 18:25:00 26.1 C 9.3 g/m*3 26.1 C 11.3 km/h
1663 16-07-2022 18:30:00 26 C 9.49 g/m*3 26 C 14.5 km/h
1664 16-07-2022 18:35:00 25.9 C 9.2 g/m*3 25.9 C 12.9 km/h
1665 16-07-2022 18:40:00 25.7 C 9.1 g/m*3 25.7 C 14.5 km/h
1666 16-07-2022 18:45:00 25.4 C 8.95 g/m*3 25.4 C 16.1 km/h
1667 16-07-2022 18:50:00 25.2 C 9.31 g/m*3 25.2 C 16.1 km/h
1668 16-07-2022 18:55:00 25.2 C 9.31 g/m*3 25.2 C 11.3 km/h
1669 16-07-2022 19:00:00 24.9 C 9.16 g/m*3 24.9 C 16.1 km/h
1670 16-07-2022 19:05:00 24.8 C 9.1 g/m*3 24.8 C 12.9 km/h
1671 16-07-2022 19:10:00 24.7 C 8.83 g/m*3 24.7 C 9.7 km/h
1672 16-07-2022 19:15:00 24.7 C 8.83 g/m*3 24.7 C 12.9 km/h
1673 16-07-2022 19:20:00 24.6 C 8.78 g/m*3 24.6 C 11.3 km/h
1674 16-07-2022 19:25:00 24.7 C 9.05 g/m*3 24.7 C 9.7 km/h
1675 16-07-2022 19:30:00 24.7 C 8.83 g/m*3 24.7 C 12.9 km/h
Sensor: Nr:Datum:Temp:Abs-Feuchte:Windchill:Wind:
Aussen-T/F 1676 16-07-2022 19:35:00 24.5 C 8.73 g/m*3 24.5 C 11.3 km/h
1677 16-07-2022 19:40:00 24.4 C 8.68 g/m*3 24.4 C 11.3 km/h
1678 16-07-2022 19:45:00 24.4 C 8.9 g/m*3 24.4 C 9.7 km/h
1679 16-07-2022 19:50:00 24.3 C 8.63 g/m*3 24.3 C 11.3 km/h
1680 16-07-2022 19:55:00 24.1 C 8.75 g/m*3 24.1 C 11.3 km/h
1681 16-07-2022 20:00:00 23.9 C 8.65 g/m*3 23.9 C 12.9 km/h
1682 16-07-2022 20:05:00 23.7 C 8.56 g/m*3 23.7 C 11.3 km/h
1683 16-07-2022 20:10:00 23.6 C 8.51 g/m*3 23.6 C 11.3 km/h
1684 16-07-2022 20:15:00 23.4 C 8.62 g/m*3 23.4 C 6.4 km/h
1685 16-07-2022 20:20:00 23.4 C 8.62 g/m*3 23.4 C 6.4 km/h
1686 16-07-2022 20:25:00 23.3 C 8.57 g/m*3 23.3 C 6.4 km/h
1687 16-07-2022 20:30:00 23.2 C 8.52 g/m*3 23.2 C 9.7 km/h
1688 16-07-2022 20:35:00 23 C 8.22 g/m*3 23 C 3.2 km/h
1689 16-07-2022 20:40:00 22.9 C 8.17 g/m*3 22.9 C 3.2 km/h
1690 16-07-2022 20:45:00 22.8 C 8.33 g/m*3 22.8 C 4.8 km/h
1691 16-07-2022 20:50:00 22.6 C 8.24 g/m*3 22.6 C 6.4 km/h
1692 16-07-2022 20:55:00 22.4 C 8.14 g/m*3 22.4 C 4.8 km/h
1693 16-07-2022 21:00:00 22.3 C 8.1 g/m*3 22.3 C 4.8 km/h
1694 16-07-2022 21:05:00 22.2 C 8.25 g/m*3 22.2 C 3.2 km/h
1695 16-07-2022 21:10:00 22 C 8.35 g/m*3 22 C 4.8 km/h
1696 16-07-2022 21:15:00 21.8 C 9.21 g/m*3 21.8 C 0 km/h
1697 16-07-2022 21:20:00 21.7 C 9.35 g/m*3 21.7 C 0 km/h
1698 16-07-2022 21:25:00 21.3 C 9.13 g/m*3 21.3 C 0 km/h
1699 16-07-2022 21:30:00 21 C 9.16 g/m*3 21 C 3.2 km/h
1700 16-07-2022 21:35:00 20.6 C 9.31 g/m*3 20.6 C 1.6 km/h
Sensor: Nr:Datum:Temp:Abs-Feuchte:Windchill:Wind:
Aussen-T/F 1701 16-07-2022 21:40:00 20.1 C 9.21 g/m*3 20.1 C 0 km/h
1702 16-07-2022 21:45:00 19.5 C 9.06 g/m*3 19.5 C 1.6 km/h
1703 16-07-2022 21:50:00 19.1 C 9.02 g/m*3 19.1 C 0 km/h
1704 16-07-2022 21:55:00 18.7 C 8.97 g/m*3 18.7 C 3.2 km/h
1705 16-07-2022 22:00:00 18.3 C 8.91 g/m*3 18.3 C 0 km/h
1706 16-07-2022 22:05:00 17.9 C 8.86 g/m*3 17.9 C 3.2 km/h
1707 16-07-2022 22:10:00 17.7 C 8.9 g/m*3 17.7 C 3.2 km/h
1708 16-07-2022 22:15:00 17.4 C 9.04 g/m*3 17.4 C 3.2 km/h
1709 16-07-2022 22:20:00 17.2 C 8.93 g/m*3 17.2 C 1.6 km/h
1710 16-07-2022 22:25:00 17.1 C 9.03 g/m*3 17.1 C 3.2 km/h
1711 16-07-2022 22:30:00 16.9 C 9.06 g/m*3 16.9 C 1.6 km/h
1712 16-07-2022 22:35:00 16.8 C 9.15 g/m*3 16.8 C 3.2 km/h
1713 16-07-2022 22:40:00 16.6 C 8.9 g/m*3 16.6 C 3.2 km/h
1714 16-07-2022 22:45:00 16.3 C 8.88 g/m*3 16.3 C 1.6 km/h
1715 16-07-2022 22:50:00 16.2 C 8.96 g/m*3 16.2 C 4.8 km/h
1716 16-07-2022 22:55:00 16.1 C 9.05 g/m*3 16.1 C 3.2 km/h
1717 16-07-2022 23:00:00 15.9 C 8.94 g/m*3 15.9 C 1.6 km/h
1718 16-07-2022 23:05:00 15.8 C 9.02 g/m*3 15.8 C 1.6 km/h
1719 16-07-2022 23:10:00 15.7 C 8.96 g/m*3 15.7 C 1.6 km/h
1720 16-07-2022 23:15:00 15.5 C 8.99 g/m*3 15.5 C 0 km/h
1721 16-07-2022 23:20:00 15.3 C 8.88 g/m*3 15.3 C 1.6 km/h
1722 16-07-2022 23:25:00 15.2 C 8.83 g/m*3 15.2 C 1.6 km/h
1723 16-07-2022 23:30:00 15.1 C 8.77 g/m*3 15.1 C 0 km/h
1724 16-07-2022 23:35:00 14.9 C 8.79 g/m*3 14.9 C 0 km/h
1725 16-07-2022 23:40:00 14.8 C 8.87 g/m*3 14.8 C 0 km/h
Sensor: Nr:Datum:Temp:Abs-Feuchte:Windchill:Wind:
Aussen-T/F 1726 16-07-2022 23:45:00 14.7 C 8.81 g/m*3 14.7 C 0 km/h
1727 16-07-2022 23:50:00 14.6 C 8.88 g/m*3 14.6 C 0 km/h
1728 16-07-2022 23:55:00 14.4 C 8.78 g/m*3 14.4 C 0 km/h
1729 17-07-2022 00:00:00 14.3 C 8.6 g/m*3 14.3 C 0 km/h
1730 17-07-2022 00:05:00 14.2 C 8.67 g/m*3 14.2 C 0 km/h
1731 17-07-2022 00:10:00 14.1 C 8.62 g/m*3 14.1 C 0 km/h
1732 17-07-2022 00:15:00 14.1 C 8.74 g/m*3 14.1 C 0 km/h
1733 17-07-2022 00:20:00 13.9 C 8.75 g/m*3 13.9 C 0 km/h
1734 17-07-2022 00:25:00 13.8 C 8.7 g/m*3 13.8 C 0 km/h
1735 17-07-2022 00:30:00 13.7 C 8.64 g/m*3 13.7 C 0 km/h
1736 17-07-2022 00:35:00 13.6 C 8.59 g/m*3 13.6 C 0 km/h
1737 17-07-2022 00:40:00 13.6 C 8.71 g/m*3 13.6 C 0 km/h
1738 17-07-2022 00:45:00 13.4 C 8.72 g/m*3 13.4 C 0 km/h
1739 17-07-2022 00:50:00 13.3 C 8.78 g/m*3 13.3 C 0 km/h
1740 17-07-2022 00:55:00 13.2 C 8.61 g/m*3 13.2 C 0 km/h
1741 17-07-2022 01:00:00 13.1 C 8.67 g/m*3 13.1 C 0 km/h
1742 17-07-2022 01:05:00 13 C 8.62 g/m*3 13 C 0 km/h
1743 17-07-2022 01:10:00 12.9 C 8.57 g/m*3 12.9 C 0 km/h
1744 17-07-2022 01:15:00 12.8 C 8.62 g/m*3 12.8 C 0 km/h
1745 17-07-2022 01:20:00 12.7 C 8.57 g/m*3 12.7 C 0 km/h
1746 17-07-2022 01:25:00 12.6 C 8.52 g/m*3 12.6 C 0 km/h
1747 17-07-2022 01:30:00 12.4 C 8.52 g/m*3 12.4 C 0 km/h
1748 17-07-2022 01:35:00 12.3 C 8.47 g/m*3 12.3 C 0 km/h
1749 17-07-2022 01:40:00 12.3 C 8.58 g/m*3 12.3 C 0 km/h
1750 17-07-2022 01:45:00 12.2 C 8.52 g/m*3 12.2 C 0 km/h
Sensor: Nr:Datum:Temp:Abs-Feuchte:Windchill:Wind:
Aussen-T/F 1751 17-07-2022 01:50:00 12.2 C 8.52 g/m*3 12.2 C 0 km/h
1752 17-07-2022 01:55:00 12.1 C 8.47 g/m*3 12.1 C 0 km/h
1753 17-07-2022 02:00:00 11.9 C 8.47 g/m*3 11.9 C 0 km/h
1754 17-07-2022 02:05:00 11.8 C 8.42 g/m*3 11.8 C 0 km/h
1755 17-07-2022 02:10:00 11.8 C 8.42 g/m*3 11.8 C 0 km/h
1756 17-07-2022 02:15:00 11.7 C 8.37 g/m*3 11.7 C 0 km/h
1757 17-07-2022 02:20:00 11.6 C 8.42 g/m*3 11.6 C 0 km/h
1758 17-07-2022 02:25:00 11.5 C 8.37 g/m*3 11.5 C 0 km/h
1759 17-07-2022 02:30:00 11.4 C 8.31 g/m*3 11.4 C 0 km/h
1760 17-07-2022 02:35:00 11.3 C 8.36 g/m*3 11.3 C 0 km/h
1761 17-07-2022 02:40:00 11.2 C 8.31 g/m*3 11.2 C 0 km/h
1762 17-07-2022 02:45:00 11.2 C 8.31 g/m*3 11.2 C 0 km/h
1763 17-07-2022 02:50:00 11.1 C 8.36 g/m*3 11.1 C 0 km/h
1764 17-07-2022 02:55:00 11 C 8.31 g/m*3 11 C 0 km/h
1765 17-07-2022 03:00:00 10.9 C 8.26 g/m*3 10.9 C 0 km/h
1766 17-07-2022 03:05:00 10.9 C 8.26 g/m*3 10.9 C 0 km/h
1767 17-07-2022 03:10:00 10.8 C 8.2 g/m*3 10.8 C 0 km/h
1768 17-07-2022 03:15:00 10.8 C 8.3 g/m*3 10.8 C 0 km/h
1769 17-07-2022 03:20:00 10.7 C 8.25 g/m*3 10.7 C 0 km/h
1770 17-07-2022 03:25:00 10.7 C 8.25 g/m*3 10.7 C 0 km/h
1771 17-07-2022 03:30:00 10.6 C 8.2 g/m*3 10.6 C 0 km/h
1772 17-07-2022 03:35:00 10.6 C 8.3 g/m*3 10.6 C 0 km/h
1773 17-07-2022 03:40:00 10.5 C 8.24 g/m*3 10.5 C 0 km/h
1774 17-07-2022 03:45:00 10.4 C 8.19 g/m*3 10.4 C 0 km/h
1775 17-07-2022 03:50:00 10.4 C 8.19 g/m*3 10.4 C 0 km/h
Sensor: Nr:Datum:Temp:Abs-Feuchte:Windchill:Wind:
Aussen-T/F 1776 17-07-2022 03:55:00 10.3 C 8.14 g/m*3 10.3 C 0 km/h
1777 17-07-2022 04:00:00 10.3 C 8.14 g/m*3 10.3 C 0 km/h
1778 17-07-2022 04:05:00 10.2 C 8.09 g/m*3 10.2 C 0 km/h
1779 17-07-2022 04:10:00 10.2 C 8.18 g/m*3 10.2 C 0 km/h
1780 17-07-2022 04:15:00 10.1 C 8.13 g/m*3 10.1 C 0 km/h
1781 17-07-2022 04:20:00 10.1 C 8.13 g/m*3 10.1 C 0 km/h
1782 17-07-2022 04:25:00 10 C 8.08 g/m*3 10 C 0 km/h
1783 17-07-2022 04:30:00 9.9 C 8.03 g/m*3 9.9 C 0 km/h
1784 17-07-2022 04:35:00 9.9 C 8.03 g/m*3 9.9 C 0 km/h
1785 17-07-2022 04:40:00 9.8 C 8.07 g/m*3 9.8 C 0 km/h
1786 17-07-2022 04:45:00 9.8 C 8.07 g/m*3 9.8 C 0 km/h
1787 17-07-2022 04:50:00 9.7 C 8.02 g/m*3 9.7 C 0 km/h
1788 17-07-2022 04:55:00 9.7 C 8.02 g/m*3 9.7 C 0 km/h
1789 17-07-2022 05:00:00 9.6 C 7.97 g/m*3 9.6 C 0 km/h
1790 17-07-2022 05:05:00 9.6 C 7.97 g/m*3 9.6 C 0 km/h
1791 17-07-2022 05:10:00 9.5 C 7.92 g/m*3 9.5 C 0 km/h
1792 17-07-2022 05:15:00 9.4 C 7.96 g/m*3 9.4 C 0 km/h
1793 17-07-2022 05:20:00 9.4 C 7.96 g/m*3 9.4 C 0 km/h
1794 17-07-2022 05:25:00 9.4 C 7.96 g/m*3 9.4 C 0 km/h
1795 17-07-2022 05:30:00 9.4 C 7.96 g/m*3 9.4 C 0 km/h
1796 17-07-2022 05:35:00 9.4 C 7.96 g/m*3 9.4 C 0 km/h
1797 17-07-2022 05:40:00 9.4 C 8.05 g/m*3 9.4 C 0 km/h
1798 17-07-2022 05:45:00 9.4 C 8.05 g/m*3 9.4 C 0 km/h
1799 17-07-2022 05:50:00 9.4 C 8.05 g/m*3 9.4 C 0 km/h
1800 17-07-2022 05:55:00 9.4 C 8.05 g/m*3 9.4 C 0 km/h
Sensor: Nr:Datum:Temp:Abs-Feuchte:Windchill:Wind:
Aussen-T/F 1801 17-07-2022 06:00:00 9.3 C 8 g/m*3 9.3 C 0 km/h
1802 17-07-2022 06:05:00 9.3 C 8 g/m*3 9.3 C 0 km/h
1803 17-07-2022 06:10:00 9.3 C 8 g/m*3 9.3 C 0 km/h
1804 17-07-2022 06:15:00 9.3 C 8 g/m*3 9.3 C 0 km/h
1805 17-07-2022 06:20:00 9.3 C 8 g/m*3 9.3 C 0 km/h
1806 17-07-2022 06:25:00 9.3 C 8.09 g/m*3 9.3 C 0 km/h
1807 17-07-2022 06:30:00 9.3 C 8.09 g/m*3 9.3 C 0 km/h
1808 17-07-2022 06:35:00 9.3 C 8.09 g/m*3 9.3 C 0 km/h
1809 17-07-2022 06:40:00 9.3 C 8.09 g/m*3 9.3 C 0 km/h
1810 17-07-2022 06:45:00 9.3 C 8.09 g/m*3 9.3 C 0 km/h
1811 17-07-2022 06:50:00 9.3 C 8.09 g/m*3 9.3 C 0 km/h
1812 17-07-2022 06:55:00 9.3 C 8.09 g/m*3 9.3 C 0 km/h
1813 17-07-2022 07:00:00 9.3 C 8.09 g/m*3 9.3 C 0 km/h
1814 17-07-2022 07:05:00 9.3 C 8.18 g/m*3 9.3 C 0 km/h
1815 17-07-2022 07:10:00 9.3 C 8.18 g/m*3 9.3 C 0 km/h
1816 17-07-2022 07:15:00 9.4 C 8.23 g/m*3 9.4 C 0 km/h
1817 17-07-2022 07:20:00 9.4 C 8.23 g/m*3 9.4 C 0 km/h
1818 17-07-2022 07:25:00 9.5 C 8.28 g/m*3 9.5 C 0 km/h
1819 17-07-2022 07:30:00 9.6 C 8.34 g/m*3 9.6 C 0 km/h
1820 17-07-2022 07:35:00 9.6 C 8.34 g/m*3 9.6 C 0 km/h
1821 17-07-2022 07:40:00 9.7 C 8.39 g/m*3 9.7 C 0 km/h
1822 17-07-2022 07:45:00 9.7 C 8.48 g/m*3 9.7 C 0 km/h
1823 17-07-2022 07:50:00 9.8 C 8.54 g/m*3 9.8 C 0 km/h
1824 17-07-2022 07:55:00 9.9 C 8.59 g/m*3 9.9 C 0 km/h
1825 17-07-2022 08:00:00 10 C 8.64 g/m*3 10 C 0 km/h
Sensor: Nr:Datum:Temp:Abs-Feuchte:Windchill:Wind:
Aussen-T/F 1826 17-07-2022 08:05:00 10.1 C 8.7 g/m*3 10.1 C 0 km/h
1827 17-07-2022 08:10:00 10.2 C 8.76 g/m*3 10.2 C 0 km/h
1828 17-07-2022 08:15:00 10.2 C 8.76 g/m*3 10.2 C 0 km/h
1829 17-07-2022 08:20:00 10.3 C 8.81 g/m*3 10.3 C 0 km/h
1830 17-07-2022 08:25:00 10.4 C 8.87 g/m*3 10.4 C 0 km/h
1831 17-07-2022 08:30:00 10.5 C 8.92 g/m*3 10.5 C 0 km/h
1832 17-07-2022 08:35:00 10.6 C 8.98 g/m*3 10.6 C 0 km/h
1833 17-07-2022 08:40:00 10.7 C 9.04 g/m*3 10.7 C 0 km/h
1834 17-07-2022 08:45:00 10.8 C 9.09 g/m*3 10.8 C 0 km/h
1835 17-07-2022 08:50:00 10.9 C 9.15 g/m*3 10.9 C 0 km/h
1836 17-07-2022 08:55:00 11 C 9.21 g/m*3 11 C 0 km/h
1837 17-07-2022 09:00:00 11.1 C 9.27 g/m*3 11.1 C 0 km/h
1838 17-07-2022 09:05:00 11.3 C 9.38 g/m*3 11.3 C 0 km/h
1839 17-07-2022 09:10:00 11.4 C 9.44 g/m*3 11.4 C 0 km/h
1840 17-07-2022 09:15:00 11.7 C 9.62 g/m*3 11.7 C 0 km/h
1841 17-07-2022 09:20:00 12 C 9.8 g/m*3 12 C 0 km/h
1842 17-07-2022 09:25:00 12.4 C 9.94 g/m*3 12.4 C 0 km/h
1843 17-07-2022 09:30:00 12.8 C 10.19 g/m*3 12.8 C 0 km/h
1844 17-07-2022 09:35:00 13.3 C 10.28 g/m*3 13.3 C 0 km/h
1845 17-07-2022 09:40:00 13.7 C 10.42 g/m*3 13.7 C 0 km/h
1846 17-07-2022 09:45:00 14.1 C 10.44 g/m*3 14.1 C 0 km/h
1847 17-07-2022 09:50:00 14.5 C 10.45 g/m*3 14.5 C 0 km/h
1848 17-07-2022 09:55:00 14.8 C 10.51 g/m*3 14.8 C 0 km/h
1849 17-07-2022 10:00:00 15.1 C 10.71 g/m*3 15.1 C 0 km/h
1850 17-07-2022 10:05:00 15.3 C 10.45 g/m*3 15.3 C 0 km/h
Sensor: Nr:Datum:Temp:Abs-Feuchte:Windchill:Wind:
Aussen-T/F 1851 17-07-2022 10:10:00 15.7 C 10.57 g/m*3 15.7 C 0 km/h
1852 17-07-2022 10:15:00 16.1 C 10.83 g/m*3 16.1 C 0 km/h
1853 17-07-2022 10:20:00 16.4 C 10.33 g/m*3 16.4 C 0 km/h
1854 17-07-2022 10:25:00 17 C 10.56 g/m*3 17 C 0 km/h
1855 17-07-2022 10:30:00 17.6 C 10.8 g/m*3 17.6 C 0 km/h
1856 17-07-2022 10:35:00 17.9 C 10.54 g/m*3 17.9 C 0 km/h
1857 17-07-2022 10:40:00 18.5 C 10.28 g/m*3 18.5 C 3.2 km/h
1858 17-07-2022 10:45:00 19.1 C 10 g/m*3 19.1 C 3.2 km/h
1859 17-07-2022 10:50:00 19.6 C 9.79 g/m*3 19.6 C 4.8 km/h
1860 17-07-2022 10:55:00 20.1 C 9.91 g/m*3 20.1 C 11.3 km/h
1861 17-07-2022 11:00:00 20.4 C 9.73 g/m*3 20.4 C 6.4 km/h
1862 17-07-2022 11:05:00 20.8 C 9.6 g/m*3 20.8 C 4.8 km/h
1863 17-07-2022 11:10:00 21.2 C 9.64 g/m*3 21.2 C 4.8 km/h
1864 17-07-2022 11:15:00 21.5 C 9.24 g/m*3 21.5 C 9.7 km/h
1865 17-07-2022 11:20:00 21.7 C 9.35 g/m*3 21.7 C 8.1 km/h
1866 17-07-2022 11:25:00 22.1 C 9.37 g/m*3 22.1 C 9.7 km/h
1867 17-07-2022 11:30:00 22.3 C 9.28 g/m*3 22.3 C 8.1 km/h
1868 17-07-2022 11:35:00 22.6 C 9.24 g/m*3 22.6 C 12.9 km/h
1869 17-07-2022 11:40:00 22.7 C 9.09 g/m*3 22.7 C 12.9 km/h
1870 17-07-2022 11:45:00 22.9 C 9.4 g/m*3 22.9 C 8.1 km/h
1871 17-07-2022 11:50:00 23.2 C 9.36 g/m*3 23.2 C 6.4 km/h
1872 17-07-2022 11:55:00 23.4 C 8.83 g/m*3 23.4 C 6.4 km/h
1873 17-07-2022 12:00:00 23.7 C 8.98 g/m*3 23.7 C 6.4 km/h
1874 17-07-2022 12:05:00 23.8 C 9.03 g/m*3 23.8 C 8.1 km/h
1875 17-07-2022 12:10:00 24 C 8.92 g/m*3 24 C 8.1 km/h
Sensor: Nr:Datum:Temp:Abs-Feuchte:Windchill:Wind:
Aussen-T/F 1876 17-07-2022 12:15:00 24.2 C 8.8 g/m*3 24.2 C 11.3 km/h
1877 17-07-2022 12:20:00 24.3 C 8.19 g/m*3 24.3 C 8.1 km/h
1878 17-07-2022 12:25:00 24.4 C 8.23 g/m*3 24.4 C 8.1 km/h
1879 17-07-2022 12:30:00 24.6 C 8.33 g/m*3 24.6 C 4.8 km/h
1880 17-07-2022 12:35:00 24.9 C 8.47 g/m*3 24.9 C 4.8 km/h
1881 17-07-2022 12:40:00 25.1 C 8.1 g/m*3 25.1 C 8.1 km/h
1882 17-07-2022 12:45:00 25.1 C 7.18 g/m*3 25.1 C 9.7 km/h
1883 17-07-2022 12:50:00 25.1 C 7.18 g/m*3 25.1 C 11.3 km/h
1884 17-07-2022 12:55:00 25.2 C 7.92 g/m*3 25.2 C 6.4 km/h
1885 17-07-2022 13:00:00 25.5 C 7.81 g/m*3 25.5 C 9.7 km/h
1886 17-07-2022 13:05:00 25.7 C 7.66 g/m*3 25.7 C 6.4 km/h
1887 17-07-2022 13:10:00 25.7 C 8.14 g/m*3 25.7 C 4.8 km/h
1888 17-07-2022 13:15:00 25.7 C 8.14 g/m*3 25.7 C 6.4 km/h
1889 17-07-2022 13:20:00 25.8 C 7.94 g/m*3 25.8 C 4.8 km/h
1890 17-07-2022 13:25:00 25.9 C 7.99 g/m*3 25.9 C 6.4 km/h
1891 17-07-2022 13:30:00 26 C 7.79 g/m*3 26 C 6.4 km/h
1892 17-07-2022 13:35:00 26.2 C 7.88 g/m*3 26.2 C 14.5 km/h
1893 17-07-2022 13:40:00 26.5 C 8.26 g/m*3 26.5 C 6.4 km/h
1894 17-07-2022 13:45:00 26.7 C 8.1 g/m*3 26.7 C 6.4 km/h
1895 17-07-2022 13:50:00 26.8 C 7.38 g/m*3 26.8 C 6.4 km/h
1896 17-07-2022 13:55:00 26.7 C 7.09 g/m*3 26.7 C 6.4 km/h
1897 17-07-2022 14:00:00 26.9 C 7.17 g/m*3 26.9 C 11.3 km/h
1898 17-07-2022 14:05:00 26.9 C 6.91 g/m*3 26.9 C 11.3 km/h
1899 17-07-2022 14:10:00 26.8 C 6.87 g/m*3 26.8 C 9.7 km/h
1900 17-07-2022 14:15:00 26.8 C 7.13 g/m*3 26.8 C 9.7 km/h
Sensor: Nr:Datum:Temp:Abs-Feuchte:Windchill:Wind:
Aussen-T/F 1901 17-07-2022 14:20:00 27.1 C 6.73 g/m*3 27.1 C 4.8 km/h
1902 17-07-2022 14:25:00 27.4 C 6.84 g/m*3 27.4 C 4.8 km/h
1903 17-07-2022 14:30:00 27.6 C 7.18 g/m*3 27.6 C 9.7 km/h
1904 17-07-2022 14:35:00 27.6 C 7.45 g/m*3 27.6 C 11.3 km/h
1905 17-07-2022 14:40:00 27.4 C 6.84 g/m*3 27.4 C 4.8 km/h
1906 17-07-2022 14:45:00 27.5 C 6.88 g/m*3 27.5 C 4.8 km/h
1907 17-07-2022 14:50:00 27.7 C 7.49 g/m*3 27.7 C 3.2 km/h
1908 17-07-2022 14:55:00 28.1 C 7.66 g/m*3 28.1 C 11.3 km/h
1909 17-07-2022 15:00:00 28.2 C 7.15 g/m*3 28.2 C 9.7 km/h
1910 17-07-2022 15:05:00 28.3 C 7.19 g/m*3 28.3 C 14.5 km/h
1911 17-07-2022 15:10:00 28 C 7.07 g/m*3 28 C 11.3 km/h
1912 17-07-2022 15:15:00 27.9 C 7.03 g/m*3 27.9 C 8.1 km/h
1913 17-07-2022 15:20:00 28.1 C 7.11 g/m*3 28.1 C 9.7 km/h
1914 17-07-2022 15:25:00 28.2 C 7.15 g/m*3 28.2 C 11.3 km/h
1915 17-07-2022 15:30:00 28.3 C 6.91 g/m*3 28.3 C 11.3 km/h
1916 17-07-2022 15:35:00 28.6 C 7.03 g/m*3 28.6 C 9.7 km/h
1917 17-07-2022 15:40:00 28.5 C 7.55 g/m*3 28.5 C 12.9 km/h
1918 17-07-2022 15:45:00 28.7 C 7.06 g/m*3 28.7 C 12.9 km/h
1919 17-07-2022 15:50:00 29.1 C 7.22 g/m*3 29.1 C 4.8 km/h
1920 17-07-2022 15:55:00 29.1 C 7.22 g/m*3 29.1 C 6.4 km/h
1921 17-07-2022 16:00:00 29.3 C 7.59 g/m*3 29.3 C 8.1 km/h
1922 17-07-2022 16:05:00 29.5 C 7.67 g/m*3 29.5 C 4.8 km/h
1923 17-07-2022 16:10:00 29.7 C 7.46 g/m*3 29.7 C 6.4 km/h
1924 17-07-2022 16:15:00 29.7 C 7.46 g/m*3 29.7 C 6.4 km/h
1925 17-07-2022 16:20:00 29.6 C 7.72 g/m*3 29.6 C 9.7 km/h
Sensor: Nr:Datum:Temp:Abs-Feuchte:Windchill:Wind:
Aussen-T/F 1926 17-07-2022 16:25:00 29.4 C 7.93 g/m*3 29.4 C 9.7 km/h
1927 17-07-2022 16:30:00 29.3 C 8.17 g/m*3 29.3 C 8.1 km/h
1928 17-07-2022 16:35:00 29.2 C 8.13 g/m*3 29.2 C 6.4 km/h
1929 17-07-2022 16:40:00 29.3 C 7.88 g/m*3 29.3 C 4.8 km/h
1930 17-07-2022 16:45:00 29.3 C 8.17 g/m*3 29.3 C 8.1 km/h
1931 17-07-2022 16:50:00 29.3 C 8.47 g/m*3 29.3 C 3.2 km/h
1932 17-07-2022 16:55:00 29.7 C 8.35 g/m*3 29.7 C 9.7 km/h
1933 17-07-2022 17:00:00 30 C 8.79 g/m*3 30 C 8.1 km/h
1934 17-07-2022 17:05:00 30.3 C 8.32 g/m*3 30.3 C 4.8 km/h
1935 17-07-2022 17:10:00 30.3 C 8.01 g/m*3 30.3 C 11.3 km/h
1936 17-07-2022 17:15:00 29.8 C 8.1 g/m*3 29.8 C 11.3 km/h
1937 17-07-2022 17:20:00 29.6 C 8.31 g/m*3 29.6 C 11.3 km/h
1938 17-07-2022 17:25:00 29.8 C 8.4 g/m*3 29.8 C 8.1 km/h
1939 17-07-2022 17:30:00 30 C 8.49 g/m*3 30 C 6.4 km/h
1940 17-07-2022 17:35:00 30.4 C 8.37 g/m*3 30.4 C 6.4 km/h
1941 17-07-2022 17:40:00 30.7 C 8.5 g/m*3 30.7 C 4.8 km/h
1942 17-07-2022 17:45:00 30.8 C 8.23 g/m*3 30.8 C 6.4 km/h
1943 17-07-2022 17:50:00 30.8 C 7.92 g/m*3 30.8 C 8.1 km/h
1944 17-07-2022 17:55:00 30.9 C 7.64 g/m*3 30.9 C 6.4 km/h
1945 17-07-2022 18:00:00 31 C 7.68 g/m*3 31 C 8.1 km/h
1946 17-07-2022 18:05:00 30.9 C 7.32 g/m*3 30.9 C 8.1 km/h
1947 17-07-2022 18:10:00 30.7 C 7.56 g/m*3 30.7 C 6.4 km/h
1948 17-07-2022 18:15:00 30.7 C 7.87 g/m*3 30.7 C 6.4 km/h
1949 17-07-2022 18:20:00 30.8 C 7.92 g/m*3 30.8 C 11.3 km/h
1950 17-07-2022 18:25:00 30.8 C 7.6 g/m*3 30.8 C 8.1 km/h
Sensor: Nr:Datum:Temp:Abs-Feuchte:Windchill:Wind:
Aussen-T/F 1951 17-07-2022 18:30:00 30.6 C 7.52 g/m*3 30.6 C 8.1 km/h
1952 17-07-2022 18:35:00 30.2 C 7.66 g/m*3 30.2 C 8.1 km/h
1953 17-07-2022 18:40:00 29.8 C 7.8 g/m*3 29.8 C 9.7 km/h
1954 17-07-2022 18:45:00 29.5 C 7.67 g/m*3 29.5 C 12.9 km/h
1955 17-07-2022 18:50:00 29.1 C 7.8 g/m*3 29.1 C 8.1 km/h
1956 17-07-2022 18:55:00 28.8 C 7.96 g/m*3 28.8 C 8.1 km/h
1957 17-07-2022 19:00:00 28.5 C 7.83 g/m*3 28.5 C 8.1 km/h
1958 17-07-2022 19:05:00 28.4 C 7.78 g/m*3 28.4 C 11.3 km/h
1959 17-07-2022 19:10:00 28.4 C 7.51 g/m*3 28.4 C 8.1 km/h
1960 17-07-2022 19:15:00 28.4 C 7.78 g/m*3 28.4 C 8.1 km/h
1961 17-07-2022 19:20:00 28.4 C 7.78 g/m*3 28.4 C 6.4 km/h
1962 17-07-2022 19:25:00 28.5 C 7.83 g/m*3 28.5 C 6.4 km/h
1963 17-07-2022 19:30:00 28.6 C 7.87 g/m*3 28.6 C 6.4 km/h
1964 17-07-2022 19:35:00 28.4 C 7.51 g/m*3 28.4 C 6.4 km/h
1965 17-07-2022 19:40:00 28.3 C 7.74 g/m*3 28.3 C 6.4 km/h
1966 17-07-2022 19:45:00 28.3 C 7.74 g/m*3 28.3 C 8.1 km/h
1967 17-07-2022 19:50:00 28.2 C 7.7 g/m*3 28.2 C 6.4 km/h
1968 17-07-2022 19:55:00 28.1 C 7.93 g/m*3 28.1 C 3.2 km/h
1969 17-07-2022 20:00:00 27.9 C 7.84 g/m*3 27.9 C 6.4 km/h
1970 17-07-2022 20:05:00 27.7 C 8.02 g/m*3 27.7 C 4.8 km/h
1971 17-07-2022 20:10:00 27.6 C 7.71 g/m*3 27.6 C 6.4 km/h
1972 17-07-2022 20:15:00 27.3 C 7.85 g/m*3 27.3 C 6.4 km/h
1973 17-07-2022 20:20:00 27.2 C 8.07 g/m*3 27.2 C 3.2 km/h
1974 17-07-2022 20:25:00 27.1 C 8.02 g/m*3 27.1 C 4.8 km/h
1975 17-07-2022 20:30:00 27 C 9.26 g/m*3 27 C 1.6 km/h
Sensor: Nr:Datum:Temp:Abs-Feuchte:Windchill:Wind:
Aussen-T/F 1976 17-07-2022 20:35:00 26.9 C 10.24 g/m*3 26.9 C 1.6 km/h
1977 17-07-2022 20:40:00 26.7 C 10.38 g/m*3 26.7 C 1.6 km/h
1978 17-07-2022 20:45:00 26.4 C 10.21 g/m*3 26.4 C 1.6 km/h
1979 17-07-2022 20:50:00 26.2 C 10.34 g/m*3 26.2 C 1.6 km/h
1980 17-07-2022 20:55:00 25.8 C 10.83 g/m*3 25.8 C 3.2 km/h
1981 17-07-2022 21:00:00 25.4 C 10.12 g/m*3 25.4 C 4.8 km/h
1982 17-07-2022 21:05:00 25 C 10.36 g/m*3 25 C 0 km/h
1983 17-07-2022 21:10:00 24.5 C 10.97 g/m*3 24.5 C 3.2 km/h
1984 17-07-2022 21:15:00 23.9 C 10.6 g/m*3 23.9 C 1.6 km/h
1985 17-07-2022 21:20:00 23.4 C 10.51 g/m*3 23.4 C 0 km/h
1986 17-07-2022 21:25:00 22.9 C 10.42 g/m*3 22.9 C 0 km/h
1987 17-07-2022 21:30:00 22.4 C 9.93 g/m*3 22.4 C 1.6 km/h
1988 17-07-2022 21:35:00 22.1 C 9.96 g/m*3 22.1 C 1.6 km/h
1989 17-07-2022 21:40:00 21.7 C 9.73 g/m*3 21.7 C 1.6 km/h
1990 17-07-2022 21:45:00 21.3 C 9.69 g/m*3 21.3 C 1.6 km/h
1991 17-07-2022 21:50:00 20.9 C 9.83 g/m*3 20.9 C 1.6 km/h
1992 17-07-2022 21:55:00 20.6 C 9.66 g/m*3 20.6 C 1.6 km/h
1993 17-07-2022 22:00:00 20.2 C 9.62 g/m*3 20.2 C 1.6 km/h
1994 17-07-2022 22:05:00 19.9 C 9.62 g/m*3 19.9 C 0 km/h
1995 17-07-2022 22:10:00 19.6 C 9.12 g/m*3 19.6 C 0 km/h
1996 17-07-2022 22:15:00 19.4 C 9.34 g/m*3 19.4 C 0 km/h
1997 17-07-2022 22:20:00 19.2 C 9.23 g/m*3 19.2 C 0 km/h
1998 17-07-2022 22:25:00 19.1 C 9.51 g/m*3 19.1 C 0 km/h
1999 17-07-2022 22:30:00 18.9 C 9.4 g/m*3 18.9 C 0 km/h
2000 17-07-2022 22:35:00 18.7 C 9.13 g/m*3 18.7 C 0 km/h
Sensor: Nr:Datum:Temp:Abs-Feuchte:Windchill:Wind:
Aussen-T/F 2001 17-07-2022 22:40:00 18.5 C 9.02 g/m*3 18.5 C 0 km/h
2002 17-07-2022 22:45:00 18.4 C 9.12 g/m*3 18.4 C 0 km/h
2003 17-07-2022 22:50:00 18.3 C 9.38 g/m*3 18.3 C 0 km/h
2004 17-07-2022 22:55:00 18.2 C 9.33 g/m*3 18.2 C 0 km/h
2005 17-07-2022 23:00:00 18.1 C 9.12 g/m*3 18.1 C 0 km/h
2006 17-07-2022 23:05:00 17.9 C 9.01 g/m*3 17.9 C 0 km/h
2007 17-07-2022 23:10:00 17.8 C 9.11 g/m*3 17.8 C 0 km/h
2008 17-07-2022 23:15:00 17.7 C 9.35 g/m*3 17.7 C 0 km/h
2009 17-07-2022 23:20:00 17.6 C 9.15 g/m*3 17.6 C 0 km/h
2010 17-07-2022 23:25:00 17.4 C 9.34 g/m*3 17.4 C 0 km/h
2011 17-07-2022 23:30:00 17.3 C 9.13 g/m*3 17.3 C 0 km/h
2012 17-07-2022 23:35:00 17.1 C 9.03 g/m*3 17.1 C 0 km/h
2013 17-07-2022 23:40:00 17.1 C 9.32 g/m*3 17.1 C 0 km/h
2014 17-07-2022 23:45:00 16.9 C 9.21 g/m*3 16.9 C 0 km/h
2015 17-07-2022 23:50:00 16.8 C 9.29 g/m*3 16.8 C 0 km/h
2016 17-07-2022 23:55:00 16.7 C 9.24 g/m*3 16.7 C 0 km/h

Legende:
   Min
   Max


Maximal/Minimal-Werte vom 11.07.2022 - 17.07.2022

Sensor Min Max Avg
Temp
(Aussen-T/F)
9.3 °C
17-07-2022  06:00:00
36.2 °C
13-07-2022  16:45:00
20.19 °C
Abs-Feuchte
(Aussen-T/F)
6.73 g/m*3
17-07-2022  14:20:00
14.58 g/m*3
13-07-2022  09:40:00
10.82 g/m*3
Windchill
(Aussen-T/F)
9.3 C
17-07-2022  06:00:00
36.2 C
13-07-2022  16:45:00
20.18 C

Die Daten stammen von einer Davis Vantage Pro 2 Wetter-Station und werden unter Linux mit der Software wview2wettercgi und aufbereitet. Alle Angaben erfolgen ohne Gewähr für ihre Vollständigkeit oder Richtigkeit.
Kontakt: Rainer Krienke krienke@uni-koblenz.de . Meine Webseiten an der Uni Koblenz oder privat.
Version: $Revision: 0.78 $